Date StartTime U_cm/s V_cm/s W_cm/s Ustd_cm/s Vstd_cm/s Wstd_cm/s Uvar_(cm/s)^2 Vvar_(cm/s)^2 Wvar_(cm/s)^2 KE_(m/s)^2 TurbulentKE_(m/s)^2 HorizWindSpeed_cm/s FrictionSpeec_cm/s DragCoef SpeedOfSound_m/s SonicTemperature_C Pressure_mb 
12/21/2014  00:00:00     -398.738      -99.597       -9.610      161.274      124.248       76.454    26009.273    15437.565     5845.192       10.814        2.365      410.988       88.871        0.047      338.573       11.312      863.859
12/21/2014  00:01:00     -361.420      -92.603      -22.686      192.649      158.690       79.238    37113.766    25182.479     6278.739       10.413        3.429      373.095       85.137        0.052      338.673       11.482      863.880
12/21/2014  00:02:00     -400.379     -139.716       -2.921      153.348      134.358       67.216    23515.635    18052.015     4518.002       11.295        2.304      424.057       55.915        0.017      338.608       11.371      863.896
12/21/2014  00:03:00     -397.570     -151.643       -7.602      153.223      125.818       73.497    23477.414    15830.140     5401.773       11.290        2.235      425.509       84.161        0.039      338.530       11.242      863.887
12/21/2014  00:04:00     -291.666      -72.038      -10.365      150.633      103.359       64.149    22690.356    10682.995     4115.055        6.392        1.874      300.431       66.233        0.049      338.602       11.362      863.886
12/21/2014  00:05:00     -336.911      -15.684      -18.311      145.671      121.109       70.245    21220.164    14667.466     4934.337        7.745        2.041      337.276       80.012        0.056      338.591       11.344      863.870
12/21/2014  00:06:00     -371.989      -35.662       -9.211      169.250      120.191       79.439    28645.710    14445.758     6310.502        9.456        2.470      373.695       83.808        0.050      338.638       11.422      863.862
12/21/2014  00:07:00     -349.320      -35.364      -10.341      129.043      107.538       73.492    16652.185    11564.384     5401.006        7.849        1.681      351.106       66.939        0.036      338.618       11.390      863.837
12/21/2014  00:08:00     -423.249      -65.768      -22.192      155.280       87.741       63.164    24111.729     7698.476     3989.724       10.987        1.790      428.328       76.353        0.032      338.579       11.323      863.786
12/21/2014  00:09:00     -448.065      -63.231      -26.925      159.949      109.158       65.770    25583.585    11915.486     4325.685       12.365        2.091      452.505       73.366        0.026      338.604       11.365      863.762
12/21/2014  00:10:00     -321.750      -87.773      -14.746      197.896      115.499       82.537    39162.905    13340.126     6812.320        8.537        2.966      333.507       94.874        0.081      338.567       11.304      863.753
12/21/2014  00:11:00     -404.450      -51.398      -24.086      188.430      153.111       72.585    35505.965    23443.084     5268.646       11.550        3.211      407.703       80.615        0.039      338.745       11.603      863.757
12/21/2014  00:12:00     -470.801      -23.408      -34.802      177.542      123.926       74.184    31521.170    15357.752     5503.291       13.789        2.619      471.383       87.566        0.035      338.733       11.582      863.791
12/21/2014  00:13:00     -460.181     -117.431      -29.694      184.584      158.973       75.291    34071.159    25272.410     5668.705       14.571        3.251      474.927       81.821        0.030      338.692       11.514      863.829
12/21/2014  00:14:00     -459.841      -56.530      -29.691      196.496      126.132       78.462    38610.627    15909.224     6156.289       13.809        3.034      463.303       91.914        0.039      338.729       11.575      863.864
12/21/2014  00:15:00     -382.175     -103.542       -0.756      182.966      124.625       78.333    33476.486    15531.296     6136.031       10.595        2.757      395.953       91.757        0.054      338.717       11.557      863.903
12/21/2014  00:16:00     -370.338     -152.543      -16.958      139.247      119.987       72.679    19389.858    14396.859     5282.188        9.988        1.953      400.524       69.044        0.030      338.736       11.588      863.934
12/21/2014  00:17:00     -481.318     -149.090      -14.793      148.952      156.789       86.698    22186.768    24582.787     7516.518       15.419        2.714      503.880       73.123        0.021      338.832       11.749      863.960
12/21/2014  00:18:00     -315.865      -23.276        9.194      154.711      113.120       61.336    23935.364    12796.197     3762.143        7.044        2.025      316.721       62.341        0.039      338.794       11.684      864.010
12/21/2014  00:19:00     -334.276      -71.717      -15.442      139.649      107.212       74.591    19501.838    11494.417     5563.853        7.683        1.828      341.882       66.830        0.038      338.714       11.550      864.020
12/21/2014  00:20:00     -339.109      -63.453      -16.546      140.365      113.409       68.474    19702.441    12861.648     4688.623        7.827        1.863      344.994       59.142        0.029      338.787       11.673      864.022
12/21/2014  00:21:00     -346.244      -73.569      -29.223      139.612      119.245       69.076    19491.398    14219.441     4771.479        8.231        1.924      353.973       62.858        0.032      338.794       11.685      864.025
12/21/2014  00:22:00     -396.631       22.061      -27.433      111.206      109.120       64.485    12366.850    11907.250     4158.312        9.349        1.422      397.244       53.934        0.018      338.940       11.930      863.993
12/21/2014  00:23:00     -250.190      -14.781       -9.757       99.427       81.531       47.030     9885.817     6647.249     2211.862        4.082        0.937      250.626       39.448        0.025      338.899       11.862      863.966
12/21/2014  00:24:00     -208.874        0.065        0.432      173.876       66.681       70.353    30232.704     4446.390     4949.541        4.162        1.981      208.874       98.475        0.222      338.775       11.653      863.929
12/21/2014  00:25:00     -363.380      -51.261      -16.346      222.047      144.914       70.866    49304.776    20999.974     5022.034       10.512        3.766      366.978       88.300        0.058      338.871       11.814      863.923
12/21/2014  00:26:00     -548.215      -67.694      -40.205      221.146      204.530      104.006    48905.769    41832.508    10817.188       20.413        5.078      552.379      106.558        0.037      339.016       12.056      863.865
12/21/2014  00:27:00     -389.764     -170.963       -0.693      146.017      106.479       70.424    21320.880    11337.826     4959.606       10.937        1.881      425.610       79.900        0.035      338.927       11.907      863.880
12/21/2014  00:28:00     -456.571      -99.397      -16.203      178.096      138.167       71.729    31718.317    19090.055     5145.012       13.727        2.798      467.265       82.188        0.031      338.949       11.946      863.902
12/21/2014  00:29:00     -246.181     -109.587       -5.489      143.881      125.738       74.207    20701.765    15810.041     5506.718        5.732        2.101      269.470       78.484        0.085      338.859       11.793      863.929
12/21/2014  00:30:00     -288.183      -70.482      -12.351      128.620      106.013       53.384    16543.101    11238.812     2849.885        5.939        1.532      296.676       47.050        0.025      338.918       11.894      863.921
12/21/2014  00:31:00     -370.602     -107.817       -7.088      109.108      101.395       58.348    11904.632    10280.945     3404.543        8.730        1.280      385.967       58.573        0.023      338.900       11.863      863.924
12/21/2014  00:32:00     -226.710      -74.836        4.043      107.783       95.356       53.489    11617.235     9092.810     2861.020        4.029        1.179      238.742       49.186        0.042      338.833       11.751      863.933
12/21/2014  00:33:00     -211.436      -30.844       -0.876      140.620      100.737       50.608    19773.975    10147.877     2561.137        3.906        1.624      213.674       52.791        0.061      338.865       11.805      863.930
12/21/2014  00:34:00     -473.787      -21.762      -47.238      145.852      135.091       70.377    21272.795    18249.494     4952.969       13.582        2.224      474.287       70.761        0.022      338.937       11.924      863.915
12/21/2014  00:35:00     -390.311      -63.551      -17.648      145.150      136.536       69.903    21068.640    18642.118     4886.422       10.064        2.230      395.451       64.815        0.027      338.899       11.860      863.865
12/21/2014  00:36:00     -456.657     -114.838      -27.088      134.299      181.352       63.679    18036.291    32888.725     4055.068       13.871        2.749      470.875       57.943        0.015      338.943       11.935      863.785
12/21/2014  00:37:00     -423.612     -139.186      -11.404      210.314      153.324       92.854    44231.972    23508.142     8621.850       13.764        3.818      445.892      105.440        0.056      338.868       11.810      863.784
12/21/2014  00:38:00     -559.535     -208.822      -18.956      212.198      157.663       90.663    45028.145    24857.738     8219.842       21.756        3.905      597.232      106.616        0.032      338.958       11.961      863.773
12/21/2014  00:39:00     -461.850     -134.805      -19.232      170.229      139.117       72.642    28978.060    19353.440     5276.856       14.272        2.680      481.121       82.429        0.029      338.933       11.919      863.787
12/21/2014  00:40:00     -535.662      -82.829      -26.847      224.384      170.330       86.165    50348.102    29012.400     7424.397       19.063        4.339      542.028       97.481        0.032      338.963       11.968      863.751
12/21/2014  00:41:00     -580.003     -138.894      -39.004      203.942      200.756       93.988    41592.470    40302.946     8833.791       22.395        4.536      596.402       90.954        0.023      338.925       11.905      863.752
12/21/2014  00:42:00     -501.998      -44.315      -24.790      215.288      183.360       91.483    46348.930    33620.741     8369.134       17.144        4.417      503.950       91.369        0.033      338.998       12.028      863.755
12/21/2014  00:43:00     -535.442     -125.151      -18.176      249.944      168.894       99.540    62471.824    28525.245     9908.244       20.178        5.045      549.873      119.350        0.047      338.917       11.892      863.753
12/21/2014  00:44:00     -369.356      -14.513      -24.474      227.083      109.557       77.379    51566.862    12002.717     5987.515       10.338        3.478      369.641       91.628        0.061      339.007       12.043      863.799
12/21/2014  00:45:00     -568.795     -148.027      -17.804      229.811      174.108      100.675    52812.979    30313.662    10135.510       21.949        4.663      587.741      121.895        0.043      338.956       11.958      863.788
12/21/2014  00:46:00     -283.910      -54.828       -4.798      204.787      174.696      104.054    41937.583    30518.792    10827.272        8.344        4.164      289.156      112.310        0.151      338.916       11.890      863.820
12/21/2014  00:47:00     -500.473      -89.586      -36.857      178.096      146.103       90.034    31718.270    21345.945     8106.092       16.050        3.059      508.428       98.800        0.038      338.887       11.840      863.858
12/21/2014  00:48:00     -550.797      -68.036      -36.506      193.892      175.046       86.586    37594.078    30641.224     7497.177       19.252        3.787      554.983       87.882        0.025      338.973       11.985      863.817
12/21/2014  00:49:00     -430.839      -90.953      -28.298      163.615      131.402       72.335    26769.977    17266.589     5232.305       12.197        2.463      440.335       74.551        0.029      338.970       11.980      863.777
12/21/2014  00:50:00     -434.751     -117.282      -27.422      164.848      147.749       74.751    27174.825    21829.692     5587.731       12.904        2.730      450.293       79.249        0.031      338.948       11.943      863.788
12/21/2014  00:51:00     -486.926     -147.454      -21.429      159.154      136.624       84.208    25329.963    18666.024     7090.939       15.518        2.554      508.763       78.193        0.024      339.032       12.086      863.799
12/21/2014  00:52:00     -430.696      -92.886      -14.872      157.279      142.385       81.464    24736.771    20273.450     6636.327       12.299        2.582      440.598       78.767        0.032      339.124       12.239      863.788
12/21/2014  00:53:00     -404.012      -94.885      -12.999      158.756      101.090       66.898    25203.338    10219.191     4475.381       10.614        1.995      415.005       72.764        0.031      339.036       12.093      863.828
12/21/2014  00:54:00     -323.839      -49.505      -16.869      129.685      109.257       66.034    16818.287    11937.192     4360.481        7.035        1.656      327.601       59.042        0.032      338.983       12.002      863.880
12/21/2014  00:55:00     -320.958      -75.312      -31.174      138.169      140.161       74.953    19090.611    19645.200     5617.991        7.700        2.218      329.675       60.252        0.033      338.927       11.909      863.852
12/21/2014  00:56:00     -464.303      -82.986      -17.517      259.169      233.498      113.381    67168.702    54521.214    12855.276       17.863        6.727      471.661      127.981        0.074      339.052       12.119      863.843
12/21/2014  00:57:00     -551.266      -60.579      -44.397      182.402      163.798       87.040    33270.522    26829.773     7576.025       18.859        3.384      554.584       92.038        0.028      339.123       12.237      863.890
12/21/2014  00:58:00     -324.018      -71.798      -30.660      183.681      120.720       99.460    33738.634    14573.293     9892.338        8.463        2.910      331.878      103.123        0.097      339.082       12.168      863.909
12/21/2014  00:59:00     -180.033      -13.785       -6.386      183.991      139.200       94.655    33852.704    19376.744     8959.477        4.740        3.109      180.560       96.201        0.284      339.092       12.187      863.973
12/21/2014  01:00:00     -437.486       -7.959      -65.527      171.546      170.650       84.556    29427.896    29121.322     7149.642       13.071        3.285      437.558       87.221        0.040      339.069       12.147      863.995
12/21/2014  01:01:00     -577.193       18.309      -46.535      222.319      149.956       86.421    49425.899    22486.767     7468.576       20.750        3.969      577.483       98.900        0.029      339.065       12.140      863.954
12/21/2014  01:02:00     -566.378     -186.931      -38.243      182.259      171.012       79.561    33218.173    29245.112     6330.015       21.298        3.440      596.429       77.186        0.017      339.026       12.075      863.916
12/21/2014  01:03:00     -324.646      -18.608      -25.862      167.670      165.103       67.815    28113.360    27258.874     4598.929        8.318        2.999      325.179       69.851        0.046      339.036       12.094      863.924
12/21/2014  01:04:00     -505.017     -105.434      -22.204      194.435      134.626       87.419    37805.020    18124.162     7642.150       16.510        3.179      515.905       90.336        0.031      339.060       12.132      863.910
12/21/2014  01:05:00     -372.808      -90.572      -21.427      145.196      159.029       82.884    21082.008    25290.203     6869.737       10.043        2.662      383.653       62.048        0.026      339.066       12.143      863.853
12/21/2014  01:06:00     -432.869      -84.955      -50.628      150.645      132.122       79.507    22693.919    17456.178     6321.428       12.180        2.324      441.127       73.808        0.028      339.081       12.167      863.818
12/21/2014  01:07:00     -535.246      -68.089      -22.183      144.376      125.305       67.758    20844.453    15701.279     4591.144       16.637        2.057      539.559       69.131        0.016      339.024       12.071      863.843
12/21/2014  01:08:00     -492.455     -158.453      -38.489      156.028      112.635       65.778    24344.633    12686.576     4326.745       15.522        2.068      517.320       54.452        0.011      338.949       11.945      863.850
12/21/2014  01:09:00     -456.724      -79.781      -31.308      138.340      126.015       62.982    19138.013    15879.860     3966.773       12.746        1.949      463.640       64.342        0.019      338.910       11.880      863.848
12/21/2014  01:10:00     -450.112      -71.181      -33.811      239.110      125.132       87.613    57173.713    15657.990     7676.082       14.464        4.025      455.705       77.675        0.029      339.010       12.048      863.855
12/21/2014  01:11:00     -308.905      -88.676      -14.589      139.439      122.813       54.371    19443.174    15083.091     2956.188        7.048        1.874      321.380       55.010        0.029      338.982       11.999      863.833
12/21/2014  01:12:00     -259.988      -98.921      -14.081      138.216      111.076       65.290    19103.755    12337.951     4262.849        5.663        1.785      278.171       67.338        0.059      338.951       11.950      863.845
12/21/2014  01:13:00     -399.866      -95.981      -17.643      122.030      109.061       69.165    14891.205    11894.233     4783.857       10.049        1.578      411.224       57.814        0.020      338.939       11.929      863.875
12/21/2014  01:14:00     -399.766      -24.062      -30.008      163.230      164.271       73.052    26643.908    26984.900     5336.585       11.012        2.948      400.490       83.300        0.043      338.991       12.016      863.903
12/21/2014  01:15:00     -254.601     -106.646      -10.309      146.118      111.464       75.427    21350.463    12424.218     5689.211        5.787        1.973      276.034       68.524        0.062      338.914       11.885      863.908
12/21/2014  01:16:00     -255.040      -41.848      -11.389      130.573      135.727       71.612    17049.314    18421.825     5128.239        5.375        2.030      258.450       74.128        0.082      338.942       11.933      863.951
12/21/2014  01:17:00     -300.421      -69.761       -5.596      158.398      127.327       81.253    25089.873    16212.160     6602.052        7.152        2.395      308.414       83.218        0.073      338.980       11.998      863.945
12/21/2014  01:18:00     -406.962      -60.677      -33.254      197.191      134.989       76.693    38884.274    18222.120     5881.875       11.668        3.149      411.460       95.655        0.054      339.004       12.038      863.967
12/21/2014  01:19:00     -229.621     -112.912      -26.990      102.843       78.128       62.649    10576.685     6103.943     3924.840        4.340        1.030      255.881       37.916        0.022      338.931       11.913      864.006
12/21/2014  01:20:00     -237.647      -69.636      -10.989       91.975       84.738       43.995     8459.419     7180.587     1935.581        3.951        0.879      247.640       37.630        0.023      338.880       11.829      864.065
12/21/2014  01:21:00     -274.139      -30.878      -20.530      125.590      100.393       53.139    15772.847    10078.731     2823.720        5.260        1.434      275.873       51.760        0.035      338.914       11.886      864.114
12/21/2014  01:22:00     -377.335      -25.692      -19.559      130.357      125.088       73.408    16992.881    15647.075     5388.676        9.072        1.901      378.209       70.436        0.035      339.037       12.092      864.114
12/21/2014  01:23:00     -249.825       14.631      -11.654      131.201      123.828       63.002    17213.589    15333.419     3969.248        4.963        1.826      250.253       65.074        0.068      338.968       11.976      864.104
12/21/2014  01:24:00     -289.596      -65.123      -24.513      109.197      105.353       66.534    11923.961    11099.304     4426.790        5.807        1.373      296.828       61.959        0.044      338.947       11.942      864.090
12/21/2014  01:25:00     -213.261      -58.437       -3.210      119.144      132.421       63.799    14195.387    17535.319     4070.293        4.235        1.790      221.123       53.637        0.059      338.950       11.948      864.069
12/21/2014  01:26:00     -272.727      -91.955       -5.924      138.500       88.278       59.876    19182.270     7793.089     3585.090        5.671        1.528      287.812       59.427        0.043      338.998       12.027      864.077
12/21/2014  01:27:00     -352.409     -110.882      -13.421      140.974      112.393       63.143    19873.597    12632.093     3986.991        8.657        1.825      369.442       65.492        0.031      339.020       12.064      864.096
12/21/2014  01:28:00     -228.237      -54.614      -25.457       89.646       72.802       46.871     8036.478     5300.070     2196.927        3.563        0.777      234.680       50.654        0.047      338.985       12.007      864.099
12/21/2014  01:29:00     -294.925     -102.853       -3.694      153.902       78.511       60.149    23685.755     6163.992     3617.922        6.551        1.673      312.346       62.879        0.041      339.001       12.033      864.102
12/21/2014  01:30:00     -255.544        9.375      -25.802      108.249       88.623       53.885    11717.831     7853.989     2903.646        4.426        1.124      255.715       60.104        0.055      339.126       12.242      864.120
12/21/2014  01:31:00     -232.844      -44.677      -17.178       98.375       65.636       52.832     9677.712     4308.145     2791.204        3.664        0.839      237.092       54.647        0.053      339.064       12.141      864.116
12/21/2014  01:32:00     -336.848      -56.625      -32.511       96.298      105.920       58.549     9273.384    11219.009     3427.993        7.082        1.196      341.574       40.243        0.014      339.086       12.175      864.125
12/21/2014  01:33:00     -191.298      -19.567       -4.042      113.187       59.648       60.821    12811.356     3557.922     3699.170        2.853        1.003      192.296       60.131        0.098      338.969       11.978      864.116
12/21/2014  01:34:00     -214.302      -29.246       -0.408      109.851       88.986       64.540    12067.170     7918.514     4165.426        3.546        1.208      216.289       62.154        0.083      339.043       12.104      864.107
12/21/2014  01:35:00     -172.436       58.427      -12.698       91.082       58.593       48.996     8295.890     3433.118     2400.622        2.372        0.706      182.066       46.073        0.064      339.276       12.497      864.165
12/21/2014  01:36:00     -156.162       39.469      -22.162       70.941      100.387       50.270     5032.689    10077.608     2527.108        2.203        0.882      161.073       32.881        0.042      339.149       12.282      864.190
12/21/2014  01:37:00     -109.309       -2.990        3.416       86.203       95.481       45.903     7430.911     9116.618     2107.070        1.531        0.933      109.350       47.043        0.185      339.200       12.369      864.215
12/21/2014  01:38:00     -128.391       54.102      -13.341       85.989       90.012       36.987     7394.181     8102.149     1368.009        1.822        0.843      139.324       37.956        0.074      339.252       12.455      864.238
12/21/2014  01:39:00     -223.449      -62.753      -21.813       85.846       82.264       52.639     7369.459     6767.435     2770.905        3.562        0.845      232.094       43.472        0.035      339.093       12.187      864.242
12/21/2014  01:40:00     -181.822      -77.495      -21.192      132.294       78.133       59.514    17501.681     6104.775     3541.948        3.333        1.357      197.648       55.332        0.078      339.024       12.071      864.267
12/21/2014  01:41:00     -206.723      -34.811      -12.615       72.881       73.364       43.299     5311.685     5382.328     1874.780        2.833        0.628      209.634       44.086        0.044      339.076       12.159      864.289
12/21/2014  01:42:00     -192.410       80.517      -26.936       99.403      169.173       61.625     9880.919    28619.464     3797.595        4.326        2.115      208.578       56.443        0.073      339.186       12.345      864.321
12/21/2014  01:43:00     -283.783        3.750      -41.692      167.663      156.265       68.843    28111.043    24418.802     4739.335        6.977        2.863      283.807       88.842        0.098      339.172       12.320      864.340
12/21/2014  01:44:00     -244.417      -74.081      -17.343      100.184      106.605       54.074    10036.745    11364.666     2923.957        4.492        1.216      255.397       51.606        0.041      339.129       12.246      864.302
12/21/2014  01:45:00     -289.715      -80.090      -36.599      111.435      103.852       55.706    12417.762    10785.159     3103.146        5.899        1.315      300.582       47.336        0.025      339.080       12.165      864.241
12/21/2014  01:46:00     -198.561       -4.841       -8.831      142.599       87.125       56.220    20334.350     7590.680     3160.739        3.530        1.554      198.620       75.275        0.144      339.165       12.309      864.219
12/21/2014  01:47:00      -46.299        8.936       11.572      102.139       66.025       44.743    10432.283     4359.344     2001.932        0.957        0.840       47.153       43.885        0.866      339.161       12.304      864.185
12/21/2014  01:48:00     -159.040      -13.854      -15.430       82.552       99.864       41.602     6814.875     9972.799     1730.760        2.212        0.926      159.642       33.670        0.044      339.241       12.438      864.185
12/21/2014  01:49:00     -154.092       -5.752       -1.479       83.553       74.051       42.563     6981.040     5483.552     1811.577        1.903        0.714      154.200       42.264        0.075      339.191       12.354      864.162
12/21/2014  01:50:00     -146.543      -20.723      -12.703       88.337       63.869       43.431     7803.432     4079.300     1886.275        1.791        0.688      148.001       39.784        0.072      339.178       12.332      864.138
12/21/2014  01:51:00      -64.861        0.515       -4.870       51.669       52.900       26.197     2669.728     2798.406      686.261        0.519        0.308       64.863       17.704        0.074      339.201       12.374      864.110
12/21/2014  01:52:00     -127.831       41.811      -15.791      108.634       73.368       38.548    11801.402     5382.829     1485.934        1.850        0.934      134.495       57.108        0.180      339.261       12.472      864.098
12/21/2014  01:53:00     -260.162       16.520      -32.278       81.316       53.956       43.973     6612.290     2911.222     1933.641        4.023        0.573      260.686       39.953        0.023      339.384       12.678      864.090
12/21/2014  01:54:00     -218.487      -16.364      -26.935       64.437       52.808       31.960     4152.090     2788.705     1021.426        2.834        0.398      219.099       27.691        0.016      339.232       12.421      864.074
12/21/2014  01:55:00     -254.390      -45.722      -16.263       68.955       68.192       38.459     4754.774     4650.101     1479.084        3.897        0.544      258.467       34.363        0.018      339.126       12.241      864.087
12/21/2014  01:56:00     -171.312      -65.022       -3.153      100.725       65.717       41.307    10145.625     4318.702     1706.236        2.487        0.809      183.236       40.056        0.048      339.034       12.088      864.088
12/21/2014  01:57:00     -239.831      -81.680       -2.895      100.144       82.698       47.376    10028.758     6838.986     2244.469        4.165        0.956      253.359       54.245        0.046      339.081       12.166      864.075
12/21/2014  01:58:00     -178.088      -70.767      -24.842       69.524       60.216       33.301     4833.550     3625.909     1108.984        2.345        0.478      191.633       21.798        0.013      339.108       12.213      864.057
12/21/2014  01:59:00     -299.975      -41.781      -22.111       92.219       67.830       51.115     8504.434     4600.855     2612.696        5.397        0.786      302.871       51.218        0.029      339.074       12.156      864.074
12/21/2014  02:00:00     -273.215      -30.233      -20.739       74.632       71.735       45.958     5569.890     5145.964     2112.153        4.441        0.641      274.882       44.129        0.026      339.139       12.265      864.072
12/21/2014  02:01:00     -389.755      -79.809      -47.960       99.169       88.086       51.417     9834.567     7759.195     2643.698        9.040        1.012      397.842       50.973        0.016      339.182       12.336      864.099
12/21/2014  02:02:00     -207.309      -90.927       -5.736      116.094       63.479       47.924    13477.866     4029.539     2296.723        3.554        0.990      226.373       52.610        0.054      339.041       12.101      864.107
12/21/2014  02:03:00     -292.722      -50.336      -36.427       99.140       66.249       49.198     9828.738     4388.912     2420.451        5.309        0.832      297.018       50.547        0.029      339.130       12.249      864.093
12/21/2014  02:04:00     -410.819      -88.011      -41.966      113.158      112.689       68.924    12804.681    12698.886     4750.505       10.426        1.513      420.141       60.372        0.021      339.153       12.289      864.131
12/21/2014  02:05:00     -334.216     -120.837      -29.476       90.701       77.096       51.068     8226.591     5943.800     2607.944        7.197        0.839      355.390       49.621        0.019      339.134       12.257      864.156
12/21/2014  02:06:00     -275.936      -40.510      -15.812      129.387       85.541       54.421    16740.902     7317.344     2961.666        5.252        1.351      278.893       59.632        0.046      339.171       12.319      864.186
12/21/2014  02:07:00     -370.167      -38.074      -22.239      104.317       76.617       54.504    10882.120     5870.179     2970.704        7.934        0.986      372.120       55.419        0.022      339.181       12.335      864.187
12/21/2014  02:08:00     -310.106      -34.681      -21.624       92.740      111.773       58.515     8600.713    12493.229     3423.991        6.117        1.226      312.039       35.906        0.013      339.333       12.591      864.180
12/21/2014  02:09:00     -333.624     -119.635       -2.990      127.716      108.664       62.236    16311.255    11807.766     3873.357        7.880        1.600      354.425       61.771        0.030      339.137       12.260      864.198
12/21/2014  02:10:00     -373.955     -101.162      -18.684      171.876       99.666       55.779    29541.457     9933.341     3111.327        9.650        2.129      387.397       63.057        0.026      339.215       12.392      864.191
12/21/2014  02:11:00     -252.292      -57.184      -19.418       66.432       81.227       46.225     4413.182     6597.899     2136.745        4.022        0.657      258.691       40.057        0.024      339.147       12.275      864.202
12/21/2014  02:12:00     -143.558      -24.152       -7.762       65.695       56.733       36.763     4315.813     3218.620     1351.526        1.507        0.444      145.575       36.789        0.064      339.181       12.338      864.170
12/21/2014  02:13:00     -144.558       38.439       -1.183      118.820       53.671       37.657    14118.076     2880.537     1418.050        2.039        0.921      149.581       50.763        0.115      339.252       12.457      864.177
12/21/2014  02:14:00     -272.747      -80.017      -27.458       67.153       75.688       46.770     4509.470     5728.670     2187.424        4.698        0.621      284.242       41.438        0.021      339.144       12.272      864.206
12/21/2014  02:15:00     -252.747      -20.087      -23.116       68.572       68.950       43.834     4702.158     4754.165     1921.409        3.810        0.569      253.544       38.791        0.023      339.247       12.445      864.208
12/21/2014  02:16:00     -301.655      -85.152      -15.802      112.239       90.053       50.476    12597.488     8109.547     2547.807        6.087        1.163      313.443       55.778        0.032      339.203       12.372      864.235
12/21/2014  02:17:00     -309.566       39.675      -33.133      114.456      103.921       46.282    13100.105    10799.530     2142.045        6.227        1.302      312.098       41.114        0.017      339.400       12.704      864.242
12/21/2014  02:18:00     -211.308      -94.730       -1.100       89.968       77.706       56.415     8094.182     6038.175     3182.668        3.547        0.866      231.570       40.556        0.031      339.232       12.423      864.236
12/21/2014  02:19:00     -158.539      -78.433        7.524      115.595       81.367       55.076    13362.307     6620.602     3033.383        2.717        1.151      176.880       55.425        0.098      339.253       12.458      864.254
12/21/2014  02:20:00     -140.425     -122.717        7.222      119.438      160.251       60.222    14265.375    25680.348     3626.688        3.919        2.179      186.491       78.477        0.177      339.291       12.522      864.272
12/21/2014  02:21:00     -278.265      -21.873      -24.391      109.207       83.634       53.330    11926.130     6994.667     2844.094        5.013        1.088      279.123       53.550        0.037      339.416       12.732      864.328
12/21/2014  02:22:00     -298.368      -67.786      -21.218      148.367      112.822       61.909    22012.905    12728.813     3832.694        6.631        1.929      305.971       59.012        0.037      339.343       12.609      864.312
12/21/2014  02:23:00     -188.588      -67.774      -17.117      109.761       60.829       33.124    12047.397     3700.227     1097.168        2.864        0.842      200.396       35.729        0.032      339.284       12.508      864.258
12/21/2014  02:24:00     -171.791      -58.859       -2.015       65.341       55.439       28.839     4269.490     3073.517      831.669        2.058        0.409      181.594       25.943        0.020      339.292       12.524      864.229
12/21/2014  02:25:00     -304.190      -65.426      -16.503      129.402       63.236       47.596    16744.790     3998.846     2265.357        6.004        1.150      311.147       57.176        0.034      339.284       12.509      864.249
12/21/2014  02:26:00     -238.840      -93.861        3.436      131.860      113.956       68.352    17387.145    12986.029     4671.958        5.045        1.752      256.621       57.727        0.051      339.454       12.795      864.213
12/21/2014  02:27:00     -190.761      -88.329       -5.302      112.027       88.545       45.072    12549.938     7840.277     2031.468        3.332        1.121      210.218       49.765        0.056      339.390       12.688      864.204
12/21/2014  02:28:00     -152.819        6.115      -12.311      115.149       94.002       43.949    13259.215     8836.338     1931.497        2.378        1.201      152.941       58.971        0.149      339.424       12.746      864.206
12/21/2014  02:29:00     -387.428      -57.965      -40.908       90.408      144.176       58.489     8173.660    20786.657     3421.002        9.375        1.619      391.740       43.384        0.012      339.502       12.875      864.197
12/21/2014  02:30:00      -39.707      -45.790        8.300      121.079       66.117       50.705    14660.109     4371.446     2571.001        1.267        1.080       60.608       57.972        0.915      339.454       12.796      864.170
12/21/2014  02:31:00     -244.249      -72.833      -13.426       53.994       46.513       33.651     2915.316     2163.494     1132.367        3.568        0.311      254.877       21.894        0.007      339.488       12.850      864.217
12/21/2014  02:32:00     -189.360      -12.220       -4.574       67.839       54.578       35.858     4602.127     2978.745     1285.768        2.245        0.443      189.754       34.954        0.034      339.518       12.904      864.271
12/21/2014  02:33:00     -200.302       11.456      -24.350       41.560       37.735       27.531     1727.201     1423.948      757.960        2.238        0.195      200.630       17.607        0.008      339.548       12.954      864.312
12/21/2014  02:34:00     -110.073      -22.701       -9.430       64.426       42.216       26.065     4150.686     1782.166      679.392        0.966        0.331      112.390       32.005        0.081      339.457       12.804      864.337
12/21/2014  02:35:00      -58.543      -11.697       -6.559       25.070       40.774       18.007      628.513     1662.505      324.241        0.311        0.131       59.700       15.385        0.066      339.492       12.863      864.355
12/21/2014  02:36:00      -69.876       46.190      -18.260       29.785       24.778       18.440      887.138      613.963      340.023        0.460        0.092       83.763       13.169        0.025      339.600       13.043      864.377
12/21/2014  02:37:00       -2.638      109.067       -1.478       31.166       62.176       29.711      971.317     3865.817      882.754        0.881        0.286      109.099       33.363        0.094      339.499       12.873      864.363
12/21/2014  02:38:00      -13.084       54.745       -3.132       43.280       44.623       27.079     1873.122     1991.215      733.277        0.389        0.230       56.287       24.119        0.184      339.539       12.942      864.328
12/21/2014  02:39:00      -55.468      122.709      -10.819       38.270       66.224       30.456     1464.597     4385.570      927.546        1.251        0.339      134.663       32.808        0.059      339.573       12.999      864.277
12/21/2014  02:40:00     -107.364       35.156      -17.096       41.052       49.286       21.773     1685.275     2429.089      474.052        0.882        0.229      112.973       18.207        0.026      339.583       13.016      864.264
12/21/2014  02:41:00     -161.008      -74.382       -8.722       52.987       53.567       28.593     2807.654     2869.409      817.565        1.901        0.325      177.359       20.063        0.013      339.408       12.720      864.248
12/21/2014  02:42:00     -147.580      -64.969      -23.203       67.748       58.450       41.686     4589.830     3416.425     1737.722        1.814        0.487      161.248       27.039        0.028      339.390       12.691      864.255
12/21/2014  02:43:00     -128.982       37.893       -8.802       77.393      130.537       43.092     5989.726    17039.911     1856.878        2.151        1.244      134.433       38.043        0.080      339.472       12.827      864.254
12/21/2014  02:44:00      -29.786       38.504       17.873       59.450       60.468       37.965     3534.281     3656.343     1441.307        0.566        0.432       48.681       35.127        0.521      339.448       12.788      864.222
12/21/2014  02:45:00     -103.299       35.968       -6.430       91.152       50.161       34.500     8308.678     2516.113     1190.224        1.201        0.601      109.382       42.980        0.154      339.669       13.161      864.243
12/21/2014  02:46:00     -153.872        2.444      -18.645       62.688       56.785       28.379     3929.821     3224.587      805.382        1.599        0.398      153.892       29.748        0.037      339.649       13.125      864.254
12/21/2014  02:47:00     -203.106      -75.976      -18.362      102.326       66.310       43.936    10470.662     4397.076     1930.348        3.208        0.840      216.851       41.237        0.036      339.421       12.740      864.217
12/21/2014  02:48:00     -218.095      -16.600      -18.453       98.273       75.524       47.987     9657.679     5703.849     2302.781        3.292        0.883      218.726       47.325        0.047      339.636       13.103      864.134
12/21/2014  02:49:00      -82.572      -75.419       30.826      101.219       80.401       50.720    10245.252     6464.355     2572.547        1.637        0.964      111.831       41.536        0.138      339.447       12.785      864.094
12/21/2014  02:50:00      -99.419      -76.895       -7.519       75.869       51.113       39.149     5756.083     2612.560     1532.674        1.288        0.495      125.686       38.547        0.094      339.402       12.712      864.095
12/21/2014  02:51:00      -61.901      -47.241       -4.598       73.062       52.987       27.529     5337.999     2807.574      757.824        0.749        0.445       77.868       19.620        0.063      339.435       12.766      864.114
12/21/2014  02:52:00     -233.794      -62.505      -16.741       99.344       60.550       34.843     9869.269     3666.360     1214.003        3.680        0.737      242.005       42.588        0.031      339.478       12.837      864.104
12/21/2014  02:53:00     -243.182       -9.030      -18.634      105.675       79.859       47.060    11167.298     6377.469     2214.624        3.966        0.988      243.350       49.645        0.042      339.595       13.033      864.117
12/21/2014  02:54:00     -216.904      -78.043       -5.932      114.349       83.758       54.644    13075.621     7015.360     2986.020        3.812        1.154      230.517       51.393        0.050      339.418       12.734      864.116
12/21/2014  02:55:00     -214.785       14.886      -10.212      103.439       71.014       52.039    10699.565     5042.943     2708.087        3.245        0.923      215.300       53.480        0.062      339.743       13.282      864.106
12/21/2014  02:56:00     -157.678        9.145      -10.674      137.306       54.056       40.742    18852.951     2922.041     1659.897        2.424        1.172      157.943       58.875        0.139      339.700       13.211      864.094
12/21/2014  02:57:00      -33.535       74.700      -11.725       50.772       26.777       22.071     2577.772      717.033      487.136        0.531        0.189       81.882       24.199        0.087      339.580       13.011      864.078
12/21/2014  02:58:00      -53.649       10.328        1.923       63.244       39.523       21.505     3999.797     1562.091      462.476        0.451        0.301       54.634       18.532        0.115      339.706       13.222      864.046
12/21/2014  02:59:00     -136.596        2.743      -28.203       55.066       31.889       27.136     3032.266     1016.902      736.348        1.212        0.239      136.624       16.729        0.015      339.824       13.422      864.024
12/21/2014  03:00:00      -66.175       61.283       -8.358       37.146       40.022       27.609     1379.830     1601.786      762.262        0.597        0.187       90.193       26.406        0.086      339.564       12.983      863.996
12/21/2014  03:01:00      -82.779      -51.822       -8.622       74.005       63.494       34.683     5476.723     4031.476     1202.937        1.016        0.536       97.662       43.055        0.194      339.427       12.752      864.055
12/21/2014  03:02:00     -118.930      -71.398       -4.844       82.746       55.423       36.519     6846.874     3071.698     1333.604        1.526        0.563      138.716       39.839        0.082      339.371       12.658      864.084
12/21/2014  03:03:00     -165.386      -59.383        3.804      125.662       73.909       51.440    15791.015     5462.539     2646.122        2.739        1.195      175.723       52.588        0.090      339.390       12.687      864.157
12/21/2014  03:04:00     -199.601      -27.562       -9.905       69.600       46.718       37.737     4844.172     2182.594     1424.058        2.457        0.423      201.495       31.622        0.025      339.474       12.830      864.180
12/21/2014  03:05:00        3.380      -59.880        7.828       57.192       34.324       29.094     3270.931     1178.159      846.447        0.448        0.265       59.975       32.450        0.293      339.397       12.702      864.119
12/21/2014  03:06:00        9.661      -17.992       17.133       28.849       50.044       28.405      832.264     2504.386      806.865        0.243        0.207       20.421       12.677        0.385      339.405       12.716      864.078
12/21/2014  03:07:00      -55.280       -9.824       -0.700       39.640       30.828       18.216     1571.344      950.369      331.818        0.300        0.143       56.146       19.436        0.120      339.577       13.006      864.062
12/21/2014  03:08:00     -164.959      -48.421      -10.733       60.006       41.299       16.211     3600.772     1705.585      262.782        1.762        0.278      171.919        6.439        0.001      339.397       12.701      864.046
12/21/2014  03:09:00     -150.022      -89.722       -8.715       73.373       53.229       33.472     5383.530     2833.365     1120.353        1.998        0.467      174.805       33.354        0.036      339.313       12.559      864.054
12/21/2014  03:10:00     -223.862      -75.394      -21.906       98.486       75.717       36.835     9699.482     5733.065     1356.809        3.653        0.839      236.217       30.926        0.017      339.463       12.810      864.083
12/21/2014  03:11:00     -281.748      -44.124       -8.452      113.156       77.865       48.457    12804.241     6062.982     2348.123        5.130        1.061      285.182       52.772        0.034      339.423       12.742      864.090
12/21/2014  03:12:00     -276.969     -173.283       -3.739      138.648      140.880       56.596    19223.168    19847.044     3203.104        7.450        2.114      326.710       55.815        0.029      339.340       12.602      864.075
12/21/2014  03:13:00     -229.668     -166.102       -3.641      173.036      144.677       86.714    29941.380    20931.414     7519.363        6.936        2.920      283.438       98.762        0.121      339.387       12.681      864.019
12/21/2014  03:14:00     -276.292     -250.214      -17.934      129.691      117.650       69.054    16819.775    13841.524     4768.491        8.734        1.771      372.752       66.944        0.032      339.421       12.740      863.947
12/21/2014  03:15:00     -307.372     -227.751       -6.111      159.481      131.649       82.309    25434.303    17331.564     6774.742        9.795        2.477      382.554       86.308        0.051      339.430       12.753      863.893
12/21/2014  03:16:00     -274.934     -157.240       -4.010      139.684       89.157       68.614    19511.626     7948.932     4707.844        6.624        1.608      316.722       62.332        0.039      339.391       12.690      863.910
12/21/2014  03:17:00     -176.258     -124.711       11.274      153.851      111.346       71.613    23669.978    12397.952     5128.451        4.396        2.060      215.916       84.300        0.152      339.356       12.631      863.945
12/21/2014  03:18:00     -224.532     -163.127        1.520      153.088      114.315       64.237    23436.029    13068.000     4126.360        5.882        2.032      277.534       72.964        0.069      339.356       12.630      863.930
12/21/2014  03:19:00     -226.475     -118.767        0.621      121.997      100.816       47.619    14883.364    10163.775     2267.578        4.635        1.366      255.727       51.687        0.041      339.417       12.733      863.910
12/21/2014  03:20:00     -231.367       17.482      -12.051       89.838       75.306       49.050     8070.923     5670.973     2405.885        3.506        0.807      232.027       46.940        0.041      339.738       13.274      863.894
12/21/2014  03:21:00     -189.491      -41.871      -10.522       63.113       53.174       37.526     3983.221     2827.485     1408.228        2.299        0.411      194.062       33.166        0.029      339.534       12.932      863.890
12/21/2014  03:22:00     -188.879      -69.335       -5.765      103.405       63.713       45.105    10692.664     4059.288     2034.486        2.865        0.839      201.203       45.191        0.050      339.395       12.696      863.921
12/21/2014  03:23:00     -116.052      -83.374        6.577       87.750       68.404       40.428     7700.018     4679.101     1634.415        1.724        0.701      142.896       42.976        0.090      339.359       12.638      863.937
12/21/2014  03:24:00     -219.703     -121.206      -10.343      118.857       81.559       47.860    14127.088     6651.881     2290.548        4.306        1.153      250.919       50.126        0.040      339.355       12.628      863.929
12/21/2014  03:25:00     -231.238     -139.632       -1.387       78.121       79.372       43.961     6102.879     6299.904     1932.601        4.365        0.717      270.127       43.956        0.026      339.346       12.611      863.930
12/21/2014  03:26:00     -161.298      -88.294       -5.402       60.951       58.895       36.689     3715.061     3468.584     1346.081        2.118        0.426      183.883       19.791        0.012      339.332       12.589      863.909
12/21/2014  03:27:00     -167.730      -83.136       -5.001       93.411       72.100       53.162     8725.650     5198.436     2826.172        2.591        0.838      187.203       56.126        0.090      339.318       12.566      863.882
12/21/2014  03:28:00     -134.600     -110.145       -4.128      113.086       99.292       56.346    12788.475     9858.809     3174.837        2.804        1.291      173.922       47.667        0.075      339.437       12.767      863.865
12/21/2014  03:29:00     -256.482      -91.389       -7.396      134.146      113.517       64.671    17995.071    12886.011     4182.327        5.462        1.753      272.277       60.974        0.050      339.556       12.967      863.901
12/21/2014  03:30:00      -94.529      -83.542        6.843      101.360       98.506       58.645    10273.946     9703.502     3439.229        1.968        1.171      126.154       53.656        0.181      339.621       13.078      863.944
12/21/2014  03:31:00     -191.397      -46.349       -5.793      106.695      102.908       53.633    11383.739    10590.043     2876.515        3.183        1.243      196.929       59.448        0.091      339.651       13.128      863.931
12/21/2014  03:32:00     -236.777     -117.097       -9.694       89.483      105.111       51.929     8007.161    11048.317     2696.616        4.581        1.088      264.150       48.974        0.034      339.595       13.034      863.928
12/21/2014  03:33:00     -203.427     -144.898        4.465      129.873      102.086       71.092    16866.873    10421.609     5054.038        4.736        1.617      249.756       78.931        0.100      339.484       12.845      863.938
12/21/2014  03:34:00     -320.421     -167.438      -10.044      137.850      117.871       66.248    19002.705    13893.580     4388.751        8.404        1.864      361.532       71.418        0.039      339.539       12.939      863.952
12/21/2014  03:35:00     -194.398     -134.048       -3.732      129.707      113.072       78.170    16823.994    12785.188     6110.611        4.574        1.786      236.134       85.961        0.133      339.510       12.890      863.961
12/21/2014  03:36:00     -264.972     -106.461       -7.595      110.518       88.532       49.965    12214.303     7837.900     2496.456        5.207        1.127      285.559       53.049        0.035      339.478       12.835      863.960
12/21/2014  03:37:00     -160.458      -85.979      -10.391       85.694       69.441       45.501     7343.424     4822.074     2070.367        2.374        0.712      182.042       43.941        0.058      339.428       12.752      863.952
12/21/2014  03:38:00     -126.677      -98.371        3.706       72.114       66.804       35.949     5200.479     4462.799     1292.365        1.834        0.548      160.387       32.549        0.041      339.412       12.726      863.925
12/21/2014  03:39:00     -183.422     -106.083       -2.547      135.067       93.080       52.751    18243.134     8663.935     2782.626        3.729        1.484      211.890       65.815        0.096      339.432       12.760      863.878
12/21/2014  03:40:00     -179.638      -88.173      -14.758      132.385      128.600       57.946    17525.758    16537.930     3357.744        3.883        1.871      200.110       67.800        0.115      339.661       13.147      863.864
12/21/2014  03:41:00     -271.641     -117.988        0.232      110.335      106.547       53.228    12173.865    11352.213     2833.239        5.703        1.318      296.158       44.238        0.022      339.624       13.081      863.880
12/21/2014  03:42:00     -181.196      -41.128       -4.381      120.101       66.987       46.139    14424.348     4487.207     2128.814        2.779        1.052      185.805       51.761        0.078      339.581       13.010      863.887
12/21/2014  03:43:00     -319.337     -155.303       -8.721      154.359      101.653       54.899    23826.843    10333.397     3013.872        8.167        1.859      355.098       65.130        0.034      339.564       12.981      863.846
12/21/2014  03:44:00     -471.616      -46.507      -42.370      169.634      144.859       83.578    28775.671    20984.185     6985.220       14.155        2.837      473.903       78.702        0.028      339.702       13.212      863.820
12/21/2014  03:45:00     -367.230     -132.363       -0.628      192.972      127.535       90.996    37238.059    16265.077     8280.200       10.707        3.089      390.356      102.955        0.070      339.581       13.008      863.759
12/21/2014  03:46:00     -329.258     -124.053        2.062      171.389      150.457       75.630    29374.032    22637.253     5719.941        9.076        2.887      351.853       84.377        0.058      339.559       12.972      863.763
12/21/2014  03:47:00     -328.996     -214.827      -19.183      137.788      116.596       71.898    18985.533    13594.685     5169.302        9.625        1.887      392.923       62.567        0.025      339.571       12.992      863.742
12/21/2014  03:48:00     -230.972      -68.372      -17.899      147.462      103.554       74.670    21745.044    10723.357     5575.585        4.819        1.902      240.879       74.963        0.097      339.569       12.990      863.679
12/21/2014  03:49:00     -362.536      -65.286      -22.586      178.744      106.308       61.574    31949.580    11301.288     3791.350        9.161        2.352      368.368       74.114        0.040      339.665       13.151      863.713
12/21/2014  03:50:00     -309.401     -125.033        2.425      159.019      131.964       77.292    25287.102    17414.590     5973.985        8.001        2.434      333.709       87.397        0.069      339.681       13.177      863.719
12/21/2014  03:51:00     -226.789      -40.404       -2.277      122.014       95.002       62.808    14887.465     9025.356     3944.850        4.046        1.393      230.360       63.556        0.076      339.633       13.098      863.755
12/21/2014  03:52:00     -463.633      -21.049      -40.917      189.089      131.447       70.305    35754.600    17278.351     4942.728       13.751        2.899      464.111       82.920        0.032      339.728       13.255      863.797
12/21/2014  03:53:00     -456.346     -112.335      -31.131      132.253      104.334       67.019    17490.974    10885.552     4491.511       12.735        1.643      469.969       68.952        0.022      339.668       13.155      863.797
12/21/2014  03:54:00     -376.743      -51.924      -19.974      161.053      141.222       76.328    25937.943    19943.732     5825.951        9.836        2.585      380.305       85.204        0.050      339.712       13.230      863.800
12/21/2014  03:55:00     -254.055     -114.052       -2.563      128.771      110.058       58.555    16581.998    12112.849     3428.633        5.483        1.606      278.481       56.397        0.041      339.664       13.149      863.766
12/21/2014  03:56:00     -211.087       34.191      -14.652      101.993       80.888       44.268    10402.571     6542.870     1959.664        3.242        0.945      213.839       49.757        0.054      339.838       13.443      863.769
12/21/2014  03:57:00     -203.731      -33.156       -1.421      117.503       89.138       66.458    13807.053     7945.514     4416.656        3.438        1.308      206.412       66.540        0.104      339.601       13.045      863.751
12/21/2014  03:58:00     -229.460      -45.438       -2.310       83.876       88.504       49.188     7035.104     7833.039     2419.413        3.600        0.864      233.916       38.566        0.027      339.574       12.997      863.745
12/21/2014  03:59:00     -261.251      -38.635      -37.786       99.379       72.461       37.677     9876.137     5250.612     1419.519        4.386        0.827      264.093       30.205        0.013      339.663       13.148      863.749
12/21/2014  04:00:00     -226.935      -67.519      -17.970      109.264       80.980       53.999    11938.655     6557.708     2915.851        3.889        1.071      236.766       56.733        0.057      339.627       13.087      863.761
12/21/2014  04:01:00     -196.681     -105.552        8.063      124.123      111.297       68.602    15406.546    12387.120     4706.245        4.119        1.625      223.214       68.670        0.095      339.644       13.115      863.772
12/21/2014  04:02:00     -199.775      -49.640      -16.138      102.049       62.892       44.392    10413.965     3955.398     1970.687        2.948        0.817      205.850       42.786        0.043      339.580       13.010      863.769
12/21/2014  04:03:00     -123.079       61.195      -20.891       76.310       91.008       36.331     5823.247     8282.388     1319.933        1.737        0.771      137.453       43.025        0.098      339.609       13.060      863.734
12/21/2014  04:04:00     -219.510       88.138      -39.842       79.812       92.857       46.503     6369.904     8622.414     2162.488        3.734        0.858      236.544       44.204        0.035      339.655       13.136      863.707
12/21/2014  04:05:00     -221.608       95.797      -22.312       76.271       91.915       46.476     5817.222     8448.295     2159.987        3.760        0.821      241.427       38.012        0.025      339.761       13.311      863.698
12/21/2014  04:06:00     -188.579       41.887      -21.620      102.530       69.251       39.533    10512.401     4795.727     1562.851        2.732        0.844      193.175       44.826        0.054      339.785       13.356      863.715
12/21/2014  04:07:00     -161.748      -53.867      -10.693       67.397       59.791       40.726     4542.370     3574.938     1658.611        1.948        0.489      170.482       26.310        0.024      339.682       13.180      863.745
12/21/2014  04:08:00      -96.580      -42.651       -6.379       71.248       56.743       24.572     5076.285     3219.772      603.800        1.004        0.445      105.579       23.986        0.052      339.696       13.206      863.766
12/21/2014  04:09:00      -70.690       45.976      -10.171       37.821       46.900       25.126     1430.418     2199.593      631.293        0.574        0.213       84.326       21.552        0.065      339.911       13.569      863.815
12/21/2014  04:10:00      -94.802       24.802      -11.987       53.503       67.192       35.433     2862.574     4514.703     1255.503        0.919        0.432       97.993       24.294        0.061      339.750       13.297      863.808
12/21/2014  04:11:00      -75.873       93.065      -18.708       62.700       75.159       45.644     3931.318     5648.885     2083.366        1.321        0.583      120.074       35.006        0.085      339.714       13.235      863.797
12/21/2014  04:12:00     -166.507      -43.662      -11.867      115.108       84.328       41.608    13249.938     7111.212     1731.213        2.593        1.105      172.136       58.396        0.115      339.663       13.150      863.786
12/21/2014  04:13:00     -196.538      -89.801      -17.831      108.685       58.406       53.305    11812.406     3411.235     2841.407        3.253        0.903      216.082       57.176        0.070      339.631       13.095      863.762
12/21/2014  04:14:00      -50.614      -19.379       11.862       61.477       34.492       32.190     3779.441     1189.670     1036.225        0.454        0.300       54.197       38.341        0.500      339.727       13.260      863.715
12/21/2014  04:15:00     -129.382       94.855      -23.785       60.401       75.493       34.128     3648.227     5699.263     1164.688        1.841        0.526      160.428       24.176        0.023      339.859       13.480      863.727
12/21/2014  04:16:00      -90.618      140.720      -31.379       48.498       60.382       34.980     2352.088     3646.028     1223.586        1.811        0.361      167.373       28.341        0.029      339.735       13.271      863.702
12/21/2014  04:17:00     -123.255      -54.741      -11.429       73.168       47.881       32.763     5353.556     2292.632     1073.419        1.352        0.436      134.864       30.661        0.052      339.694       13.202      863.673
12/21/2014  04:18:00     -138.302      -16.362      -16.481       69.002       57.071       39.184     4761.298     3257.090     1535.383        1.461        0.478      139.267       38.298        0.076      339.818       13.412      863.682
12/21/2014  04:19:00     -174.915      -85.162       -0.708       79.450       47.999       36.089     6312.362     2303.906     1302.444        2.388        0.496      194.545       33.576        0.030      339.594       13.030      863.687
12/21/2014  04:20:00     -179.760      -64.498      -20.964       62.270       43.043       23.009     3877.493     1852.723      529.396        2.159        0.313      190.981       18.739        0.010      339.587       13.020      863.660
12/21/2014  04:21:00     -161.780       23.794      -18.739       54.275       43.765       31.927     2945.783     1915.349     1019.361        1.648        0.294      163.520       27.494        0.028      339.892       13.535      863.664
12/21/2014  04:22:00     -157.144       83.470      -23.311       72.448       74.382       35.408     5248.686     5532.674     1253.755        2.212        0.602      177.937       44.302        0.062      339.777       13.340      863.671
12/21/2014  04:23:00     -180.528      196.022      -34.852      108.387      163.924       55.045    11747.665    26871.114     3029.944        5.693        2.082      266.486       54.099        0.041      339.787       13.357      863.588
12/21/2014  04:24:00      -63.707     -188.310      -11.099      115.399      119.838       58.933    13317.038    14361.113     3473.078        3.539        1.558      198.794       52.084        0.069      339.787       13.356      863.542
12/21/2014  04:25:00      -39.801      -72.100      -17.930       93.454       81.537       38.491     8733.735     6648.282     1481.532        1.198        0.843       82.356       38.217        0.215      339.929       13.598      863.510
12/21/2014  04:26:00     -170.108      162.469      -34.677       45.867       51.454       34.754     2103.818     2647.521     1207.839        3.125        0.298      235.230       30.896        0.017      339.773       13.332      863.595
12/21/2014  04:27:00      -71.084        9.936      -16.934       70.450       35.123       42.764     4963.170     1233.599     1828.738        0.673        0.401       71.776       46.070        0.412      339.808       13.394      863.631
12/21/2014  04:28:00      -10.339       41.551       -0.682       29.567       28.169       17.218      874.219      793.493      296.468        0.190        0.098       42.818        7.837        0.033      339.740       13.280      863.631
12/21/2014  04:29:00      -13.888      117.504      -17.866       30.440       33.252       20.341      926.580     1105.721      413.764        0.838        0.122      118.322       16.740        0.020      339.762       13.319      863.648
12/21/2014  04:30:00      -48.456      109.482      -10.238       41.672       49.415       34.743     1736.524     2441.854     1207.094        0.991        0.269      119.726       31.676        0.070      339.810       13.398      863.652
12/21/2014  04:31:00      -80.715       27.220      -10.626       41.233       65.062       30.006     1700.142     4233.052      900.389        0.710        0.342       85.181       14.104        0.027      339.874       13.508      863.665
12/21/2014  04:32:00     -109.388       21.698      -15.579       38.653       47.394       24.231     1494.064     2246.169      587.137        0.850        0.216      111.520       20.017        0.032      339.773       13.337      863.689
12/21/2014  04:33:00      -77.452       -0.273      -10.885       53.765       41.160       30.368     2890.716     1694.134      922.239        0.581        0.275       77.452       36.584        0.223      339.703       13.218      863.681
12/21/2014  04:34:00      -96.926      184.544      -26.556       65.985      113.361       41.956     4354.042    12850.825     1760.324        3.156        0.948      208.449       39.979        0.037      339.803       13.384      863.650
12/21/2014  04:35:00      -75.181       57.066        8.098      109.377       85.693       56.572    11963.402     7343.366     3200.363        1.574        1.125       94.386       27.983        0.088      339.735       13.272      863.642
12/21/2014  04:36:00     -115.683      116.694      -29.400       85.582      117.315       47.995     7324.246    13762.719     2303.563        2.562        1.170      164.317       51.062        0.097      339.735       13.272      863.694
12/21/2014  04:37:00     -108.717       -1.116       11.333       99.583       88.806       52.227     9916.737     7886.488     2727.611        1.624        1.027      108.723       56.091        0.266      339.834       13.437      863.706
12/21/2014  04:38:00     -200.121       -6.491      -18.866      102.352       90.044       50.205    10475.945     8107.973     2520.542        3.077        1.055      200.226       45.144        0.051      339.788       13.361      863.764
12/21/2014  04:39:00      -74.660      -15.837        1.740      118.850       70.077       37.576    14125.383     4910.782     1411.951        1.313        1.022       76.322       29.852        0.153      339.759       13.313      863.809
12/21/2014  04:40:00     -193.897      -24.577      -23.129       66.701       84.700       42.890     4449.018     7174.074     1839.554        2.610        0.673      195.448       33.522        0.029      339.774       13.334      863.875
12/21/2014  04:41:00     -101.875      -13.414       -0.870       77.278       50.357       46.426     5971.925     2535.869     2155.415        1.061        0.533      102.754       39.137        0.145      339.677       13.174      863.871
12/21/2014  04:42:00     -191.890      -81.417        1.069      102.311       66.764       41.413    10467.479     4457.423     1715.046        3.004        0.832      208.447       44.914        0.046      339.494       12.860      863.897
12/21/2014  04:43:00     -242.429     -103.763      -16.035      105.002       70.386       43.158    11025.327     4954.180     1862.572        4.382        0.892      263.702       49.668        0.035      339.548       12.954      863.890
12/21/2014  04:44:00     -235.732      -74.285      -10.207      108.903       81.361       46.575    11859.929     6619.645     2169.191        4.092        1.032      247.160       50.035        0.041      339.763       13.318      863.876
12/21/2014  04:45:00     -205.286        4.362      -27.199       78.645       42.637       39.718     6185.007     1817.888     1577.549        2.624        0.479      205.332       46.338        0.051      339.718       13.240      863.906
12/21/2014  04:46:00     -123.327      115.283      -27.185       65.081       84.013       41.831     4235.529     7058.188     1749.792        2.114        0.652      168.819       37.299        0.049      339.868       13.494      863.908
12/21/2014  04:47:00      -79.213       95.987      -12.135       79.509       98.484       41.231     6321.613     9699.169     1700.035        1.667        0.886      124.452       33.020        0.070      339.764       13.319      863.858
12/21/2014  04:48:00     -218.798      -17.512      -28.179       78.582      116.650       43.207     6175.128    13607.314     1866.828        3.531        1.082      219.498       44.762        0.042      339.914       13.570      863.803
12/21/2014  04:49:00     -190.341     -112.628       -6.551       95.622       71.067       48.950     9143.551     5050.519     2396.108        3.277        0.830      221.167       50.285        0.052      339.672       13.162      863.838
12/21/2014  04:50:00     -300.929      -54.275       -3.896      108.110       93.867       52.484    11687.851     8810.953     2754.570        5.838        1.163      305.784       39.007        0.016      339.640       13.109      863.891
12/21/2014  04:51:00     -456.942      -59.997      -34.314      146.137      124.393       70.010    21355.994    15473.633     4901.415       12.764        2.087      460.864       72.574        0.025      339.886       13.523      863.915
12/21/2014  04:52:00     -313.007      -32.627      -50.950      121.039      137.553       64.354    14650.417    18920.898     4141.495        6.967        1.886      314.703       54.682        0.030      339.822       13.416      863.895
12/21/2014  04:53:00      -73.201       -9.737        8.056       79.684       58.727       36.221     6349.464     3448.804     1311.938        0.831        0.556       73.846       38.706        0.275      339.871       13.501      863.884
12/21/2014  04:54:00     -190.199      -78.735       -5.566      113.931       56.397       32.072    12980.263     3180.644     1028.586        2.979        0.859      205.852       41.939        0.042      339.808       13.394      863.848
12/21/2014  04:55:00     -257.003       59.395      -40.099      105.907       82.062       49.017    11216.258     6734.246     2402.641        4.577        1.018      263.777       53.366        0.041      339.876       13.506      863.843
12/21/2014  04:56:00     -246.643       31.160        7.800      102.690       99.723       58.041    10545.332     9944.700     3368.800        4.286        1.193      248.603       41.793        0.028      339.998       13.712      863.813
12/21/2014  04:57:00     -236.294     -129.924       -7.416      131.931      100.948       65.008    17405.739    10190.542     4226.024        5.229        1.591      269.658       74.070        0.075      339.781       13.348      863.828
12/21/2014  04:58:00     -306.050      -43.284      -13.586      114.777       78.792       59.355    13173.773     6208.170     3523.033        5.931        1.145      309.096       63.176        0.042      339.821       13.415      863.827
12/21/2014  04:59:00     -275.260      -88.177       -9.427       84.269       54.154       46.615     7101.282     2932.662     2172.990        4.792        0.610      289.038       50.227        0.030      339.720       13.242      863.823
12/21/2014  05:00:00     -147.471     -125.405        8.273      110.296       53.817       44.982    12165.129     2896.259     2023.405        2.731        0.854      193.582       52.112        0.072      339.692       13.198      863.845
12/21/2014  05:01:00     -170.191     -136.858       -9.327      115.905       82.523       53.036    13433.945     6810.121     2812.854        3.541        1.153      218.392       52.523        0.058      339.765       13.320      863.856
12/21/2014  05:02:00     -194.307     -153.321        1.724      138.990       99.541       52.814    19318.210     9908.467     2789.301        4.663        1.601      247.512       72.378        0.086      339.755       13.303      863.868
12/21/2014  05:03:00     -147.144     -142.976        2.669      102.620       87.046       54.158    10530.871     7576.966     2933.047        3.157        1.052      205.167       53.002        0.067      339.801       13.381      863.851
12/21/2014  05:04:00      -71.160     -139.986       -1.640       50.310       48.448       33.951     2531.049     2347.205     1152.690        1.535        0.302      157.035       18.414        0.014      339.870       13.497      863.839
12/21/2014  05:05:00      -42.488       18.825        5.503       55.435      110.999       49.870     3072.991    12320.825     2486.970        1.003        0.894       46.472       57.069        1.508      339.969       13.664      863.854
12/21/2014  05:06:00      -67.915       96.822       14.419       55.052      108.265       48.830     3030.740    11721.240     2384.400        1.566        0.857      118.266       35.910        0.092      339.885       13.523      863.870
12/21/2014  05:07:00      -39.598       -4.547       -3.406       25.439       22.276       13.092      647.166      496.221      171.403        0.146        0.066       39.859       10.591        0.071      339.962       13.654      863.890
12/21/2014  05:08:00        3.008      -15.006       -7.379       21.739       28.521       22.205      472.598      813.475      493.048        0.103        0.089       15.305       13.862        0.820      339.892       13.536      863.899
12/21/2014  05:09:00      -10.856       44.066       -2.556       25.481       63.045       24.035      649.264     3974.719      577.683        0.363        0.260       45.383       22.479        0.245      339.916       13.579      863.934
12/21/2014  05:10:00      -30.189       88.059        8.233       41.720       62.924       29.959     1740.590     3959.410      897.519        0.766        0.330       93.090       17.400        0.035      339.900       13.549      863.936
12/21/2014  05:11:00      -70.665       25.081       -9.326       29.310       79.925       30.849      859.049     6388.040      951.642        0.695        0.410       74.984       29.121        0.151      339.885       13.526      863.946
12/21/2014  05:12:00      -24.845        9.293        6.818       60.336       27.111       14.644     3640.469      735.019      214.455        0.267        0.229       26.526       14.041        0.280      339.943       13.623      863.916
12/21/2014  05:13:00        8.985       -2.089       -6.606       42.432       37.695       14.392     1800.457     1420.930      207.136        0.178        0.171        9.225       16.728        3.289      339.934       13.609      863.921
12/21/2014  05:14:00     -127.844     -110.080        0.074       91.943       59.741       40.693     8453.424     3568.961     1655.913        2.107        0.684      168.706       42.589        0.064      339.846       13.458      863.897
12/21/2014  05:15:00      -87.074       97.206       -9.332       42.742       75.176       40.617     1826.885     5651.495     1649.752        1.312        0.456      130.503       29.929        0.053      339.995       13.709      863.899
12/21/2014  05:16:00     -105.100      328.121      -44.972       76.065      193.615       48.956     5785.899    37486.911     2396.691        8.319        2.283      344.542       61.321        0.032      340.032       13.770      863.936
12/21/2014  05:17:00     -125.761      215.521      -30.388       68.287      142.056       54.931     4663.103    20179.949     3017.388        4.552        1.393      249.530       46.165        0.034      340.076       13.844      863.906
12/21/2014  05:18:00      -17.249      214.992      -26.848      127.647       88.935       46.124    16293.853     7909.397     2127.400        3.678        1.317      215.683       64.523        0.089      340.080       13.849      863.871
12/21/2014  05:19:00       18.025      125.327      -15.481       74.850       60.835       42.449     5602.525     3700.849     1801.906        1.369        0.555      126.617       31.044        0.060      340.055       13.811      863.851
12/21/2014  05:20:00      -88.438      162.871      -23.201       85.248       66.869       46.905     7267.244     4471.483     2200.060        2.441        0.697      185.333       29.515        0.025      340.061       13.819      863.848
12/21/2014  05:21:00     -129.616       51.947       -3.685       79.997       86.835       48.979     6399.493     7540.351     2398.984        1.792        0.817      139.638       43.003        0.095      339.997       13.713      863.857
12/21/2014  05:22:00      -57.265      105.213       13.945       98.197      102.979       65.364     9642.671    10604.578     4272.500        1.953        1.226      119.788       77.731        0.421      340.006       13.727      863.847
12/21/2014  05:23:00     -101.616      286.264      -40.496       90.703      109.410       50.599     8227.051    11970.648     2560.276        5.833        1.138      303.764       53.024        0.030      339.941       13.615      863.815
12/21/2014  05:24:00     -152.739      257.950      -29.625      112.764      139.895       72.846    12715.794    19570.709     5306.534        6.416        1.880      299.779       63.566        0.045      339.939       13.615      863.797
12/21/2014  05:25:00      -51.208       52.857       20.678       70.298       57.091       43.585     4941.778     3259.411     1899.610        0.797        0.505       73.594       38.943        0.280      339.919       13.581      863.742
12/21/2014  05:26:00      -72.875      126.081      -11.729       68.830       81.716       44.911     4737.544     6677.558     2017.011        1.739        0.672      145.626       41.384        0.081      339.957       13.644      863.771
12/21/2014  05:27:00      -75.103      185.815      -15.559       56.857      106.323       42.858     3232.721    11304.654     1836.828        2.839        0.819      200.419       47.873        0.057      339.891       13.531      863.776
12/21/2014  05:28:00      -24.988      307.197      -35.002       71.547       94.181       43.130     5119.033     8870.110     1860.222        5.603        0.792      308.212       32.014        0.011      339.850       13.461      863.732
12/21/2014  05:29:00     -154.301      209.726      -41.360      105.242       70.072       54.460    11075.924     4910.092     2965.887        4.422        0.948      260.372       63.864        0.060      339.844       13.453      863.703
12/21/2014  05:30:00     -172.055      231.770      -46.118       82.583      113.717       62.184     6819.904    12931.479     3866.906        5.453        1.181      288.653       61.773        0.046      339.813       13.400      863.650
12/21/2014  05:31:00      -78.581      226.518      -21.626       66.297      105.776       58.275     4395.324    11188.550     3396.006        3.846        0.949      239.761       58.427        0.059      339.811       13.396      863.607
12/21/2014  05:32:00     -112.280      127.841      -28.920       78.647       85.329       40.350     6185.356     7281.075     1628.086        2.244        0.755      170.147       39.508        0.054      339.874       13.505      863.582
12/21/2014  05:33:00     -109.149      135.621      -15.562       58.912       69.906       45.314     3470.668     4886.884     2053.387        2.048        0.521      174.088       39.811        0.052      339.826       13.424      863.578
12/21/2014  05:34:00     -175.864      160.136      -38.638       90.629       58.534       50.833     8213.585     3426.271     2584.044        3.614        0.711      237.849       47.158        0.039      339.794       13.367      863.604
12/21/2014  05:35:00     -164.088       82.671      -23.133       82.498       95.559       49.547     6805.929     9131.562     2454.935        2.634        0.920      183.737       43.016        0.055      339.824       13.419      863.633
12/21/2014  05:36:00     -138.313      234.061      -38.076       68.249       88.341       42.719     4657.872     7804.048     1824.886        4.482        0.714      271.873       43.479        0.026      339.755       13.303      863.657
12/21/2014  05:37:00     -104.032       69.153       -5.658       52.097       90.960       36.491     2714.101     8273.714     1331.619        1.398        0.616      124.919       29.868        0.057      339.770       13.332      863.688
12/21/2014  05:38:00      -83.132      -18.589       -7.601       71.510       68.831       48.026     5113.717     4737.729     2306.475        0.973        0.608       85.185       46.475        0.298      339.907       13.562      863.728
12/21/2014  05:39:00      -63.841       18.089       -7.102       52.493       61.298       28.140     2755.527     3757.463      791.837        0.588        0.365       66.354       27.622        0.173      339.823       13.420      863.715
12/21/2014  05:40:00      -69.698       48.324        8.520       31.781       46.984       26.202     1010.009     2207.542      686.534        0.558        0.195       84.811       20.798        0.060      340.021       13.754      863.720
12/21/2014  05:41:00     -107.775      -18.408      -12.604       32.521       29.665       18.693     1057.620      880.011      349.440        0.720        0.114      109.336       15.148        0.019      339.896       13.543      863.746
12/21/2014  05:42:00       42.127       43.052        4.849       59.926       48.033       31.236     3591.108     2307.147      975.660        0.526        0.344       60.234       16.014        0.071      339.732       13.267      863.742
12/21/2014  05:43:00        5.406      178.335      -31.699       67.224      110.886       31.390     4519.033    12295.766      985.329        2.532        0.890      178.417       40.410        0.051      339.638       13.107      863.716
12/21/2014  05:44:00     -182.190      121.474      -29.177       46.766      107.129       36.103     2187.099    11476.667     1303.394        3.188        0.748      218.973       34.562        0.025      339.871       13.500      863.724
12/21/2014  05:45:00     -161.229      103.507      -31.192       94.127       55.353       32.166     8859.949     3063.969     1034.679        2.532        0.648      191.594       32.215        0.028      339.824       13.421      863.778
12/21/2014  05:46:00     -242.318      202.126      -27.610      142.860      106.814       68.418    20409.080    11409.148     4681.047        6.841        1.825      315.552       75.968        0.058      339.777       13.340      863.757
12/21/2014  05:47:00     -160.399       41.656      -16.268       70.116       56.811       32.024     4916.237     3227.465     1025.513        1.845        0.458      165.719       28.301        0.029      339.903       13.554      863.707
12/21/2014  05:48:00      -95.029       -9.200       -2.644      159.641       91.577       52.938    25485.131     8386.307     2802.435        2.289        1.834       95.474       49.128        0.265      339.770       13.330      863.731
12/21/2014  05:49:00     -100.311       61.583       -8.910       75.843       54.028       45.601     5752.201     2919.043     2079.479        1.234        0.538      117.706       41.292        0.123      339.740       13.281      863.651
12/21/2014  05:50:00      -87.329       78.188      -18.082       68.025       47.633       30.723     4627.373     2268.895      943.896        1.095        0.392      117.217       32.899        0.079      339.713       13.236      863.657
12/21/2014  05:51:00      -85.336       33.930      -12.857      154.277      136.430       35.365    23801.324    18613.244     1250.666        2.612        2.183       91.834       41.765        0.207      339.622       13.081      863.706
12/21/2014  05:52:00      -41.287     -161.213       -5.003      121.840      117.475       60.989    14844.896    13800.362     3719.661        3.004        1.618      166.416       54.102        0.106      339.678       13.172      863.702
12/21/2014  05:53:00      -85.747       51.788       -2.538      105.072       56.731       50.483    11040.152     3218.358     2548.520        1.342        0.840      100.173       60.537        0.365      339.677       13.173      863.662
12/21/2014  05:54:00      -94.296      342.759      -49.856       59.898      134.688       49.082     3587.787    18140.758     2409.024        7.649        1.207      355.494       55.578        0.024      339.698       13.206      863.720
12/21/2014  05:55:00     -107.322      171.583      -30.350      100.903      144.269       50.295    10181.365    20813.485     2529.572        3.770        1.676      202.383       70.630        0.122      339.862       13.485      863.745
12/21/2014  05:56:00      -55.699      282.453      -33.964       58.103      102.936       49.564     3375.926    10595.914     2456.609        5.023        0.821      287.893       57.925        0.040      339.893       13.535      863.735
12/21/2014  05:57:00     -280.938       86.464      -35.466      131.822      123.319       52.224    17376.927    15207.542     2727.305        6.148        1.766      293.943       54.149        0.034      340.006       13.726      863.822
12/21/2014  05:58:00      -15.268       81.420      -16.450      152.716      175.741       57.347    23322.074    30885.031     3288.687        3.230        2.875       82.839       50.832        0.377      339.862       13.484      863.786
12/21/2014  05:59:00     -155.796      223.800      -52.179      124.216       80.466       45.331    15429.657     6474.734     2054.926        5.052        1.198      272.688       40.183        0.022      339.983       13.686      863.829
12/21/2014  06:00:00      -75.607      352.168      -38.354      101.146      122.442       61.289    10230.579    14991.930     3756.320        8.009        1.449      360.193       66.879        0.034      339.880       13.512      863.843
12/21/2014  06:01:00      -41.140      282.186      -23.463       73.634      130.636       52.054     5421.906    17065.655     2709.613        5.353        1.260      285.169       58.955        0.043      339.835       13.438      863.780
12/21/2014  06:02:00      -19.901      108.912      -15.877       51.741       75.654       37.352     2677.134     5723.489     1395.137        1.115        0.490      110.715       23.626        0.046      339.827       13.428      863.797
12/21/2014  06:03:00       84.106       51.303       26.057       79.369       52.823       59.150     6299.369     2790.304     3498.719        1.148        0.629       98.518       45.807        0.216      339.852       13.469      863.802
12/21/2014  06:04:00       -7.056     -129.754      -23.493       41.917       66.942       25.342     1757.036     4481.248      642.229        1.216        0.344      129.946       16.085        0.015      339.885       13.523      863.830
12/21/2014  06:05:00       12.200       56.066       52.181       64.437       67.821       67.879     4152.132     4599.710     4607.578        0.968        0.668       57.378       42.129        0.539      339.801       13.382      863.807
12/21/2014  06:06:00      -18.086       13.161       51.059       25.566       62.265       54.144      653.623     3876.900     2931.612        0.528        0.373       22.368       44.940        4.037      339.815       13.408      863.817
12/21/2014  06:07:00      -38.456       11.143        1.029       36.774       40.646       21.716     1352.317     1652.093      471.596        0.254        0.174       40.038       11.464        0.082      339.856       13.477      863.885
12/21/2014  06:08:00       28.393       69.175       13.929       69.927       72.855       41.812     4889.809     5307.792     1748.237        0.886        0.597       74.776       29.555        0.156      339.792       13.367      863.931
12/21/2014  06:09:00       80.484      131.403       -3.787       78.882       61.953       43.956     6222.396     3838.149     1932.166        1.787        0.600      154.092       38.612        0.063      339.795       13.373      863.931
12/21/2014  06:10:00      159.021      126.852       10.197      110.646       88.832       56.700    12242.632     7891.039     3214.906        3.241        1.167      203.418       24.812        0.015      339.823       13.418      863.842
12/21/2014  06:11:00       17.426       61.611        5.851       69.559       79.411       54.387     4838.428     6306.143     2957.998        0.912        0.705       64.028       39.573        0.382      339.777       13.342      863.835
12/21/2014  06:12:00     -204.419      -50.375      -26.147      121.115       71.608       47.894    14668.790     5127.654     2293.843        3.355        1.105      210.535       22.222        0.011      339.848       13.459      863.895
12/21/2014  06:13:00     -278.378     -111.664       -7.286      150.750       88.931       55.677    22725.518     7908.713     3099.911        6.187        1.687      299.938       46.513        0.024      339.745       13.287      863.954
12/21/2014  06:14:00     -379.467     -194.924       -5.374      134.789       87.541       62.825    18168.145     7663.505     3946.989       10.589        1.489      426.604       52.870        0.015      339.706       13.219      863.890
12/21/2014  06:15:00     -278.717      -31.016      -27.586      100.923      113.027       47.217    10185.436    12775.155     2229.460        5.229        1.260      280.437       48.927        0.030      339.697       13.206      863.926
12/21/2014  06:16:00      -66.286      203.400      -46.259      120.171      102.753       35.181    14441.132    10558.185     1237.683        3.707        1.312      213.928       29.100        0.019      339.744       13.283      863.925
12/21/2014  06:17:00      117.460      179.295      -16.060       70.876       86.686       52.042     5023.470     7514.468     2708.321        3.072        0.762      214.345       44.452        0.043      339.749       13.292      863.916
12/21/2014  06:18:00      203.952      124.480       47.101      120.952       90.180       77.670    14629.472     8132.379     6032.627        4.405        1.440      238.938       50.467        0.045      339.753       13.301      863.830
12/21/2014  06:19:00      117.684       95.370       16.019       86.547       69.030       64.117     7490.336     4765.094     4111.052        1.978        0.818      151.476       41.353        0.075      339.729       13.260      863.858
12/21/2014  06:20:00      105.718       60.991        5.300       33.612       35.965       34.588     1129.785     1293.459     1196.360        0.927        0.181      122.050       23.023        0.036      339.710       13.229      863.885
12/21/2014  06:21:00       82.934       22.953       -6.299       25.042       18.763       18.145      627.101      352.057      329.233        0.438        0.065       86.052        9.951        0.013      339.750       13.298      863.873
12/21/2014  06:22:00      -37.017       86.701      -19.650       43.029       55.161       27.856     1851.494     3042.730      775.979        0.747        0.284       94.273       24.412        0.067      339.785       13.356      863.909
12/21/2014  06:23:00     -130.591       98.651      -35.431       56.641       56.102       25.786     3208.209     3147.440      664.913        1.753        0.351      163.665       34.157        0.044      339.853       13.470      863.960
12/21/2014  06:24:00     -110.381       -6.400      -19.546       47.795       48.522       25.932     2284.386     2354.351      672.488        0.896        0.266      110.567       31.013        0.079      339.904       13.558      863.988
12/21/2014  06:25:00       28.421       16.815       20.212       60.561       65.640       42.990     3667.595     4308.599     1848.140        0.566        0.491       33.023       50.675        2.355      339.772       13.334      863.962
12/21/2014  06:26:00       44.223      105.098      104.027       89.437       80.732       52.844     7999.064     6517.736     2792.456        2.056        0.865      114.023       41.756        0.134      339.795       13.372      863.824
12/21/2014  06:27:00      -33.829      -55.233       33.231       64.053       75.994       62.896     4102.832     5775.115     3955.852        0.956        0.692       64.769       49.570        0.586      339.840       13.449      863.766
12/21/2014  06:28:00        6.458      -74.347       31.739       91.799       67.938       60.828     8427.019     4615.552     3700.098        1.166        0.837       74.627       51.045        0.468      339.786       13.358      863.864
12/21/2014  06:29:00     -254.225     -140.613       -8.578      112.783       76.523       50.052    12720.054     5855.794     2505.201        5.277        1.054      290.521       54.149        0.035      339.707       13.223      863.941
12/21/2014  06:30:00      -90.082     -132.832       16.509      160.707      129.841       70.102    25826.796    16858.669     4914.315        3.681        2.380      160.496       72.057        0.202      339.788       13.359      863.974
12/21/2014  06:31:00     -270.236     -108.394      -11.122      148.741      104.021       55.175    22123.826    10820.361     3044.256        6.044        1.799      291.165       54.095        0.035      339.749       13.293      864.069
12/21/2014  06:32:00     -339.729     -115.817      -31.256      146.860      129.674       61.002    21567.829    16815.409     3721.290        8.595        2.105      358.928       66.002        0.034      339.812       13.398      864.078
12/21/2014  06:33:00     -245.454       15.676      -56.651      146.940      146.678       66.726    21591.508    21514.400     4452.394        5.562        2.378      245.954       68.879        0.078      339.854       13.469      864.053
12/21/2014  06:34:00      404.360      213.985       13.846      193.649       94.955       77.865    37499.861     9016.415     6062.930       13.102        2.629      457.489       68.372        0.022      339.752       13.298      863.917
12/21/2014  06:35:00      185.455      163.990      120.561      112.277       87.607       93.112    12606.174     7674.936     8669.841        5.238        1.448      247.561       70.662        0.081      339.777       13.340      863.868
12/21/2014  06:36:00       41.860       -4.347       14.165       43.869       43.456       35.772     1924.460     1888.432     1279.624        0.353        0.255       42.085       31.023        0.543      339.760       13.315      863.966
12/21/2014  06:37:00      -48.346       12.505      -15.376       35.459       58.759       32.653     1257.341     3452.654     1066.193        0.425        0.289       49.937       31.514        0.398      339.840       13.449      864.035
12/21/2014  06:38:00      -98.373       23.290       -9.441       55.937       37.963       29.793     3128.970     1441.152      887.614        0.788        0.273      101.092       22.400        0.049      340.021       13.755      864.050
12/21/2014  06:39:00       -9.921       32.426      -32.892      131.480      113.729       57.614    17287.074    12934.314     3319.325        1.788        1.677       33.910       38.439        1.285      339.878       13.511      864.089
12/21/2014  06:40:00     -372.259     -147.145        6.903      267.450      154.065      122.712    71529.677    23735.983    15058.303       13.528        5.516      400.286      144.023        0.129      339.795       13.371      864.067
12/21/2014  06:41:00      -64.257      -80.005       48.975      198.451      166.371      127.978    39382.605    27679.420    16378.289        4.817        4.172      102.614      114.438        1.244      339.815       13.405      864.022
12/21/2014  06:42:00      -29.936      359.033      -46.149       46.449       81.395       41.490     2157.510     6625.152     1721.425        7.122        0.525      360.279       35.953        0.010      339.800       13.380      864.129
12/21/2014  06:43:00      -54.256      153.741      -19.174       66.705      104.795       46.837     4449.523    10982.052     2193.732        2.228        0.881      163.034       42.154        0.067      339.878       13.512      864.093
12/21/2014  06:44:00      -14.781      163.922      -23.865       44.855       63.373       37.526     2011.944     4016.101     1408.167        1.755        0.372      164.587       29.263        0.032      339.867       13.490      864.044
12/21/2014  06:45:00      -90.860       46.899      -25.879       80.820      125.734       35.264     6531.799    15809.056     1243.569        1.735        1.179      102.250       53.183        0.271      339.941       13.619      864.003
12/21/2014  06:46:00      -59.496      -39.746        1.959       94.180       72.753       31.795     8869.905     5293.048     1010.921        1.015        0.759       71.551       15.606        0.048      339.912       13.570      864.012
12/21/2014  06:47:00       31.527      -48.653      -12.704       84.166       73.046       52.391     7083.964     5335.768     2744.836        0.934        0.758       57.975       36.323        0.393      339.877       13.512      864.026
12/21/2014  06:48:00      -14.425        3.123        8.491       33.938       36.974       29.757     1151.795     1367.077      885.495        0.185        0.170       14.760       16.050        1.182      339.900       13.551      864.079
12/21/2014  06:49:00       55.538       19.271       -1.770       30.164       32.797       20.629      909.869     1075.646      425.575        0.293        0.121       58.787        7.769        0.017      339.820       13.415      864.109
12/21/2014  06:50:00       62.522        8.338       17.782       56.284       55.403       29.612     3167.849     3069.524      876.853        0.570        0.356       63.075       25.850        0.168      339.834       13.441      864.062
12/21/2014  06:51:00      -16.135      -88.675       17.034       71.209       64.471       55.246     5070.733     4156.561     3052.112        1.034        0.614       90.131       30.370        0.114      339.850       13.466      864.047
12/21/2014  06:52:00      -52.107      -96.273       -2.381       85.760       60.704       47.892     7354.701     3685.004     2293.687        1.266        0.667      109.470       25.858        0.056      339.839       13.448      864.095
12/21/2014  06:53:00     -270.855     -169.481       -7.553       85.292       81.568       51.741     7274.744     6653.391     2677.169        5.937        0.830      319.509       45.797        0.021      339.729       13.257      864.128
12/21/2014  06:54:00     -247.586      -22.778      -28.857       82.477      115.576       49.766     6802.449    13357.844     2476.624        4.264        1.132      248.631       54.852        0.049      339.862       13.483      864.222
12/21/2014  06:55:00      106.863        6.174        7.621      163.851      112.301       88.474    26847.190    12611.571     7827.651        2.939        2.364      107.041       79.338        0.549      339.865       13.487      864.249
12/21/2014  06:56:00      119.768      150.891      108.442      216.433      138.211      133.224    46843.058    19102.313    17748.690        6.627        4.185      192.646      118.351        0.377      339.816       13.407      864.080
12/21/2014  06:57:00      -32.818       85.780      -30.457       54.763      107.138       37.168     2998.980    11478.512     1381.464        1.261        0.793       91.843       40.649        0.196      339.825       13.422      864.245
12/21/2014  06:58:00      -87.878       89.474      -28.379       70.721      121.103       28.323     5001.405    14665.988      802.177        1.850        1.023      125.412       40.517        0.104      339.872       13.502      864.269
12/21/2014  06:59:00     -141.618       71.983      -15.436       45.014       99.652       36.404     2026.248     9930.598     1325.249        1.938        0.664      158.863       37.550        0.056      339.994       13.709      864.300
12/21/2014  07:00:00      -91.434      219.335      -27.880       52.404       60.298       36.021     2746.146     3635.840     1297.486        3.246        0.384      237.630       19.140        0.006      339.822       13.415      864.354
12/21/2014  07:01:00       54.149      119.406       -9.722       39.040       44.374       34.087     1524.114     1969.035     1161.945        1.097        0.233      131.110       25.321        0.037      339.808       13.397      864.346
12/21/2014  07:02:00       63.257       79.758       -1.226       38.819       41.235       38.719     1506.883     1700.309     1499.191        0.753        0.235      101.798       29.145        0.082      339.752       13.302      864.326
12/21/2014  07:03:00       39.714       61.795       -7.600       50.365       81.987       36.684     2536.616     6721.790     1345.699        0.803        0.530       73.456       37.600        0.262      339.679       13.177      864.362
12/21/2014  07:04:00      -58.939      212.730      -32.612       57.767       64.970       33.047     3337.064     4221.160     1092.126        2.922        0.433      220.744       35.394        0.026      339.703       13.216      864.397
12/21/2014  07:05:00       75.502      112.585      -10.993       68.718       53.156       32.999     4722.117     2825.524     1088.903        1.356        0.432      135.558       36.879        0.074      339.698       13.211      864.380
12/21/2014  07:06:00       33.482       84.617      -10.900       44.116       61.629       29.155     1946.248     3798.152      850.000        0.750        0.330       91.000       26.806        0.087      339.591       13.029      864.382
12/21/2014  07:07:00       44.509      185.673      -31.887       74.624       87.803       37.896     5568.738     7709.280     1436.118        2.609        0.736      190.933       38.610        0.041      339.605       13.052      864.398
12/21/2014  07:08:00       11.048      165.509      -36.742       47.202       65.018       33.953     2228.038     4227.402     1152.838        1.824        0.380      165.878       35.861        0.047      339.654       13.137      864.456
12/21/2014  07:09:00        7.551      213.359      -40.838       63.090       64.214       36.058     3980.293     4123.431     1300.178        2.832        0.470      213.493       37.881        0.031      339.624       13.081      864.476
12/21/2014  07:10:00      -14.699       44.707        2.176       73.265       68.920       34.601     5367.779     4749.906     1197.234        0.676        0.566       47.062       25.295        0.289      339.555       12.968      864.468
12/21/2014  07:11:00        2.538       68.662      -15.754       75.405       74.933       27.437     5685.891     5614.913      752.797        0.851        0.603       68.708       33.331        0.235      339.639       13.110      864.489
12/21/2014  07:12:00       62.898       37.118       13.844       55.720       45.191       32.298     3104.748     2042.182     1043.173        0.586        0.310       73.033        8.063        0.012      339.534       12.934      864.533
12/21/2014  07:13:00       40.668      158.944      -18.295       44.090       52.495       31.363     1943.916     2755.729      983.665        1.647        0.284      164.064       33.932        0.043      339.523       12.913      864.552
12/21/2014  07:14:00       23.253      151.442      -27.130       68.822       58.922       29.973     4736.453     3471.766      898.404        1.666        0.455      153.217       31.061        0.041      339.499       12.872      864.552
12/21/2014  07:15:00       47.071       74.780      -11.845       45.819       65.262       35.452     2099.387     4259.132     1256.820        0.778        0.381       88.361       35.016        0.157      339.483       12.847      864.557
12/21/2014  07:16:00       17.826       61.889       -6.326       55.955       35.554       29.023     3130.921     1264.090      842.343        0.471        0.262       64.405       28.466        0.195      339.493       12.863      864.556
12/21/2014  07:17:00       -2.498       36.097       -8.623       42.393       38.539       24.943     1797.186     1485.273      622.143        0.264        0.195       36.183       22.259        0.378      339.473       12.830      864.567
12/21/2014  07:18:00      -52.551       30.933       -3.766       35.836       51.018       22.667     1284.204     2602.851      513.802        0.407        0.220       60.979       19.295        0.100      339.695       13.204      864.615
12/21/2014  07:19:00     -213.643      -29.655      -24.459       78.318       75.436       32.248     6133.698     5690.531     1039.946        2.999        0.643      215.691       28.298        0.017      339.713       13.230      864.674
12/21/2014  07:20:00     -106.260       84.800      -31.180       81.323       41.812       23.697     6613.475     1748.259      561.559        1.419        0.446      135.950       26.434        0.038      339.684       13.186      864.701
12/21/2014  07:21:00        5.378       89.206      -15.310       21.445       31.605       24.681      459.902      998.871      609.135        0.514        0.103       89.368       18.607        0.043      339.639       13.110      864.746
12/21/2014  07:22:00      -78.879      203.983      -31.704       87.448       86.400       41.894     7647.154     7465.002     1755.141        3.285        0.843      218.703       47.219        0.047      339.663       13.149      864.806
12/21/2014  07:23:00     -192.430      200.889      -37.927       66.623      136.682       38.313     4438.571    18681.854     1467.916        5.170        1.229      278.182       37.117        0.018      339.705       13.219      864.801
12/21/2014  07:24:00      -59.875       54.820      -10.508       53.054       40.060       32.542     2814.739     1604.808     1058.954        0.609        0.274       81.180       17.920        0.049      339.938       13.615      864.793
12/21/2014  07:25:00      -94.934       28.088      -16.807       44.891       40.859       27.773     2015.232     1669.471      771.365        0.727        0.223       99.002       11.963        0.015      339.832       13.436      864.826
12/21/2014  07:26:00     -110.314       42.176       -3.287      101.570       98.857       59.813    10316.396     9772.773     3577.584        1.881        1.183      118.102       58.040        0.242      339.740       13.279      864.818
12/21/2014  07:27:00     -147.805      100.084      -38.595      106.323       94.327       50.315    11304.631     8897.621     2531.599        2.804        1.137      178.503       35.900        0.040      339.781       13.347      864.819
12/21/2014  07:28:00     -170.045       12.825      -16.186       76.850      108.280       37.910     5905.920    11724.619     1437.161        2.420        0.953      170.528       29.500        0.030      339.715       13.236      864.848
12/21/2014  07:29:00     -152.603       91.087      -27.264       75.416       81.779       35.569     5687.516     6687.831     1265.164        2.298        0.682      177.720       38.454        0.047      339.745       13.286      864.877
12/21/2014  07:30:00     -221.632       96.847      -28.333       82.374      160.321       61.122     6785.513    25702.966     3735.897        4.776        1.811      241.868       60.860        0.063      339.663       13.146      864.904
12/21/2014  07:31:00     -286.502      -16.394      -19.746      106.944      103.875       66.376    11437.042    10789.989     4405.806        5.468        1.332      286.971       57.556        0.040      339.805       13.386      864.939
12/21/2014  07:32:00     -297.535     -149.891       -5.018      114.116       72.103       56.690    13022.453     5198.823     3213.790        6.622        1.072      333.158       54.100        0.026      339.617       13.072      864.972
12/21/2014  07:33:00     -232.802      -94.866        1.674       92.134       62.501       46.520     8488.675     3906.355     2164.112        3.888        0.728      251.389       43.883        0.030      339.593       13.030      865.024
12/21/2014  07:34:00     -121.432       13.811       -5.173       84.636      109.101       35.519     7163.202    11903.059     1261.629        1.764        1.016      122.215       39.536        0.105      339.599       13.042      865.036
12/21/2014  07:35:00      -28.899      267.930      -14.944       60.115       67.507       48.807     3613.800     4557.188     2382.134        4.170        0.528      269.484       26.443        0.010      339.641       13.109      864.980
12/21/2014  07:36:00       10.397      157.605      -19.950       76.704       81.757       39.474     5883.573     6684.170     1558.200        1.973        0.706      157.947       46.888        0.088      339.681       13.181      864.968
12/21/2014  07:37:00       22.608       28.721       -5.671       65.173       33.393       29.083     4247.548     1115.061      845.844        0.379        0.310       36.552       29.374        0.646      339.640       13.113      864.995
12/21/2014  07:38:00     -121.460      -29.546       -4.002       67.439       48.430       19.700     4548.043     2345.503      388.082        1.146        0.364      125.002       17.637        0.020      339.725       13.256      865.039
12/21/2014  07:39:00     -155.915      -15.938       -8.677       47.334       49.742       26.030     2240.507     2474.243      677.566        1.501        0.270      156.728       23.099        0.022      339.902       13.553      865.106
12/21/2014  07:40:00     -129.172      -21.380      -13.590       59.907       36.602       20.396     3588.831     1339.722      415.994        1.133        0.267      130.929       23.748        0.033      339.714       13.237      865.150
12/21/2014  07:41:00      -37.425      -21.132       -4.013       41.123       67.617       20.077     1691.093     4572.052      403.080        0.426        0.333       42.979       13.602        0.100      339.615       13.073      865.171
12/21/2014  07:42:00       21.754     -187.414        6.315       50.648       74.196       36.471     2565.210     5505.102     1330.158        2.252        0.470      188.672       39.887        0.045      339.611       13.063      865.178
12/21/2014  07:43:00     -105.094     -132.471        5.252       89.310       85.361       39.369     7976.249     7286.548     1549.907        2.271        0.841      169.095       37.971        0.050      339.610       13.060      865.152
12/21/2014  07:44:00     -137.074     -108.321        4.577       85.361       54.374       41.570     7286.530     2956.578     1728.059        2.126        0.599      174.708       38.908        0.050      339.602       13.047      865.165
12/21/2014  07:45:00     -153.639     -195.154       -2.344      108.127      114.485       51.825    11691.503    13106.712     2685.871        4.458        1.374      248.375       58.641        0.056      339.587       13.019      865.174
12/21/2014  07:46:00     -242.216      -50.584       -3.471       79.578       79.530       39.929     6332.714     6325.094     1594.298        3.774        0.713      247.442       38.248        0.024      339.633       13.099      865.181
12/21/2014  07:47:00     -113.094      -46.222       17.447      106.310       89.738       55.852    11301.759     8052.888     3119.415        1.885        1.124      122.175       58.279        0.228      339.725       13.254      865.178
12/21/2014  07:48:00     -107.640       10.875       -7.780       52.403       70.620       28.834     2746.082     4987.156      831.413        1.016        0.428      108.188       15.633        0.021      339.660       13.146      865.187
12/21/2014  07:49:00      -76.310       19.142        1.680       68.356       31.920       23.822     4672.576     1018.888      567.486        0.622        0.313       78.674       28.584        0.132      339.798       13.379      865.192
12/21/2014  07:50:00     -125.792       14.597       -6.123       84.339       55.494       31.338     7113.059     3079.535      982.071        1.362        0.559      126.636       43.011        0.115      339.733       13.268      865.187
12/21/2014  07:51:00     -205.241      -39.823      -23.241      107.811       73.450       43.180    11623.206     5394.838     1864.477        3.156        0.944      209.068       53.600        0.066      339.827       13.425      865.222
12/21/2014  07:52:00     -160.347       40.269      -31.249       72.014       74.013       34.821     5186.074     5477.884     1212.537        2.009        0.594      165.326       34.731        0.044      339.718       13.242      865.294
12/21/2014  07:53:00     -263.298     -110.761      -19.237      150.592      107.504       61.637    22677.961    11557.178     3799.166        5.999        1.902      285.646       77.829        0.074      339.672       13.161      865.311
12/21/2014  07:54:00     -228.071      -92.869      -15.065      102.334       76.185       42.168    10472.298     5804.192     1778.109        3.946        0.903      246.254       46.390        0.035      339.676       13.168      865.352
12/21/2014  07:55:00     -276.487      -31.808      -30.014       95.897       68.723       40.669     9196.316     4722.785     1653.972        4.696        0.779      278.311       44.889        0.026      339.700       13.210      865.393
12/21/2014  07:56:00     -180.040      -19.243      -13.750       85.441       65.138       41.152     7300.079     4242.947     1693.509        2.310        0.662      181.066       40.353        0.050      339.732       13.265      865.434
12/21/2014  07:57:00     -139.196       93.153      -23.567       72.247       89.461       53.598     5219.633     8003.182     2872.707        2.235        0.805      167.490       49.507        0.087      339.703       13.217      865.425
12/21/2014  07:58:00     -113.627       59.115       -3.078       79.069       65.058       40.267     6251.885     4232.524     1621.399        1.426        0.605      128.085       46.262        0.130      339.783       13.351      865.394
12/21/2014  07:59:00     -173.812       34.541      -11.152      104.870       85.794       51.373    10997.733     7360.535     2639.175        2.626        1.050      177.211       54.961        0.096      339.880       13.515      865.352
12/21/2014  08:00:00      -69.145      109.965      -13.798       96.674      128.634       52.205     9345.927    16546.783     2725.358        2.284        1.431      129.897       52.379        0.163      339.692       13.197      865.321
12/21/2014  08:01:00      -26.316      275.216      -44.499       72.162       94.247       43.892     5207.399     8882.430     1926.488        4.721        0.801      276.471       47.669        0.030      339.703       13.216      865.325
12/21/2014  08:02:00     -167.133       65.204      -22.787       96.102      118.796       45.937     9235.576    14112.410     2110.175        2.908        1.273      179.402       45.531        0.064      339.688       13.189      865.348
12/21/2014  08:03:00     -134.346      -66.105       -1.682       60.389       66.018       30.958     3646.828     4358.338      958.390        1.569        0.448      149.729       21.368        0.020      339.723       13.251      865.391
12/21/2014  08:04:00     -163.359        1.684       -3.460       96.266       59.588       35.835     9267.102     3550.706     1284.120        2.040        0.705      163.368       32.550        0.040      339.761       13.314      865.422
12/21/2014  08:05:00     -123.922       73.765       -4.329       75.871       49.675       34.226     5756.344     2467.607     1171.395        1.510        0.470      144.215       36.093        0.063      339.819       13.413      865.435
12/21/2014  08:06:00      -94.570       21.529       -7.563       72.004       38.563       30.047     5184.619     1487.114      902.833        0.852        0.379       96.990       35.208        0.132      339.834       13.437      865.410
12/21/2014  08:07:00      -46.502       15.564        0.489       44.910       31.719       21.564     2016.864     1006.097      465.027        0.295        0.174       49.038       18.639        0.144      339.732       13.267      865.381
12/21/2014  08:08:00      -70.473       -0.021       -0.350       89.901       37.809       30.007     8082.269     1429.488      900.404        0.769        0.521       70.473       48.150        0.467      339.697       13.207      865.401
12/21/2014  08:09:00     -182.919      -72.470      -23.910       83.633       57.510       33.652     6994.542     3307.456     1132.468        2.536        0.572      196.751       32.827        0.028      339.653       13.131      865.438
12/21/2014  08:10:00     -150.428      -99.607        0.331      108.417      105.377       46.043    11754.140    11104.306     2119.966        2.876        1.249      180.417       51.473        0.081      339.632       13.095      865.454
12/21/2014  08:11:00     -190.052     -106.477        1.962      113.869       76.596       54.356    12966.099     5866.943     2954.587        3.462        1.089      217.846       67.079        0.095      339.627       13.086      865.473
12/21/2014  08:12:00     -152.982     -169.360        2.645      116.895       99.534       64.375    13664.448     9907.057     4144.202        3.990        1.386      228.224       64.441        0.080      339.655       13.133      865.431
12/21/2014  08:13:00     -140.364     -191.104       -6.616       84.947       52.910       47.093     7216.032     2799.519     2217.724        3.425        0.612      237.113       38.066        0.026      339.635       13.101      865.374
12/21/2014  08:14:00      -51.585     -101.196        8.564       58.128       88.969       31.588     3378.821     7915.483      997.800        1.263        0.615      113.585       24.108        0.045      339.715       13.239      865.330
12/21/2014  08:15:00     -117.575      -93.273       -1.410       81.041       36.857       33.371     6567.646     1358.416     1113.654        1.578        0.452      150.079       26.460        0.031      339.705       13.221      865.327
12/21/2014  08:16:00     -120.576      -88.534       -3.505       78.314       53.109       40.367     6133.119     2820.527     1629.494        1.648        0.529      149.589       47.097        0.099      339.695       13.202      865.339
12/21/2014  08:17:00      -66.828      -87.065        4.882       78.574       46.418       35.264     6173.933     2154.625     1243.553        1.082        0.479      109.756       41.020        0.140      339.738       13.276      865.333
12/21/2014  08:18:00        5.339       13.049       20.817       28.201       33.897       23.828      795.296     1148.998      567.771        0.157        0.126       14.099       20.306        2.074      339.857       13.477      865.334
12/21/2014  08:19:00      -60.491       27.982        4.500       24.688       26.543       19.108      609.512      704.552      365.109        0.307        0.084       66.650       10.322        0.024      340.095       13.879      865.336
12/21/2014  08:20:00     -104.418       10.845       -4.555       29.191       30.495       19.232      852.118      929.939      369.883        0.660        0.108      104.980       15.317        0.021      340.246       14.133      865.352
12/21/2014  08:21:00     -162.059      -55.302       -7.260       44.945       51.897       28.086     2020.011     2693.321      788.813        1.744        0.275      171.235       25.700        0.023      339.820       13.413      865.389
12/21/2014  08:22:00      -49.175      -31.072       -1.074       38.151       29.116       19.191     1455.466      847.747      368.302        0.303        0.134       58.169       12.424        0.046      339.722       13.252      865.411
12/21/2014  08:23:00     -247.145      -23.011      -19.863      136.250       91.312       45.976    18564.190     8337.847     2113.832        4.550        1.451      248.214       59.976        0.058      339.845       13.457      865.476
12/21/2014  08:24:00      107.290       69.495       15.696       77.115       43.443       39.629     5946.657     1887.263     1570.492        1.299        0.470      127.831       24.346        0.036      339.807       13.393      865.467
12/21/2014  08:25:00       -5.339      -21.990        6.175       32.504       57.230       31.325     1056.507     3275.283      981.266        0.293        0.266       22.629       37.373        2.728      339.855       13.475      865.426
12/21/2014  08:26:00      -14.309       27.504       43.362       22.638       33.241       20.221      512.477     1104.942      408.902        0.243        0.101       31.004        8.086        0.068      339.880       13.516      865.438
12/21/2014  08:27:00      -31.741       37.594       -9.099       26.117       19.163       16.323      682.085      367.211      266.428        0.191        0.066       49.201        8.715        0.031      339.861       13.485      865.500
12/21/2014  08:28:00      -41.620      205.854      -36.033       46.759      114.492       30.149     2186.445    13108.342      908.934        3.080        0.810      210.019       47.942        0.052      339.815       13.405      865.560
12/21/2014  08:29:00     -136.295      231.560      -43.329       92.981      126.164       48.311     8645.509    15917.449     2333.909        5.048        1.345      268.694       48.914        0.033      339.817       13.407      865.633
12/21/2014  08:30:00     -192.627      -36.992      -15.045      133.562       87.766       49.201    17838.856     7702.814     2420.746        3.333        1.398      196.147       56.541        0.083      339.848       13.461      865.646
12/21/2014  08:31:00     -175.479      -64.718        3.760      149.204       69.157       43.557    22261.723     4782.670     1897.219        3.196        1.447      187.033       53.176        0.081      339.816       13.407      865.583
12/21/2014  08:32:00      -17.415       50.745       26.822       86.168       56.332       42.119     7424.945     3173.342     1773.978        0.798        0.619       53.650       41.899        0.610      339.908       13.562      865.603
12/21/2014  08:33:00      -52.158       82.989      -14.584       51.345       59.168       39.145     2636.302     3500.818     1532.295        0.874        0.383       98.019       29.460        0.090      339.921       13.585      865.574
12/21/2014  08:34:00     -117.176      -41.944       -8.773       44.003       40.912       27.571     1936.237     1673.766      760.167        0.997        0.219      124.456       10.129        0.007      339.989       13.700      865.552
12/21/2014  08:35:00      -40.071       45.479       11.748       48.718       46.899       24.856     2373.462     2199.515      617.831        0.450        0.260       60.614       23.495        0.150      340.035       13.777      865.539
12/21/2014  08:36:00      -48.214      224.951      -34.488       82.876       94.826       40.320     6868.365     8991.943     1625.737        3.580        0.874      230.060       38.061        0.027      339.948       13.625      865.609
12/21/2014  08:37:00      -51.953      339.216      -57.896      113.289      125.569       42.401    12834.382    15767.468     1797.859        7.575        1.520      343.171       51.227        0.022      339.883       13.517      865.655
12/21/2014  08:38:00      -68.528      265.728      -30.088       72.381      111.556       46.864     5239.052    12444.843     2196.275        4.804        0.994      274.422       55.546        0.041      339.913       13.569      865.683
12/21/2014  08:39:00     -219.967      293.378      -52.657       90.788      117.117       53.216     8242.528    13716.369     2831.894        8.100        1.240      366.683       50.551        0.019      339.905       13.554      865.701
12/21/2014  08:40:00      -75.296      358.026      -43.561       85.955       91.862       53.710     7388.181     8438.617     2884.730        7.723        0.936      365.858       55.014        0.023      339.906       13.554      865.706
12/21/2014  08:41:00      -35.030      302.469      -38.887       94.210      103.436       58.689     8875.515    10699.063     3444.429        5.862        1.151      304.491       55.046        0.033      339.929       13.595      865.727
12/21/2014  08:42:00     -222.307       89.448      -31.658      104.749      213.086       63.459    10972.448    45405.460     4027.030        5.940        3.020      239.627       60.062        0.063      340.014       13.740      865.782
12/21/2014  08:43:00     -365.223      -89.872      -16.775      146.106      136.185       65.731    21347.024    18546.332     4320.576        9.297        2.211      376.118       54.321        0.021      339.952       13.632      865.863
12/21/2014  08:44:00     -229.399     -153.504      -12.582      114.185       67.834       50.488    13038.244     4601.405     2549.022        4.826        1.009      276.021       51.138        0.034      339.826       13.423      865.856
12/21/2014  08:45:00     -197.012      -49.813        0.128       96.484       67.937       39.093     9309.206     4615.446     1528.252        2.837        0.773      203.212       48.506        0.057      339.849       13.460      865.858
12/21/2014  08:46:00     -159.372      -78.586       -1.919      102.786       62.864       35.556    10564.888     3951.871     1264.217        2.368        0.789      177.694       45.835        0.067      339.892       13.535      865.920
12/21/2014  08:47:00     -104.991       61.414       -8.113       55.796       54.669       34.508     3113.152     2988.648     1190.772        1.108        0.365      121.634       25.719        0.045      340.028       13.765      865.991
12/21/2014  08:48:00     -163.108      -77.754       -9.915       89.346       82.517       39.024     7982.706     6809.071     1522.861        2.453        0.816      180.692       30.369        0.028      339.938       13.610      866.037
12/21/2014  08:49:00     -227.853       51.313      -33.380       81.107       86.678       43.911     6578.267     7513.017     1928.209        3.584        0.801      233.560       44.935        0.037      339.995       13.706      866.108
12/21/2014  08:50:00     -244.677       -0.539      -39.970      108.730      119.415       41.518    11822.175    14259.843     1723.750        4.463        1.390      244.678       39.226        0.026      339.886       13.524      866.069
12/21/2014  08:51:00     -232.331      -63.307       -8.475      142.207      134.358       64.234    20222.960    18052.199     4126.020        5.022        2.120      240.802       63.742        0.070      339.853       13.467      866.032
12/21/2014  08:52:00     -342.577        7.929      -27.429      155.499      113.176       71.219    24180.063    12808.739     5072.146        8.011        2.103      342.669       69.081        0.041      340.025       13.758      865.990
12/21/2014  08:53:00     -183.878       -8.177       -0.607      117.931       89.793       51.217    13907.837     8062.818     2623.171        2.923        1.230      184.060       45.226        0.060      340.110       13.902      866.007
12/21/2014  08:54:00     -265.092      -73.762      -15.422      129.015      100.802       54.795    16644.803    10160.951     3002.524        5.287        1.490      275.163       59.233        0.046      340.001       13.717      866.036
12/21/2014  08:55:00     -232.495     -109.095       -1.723      103.177      101.023       57.698    10645.401    10205.705     3329.002        4.506        1.209      256.818       55.181        0.046      339.904       13.552      866.053
12/21/2014  08:56:00     -220.995      -76.794       -4.271      106.066      103.063       62.227    11250.035    10622.007     3872.234        4.024        1.287      233.957       46.440        0.039      339.960       13.648      866.049
12/21/2014  08:57:00     -185.450     -122.041       -3.703      135.662      124.218       60.604    18404.280    15430.072     3672.890        4.340        1.875      222.004       46.278        0.043      339.868       13.494      866.026
12/21/2014  08:58:00     -172.643      -41.128      -11.407       92.656       91.306       42.521     8585.202     8336.814     1808.011        2.517        0.937      177.475       45.757        0.066      339.905       13.556      866.030
12/21/2014  08:59:00     -137.632       17.510        4.635       85.288       66.825       55.612     7274.041     4465.573     3092.652        1.705        0.742      138.741       48.577        0.123      340.256       14.150      866.006
12/21/2014  09:00:00     -188.783      -48.026       -3.539       88.837       74.215       39.367     7892.066     5507.827     1549.784        2.645        0.747      194.796       33.434        0.029      339.950       13.632      865.958
12/21/2014  09:01:00     -162.979     -158.547        4.591      149.318      109.330       62.157    22295.886    11953.154     3863.550        4.491        1.906      227.374       73.631        0.105      339.851       13.467      865.922
12/21/2014  09:02:00     -174.776     -165.685       -3.713       78.736       76.543       44.395     6199.327     5858.821     1970.890        3.602        0.701      240.828       35.410        0.022      339.787       13.356      865.936
12/21/2014  09:03:00     -232.547     -158.156       -9.157      121.709       90.322       67.235    14813.076     8158.101     4520.559        5.333        1.375      281.232       66.779        0.056      339.787       13.358      865.947
12/21/2014  09:04:00     -289.176      -82.933      -27.398      103.897       85.534       58.230    10794.552     7316.079     3390.775        5.637        1.075      300.833       50.353        0.028      339.772       13.332      865.963
12/21/2014  09:05:00     -269.852     -119.572      -18.213       99.076       82.194       49.265     9816.080     6755.896     2426.999        5.322        0.950      295.157       49.015        0.028      339.802       13.382      865.947
12/21/2014  09:06:00     -198.292     -145.848       -8.919      116.684       82.019       68.586    13615.080     6727.113     4703.997        4.285        1.252      246.153       69.275        0.079      339.840       13.447      865.923
12/21/2014  09:07:00     -154.668      -75.470       -3.899      106.055       57.201       50.287    11247.643     3271.918     2528.828        2.334        0.852      172.099       60.773        0.125      339.906       13.558      865.940
12/21/2014  09:08:00     -192.468       -7.239       -7.804       78.258       93.583       52.832     6124.332     8757.735     2791.243        2.741        0.884      192.604       42.861        0.050      340.058       13.814      865.999
12/21/2014  09:09:00     -182.242      -13.426      -12.750       90.833       72.475       42.292     8250.631     5252.620     1788.601        2.442        0.765      182.736       38.253        0.044      340.011       13.737      866.073
12/21/2014  09:10:00     -263.163     -149.101       -0.988      120.265      108.985       58.626    14463.588    11877.697     3436.964        6.063        1.489      302.467       47.881        0.025      339.857       13.474      866.136
12/21/2014  09:11:00     -312.002     -183.735      -17.124      149.915       96.879       58.775    22474.624     9385.592     3454.521        8.335        1.766      362.083       58.251        0.026      339.786       13.356      866.203
12/21/2014  09:12:00     -238.731      -55.446      -14.198      118.382      116.349       55.496    14014.218    13537.179     3079.806        4.544        1.532      245.085       54.696        0.050      339.888       13.526      866.215
12/21/2014  09:13:00     -222.880      -72.323       -5.547      156.443       94.520       53.237    24474.528     8934.105     2834.186        4.558        1.812      234.321       73.050        0.097      339.879       13.512      866.225
12/21/2014  09:14:00     -399.912      -30.902      -42.739      146.731       91.447       65.738    21529.975     8362.514     4321.518        9.846        1.711      401.104       78.903        0.039      339.842       13.451      866.241
12/21/2014  09:15:00     -279.686      -72.251      -16.748      116.990       96.766       61.302    13686.673     9363.738     3757.984        5.526        1.340      288.868       68.735        0.057      339.862       13.483      866.249
12/21/2014  09:16:00     -179.780      -49.265       -1.544      101.542       76.341       45.629    10310.683     5828.003     2082.026        2.648        0.911      186.407       50.414        0.073      340.062       13.821      866.238
12/21/2014  09:17:00     -284.263      -89.780      -13.936      109.228      119.332       51.369    11930.862    14240.093     2638.788        5.893        1.440      298.104       49.922        0.028      339.915       13.572      866.232
12/21/2014  09:18:00     -250.608      -41.444      -14.453      106.111       86.236       46.644    11259.483     7436.695     2175.646        4.280        1.044      254.012       51.356        0.041      339.939       13.612      866.242
12/21/2014  09:19:00     -222.681      -41.273      -13.651      158.964       68.383       55.171    25269.498     4676.286     3043.805        4.223        1.649      226.473       77.114        0.116      339.922       13.585      866.259
12/21/2014  09:20:00     -132.838       -2.600       -2.573       75.518       60.094       45.937     5703.034     3611.229     2110.221        1.454        0.571      132.864       39.603        0.089      340.336       14.285      866.263
12/21/2014  09:21:00     -168.546      -35.562       -3.101      103.749       79.554       37.776    10763.836     6328.836     1427.038        2.410        0.926      172.257       40.455        0.055      340.147       13.965      866.247
12/21/2014  09:22:00     -189.286     -107.393       -5.310      141.048      121.659       58.870    19894.636    14800.850     3465.657        4.277        1.908      217.629       69.496        0.102      340.044       13.790      866.247
12/21/2014  09:23:00     -293.238     -146.983      -10.978      135.572      111.558       67.989    18379.859    12445.103     4622.530        7.157        1.772      328.013       52.932        0.026      339.895       13.538      866.246
12/21/2014  09:24:00     -305.981     -245.707      -18.223      145.506      115.425       85.074    21171.899    13322.835     7237.617        9.802        2.087      392.424       89.778        0.052      339.914       13.568      866.258
12/21/2014  09:25:00     -336.711     -168.180      -23.369      122.736      110.269       57.439    15064.086    12159.290     3299.225        8.636        1.526      376.376       59.491        0.025      339.875       13.504      866.298
12/21/2014  09:26:00     -368.325     -167.942      -13.129      163.575      135.957       69.302    26756.656    18484.402     4802.754       10.703        2.502      404.806       74.547        0.034      339.894       13.536      866.320
12/21/2014  09:27:00     -326.170      -83.091      -15.803      176.298      102.736       63.852    31080.943    10554.664     4077.025        7.962        2.286      336.588       65.848        0.038      339.899       13.546      866.349
12/21/2014  09:28:00     -281.777     -195.062       -6.056      131.537      113.280       54.125    17302.077    12832.289     2929.496        7.527        1.653      342.706       47.996        0.020      339.951       13.632      866.367
12/21/2014  09:29:00     -213.036     -194.736        8.784      145.212      127.786       75.419    21086.469    16329.199     5688.070        6.324        2.155      288.628       73.899        0.066      339.995       13.707      866.377
12/21/2014  09:30:00     -261.236     -151.000       -8.375      123.026       71.372       50.266    15135.336     5094.009     2526.696        5.693        1.138      301.737       52.376        0.030      339.941       13.617      866.407
12/21/2014  09:31:00     -115.491      -97.591        1.478      107.531       68.332       56.440    11562.832     4669.223     3185.499        2.114        0.971      151.202       63.432        0.176      339.958       13.645      866.363
12/21/2014  09:32:00     -125.448      -59.456       15.512      109.929       94.860       57.634    12084.315     8998.502     3321.703        2.195        1.220      138.824       63.337        0.208      340.154       13.977      866.336
12/21/2014  09:33:00     -273.501     -201.102       -1.485      145.470       94.242       67.491    21161.570     8881.540     4555.032        7.492        1.730      339.477       66.996        0.039      339.916       13.574      866.338
12/21/2014  09:34:00     -209.977     -159.373       -2.888       94.599       67.438       47.409     8948.993     4547.869     2247.592        4.262        0.787      263.610       40.699        0.024      339.941       13.616      866.317
12/21/2014  09:35:00      -78.958      -78.102       10.892       77.548       48.120       29.776     6013.693     2315.571      886.623        1.083        0.461      111.060       31.723        0.082      340.000       13.718      866.348
12/21/2014  09:36:00     -177.144     -221.254      -13.860       92.473       95.612       42.429     8551.326     9141.650     1800.248        5.001        0.975      283.432       33.144        0.014      339.936       13.608      866.392
12/21/2014  09:37:00     -129.119     -263.890       -0.141      129.116      142.855       59.251    16671.061    20407.439     3510.638        6.344        2.029      293.785       70.278        0.057      339.901       13.548      866.346
12/21/2014  09:38:00     -158.411     -312.743        9.160      109.720      112.548       73.686    12038.471    12667.144     5429.617        7.655        1.507      350.574       52.310        0.022      339.907       13.559      866.302
12/21/2014  09:39:00     -406.212     -132.205      -28.247      123.410      127.007       62.625    15230.062    16130.810     3921.876       10.928        1.764      427.184       59.658        0.020      339.916       13.573      866.290
12/21/2014  09:40:00      -73.444       19.930       -5.212       96.220       66.786       39.007     9258.224     4460.403     1521.516        1.053        0.762       76.100       24.767        0.106      340.090       13.870      866.261
12/21/2014  09:41:00     -133.005     -109.103        2.048       92.644       69.864       46.171     8582.827     4880.995     2131.755        2.259        0.780      172.028       48.046        0.078      339.948       13.629      866.280
12/21/2014  09:42:00     -165.129     -120.593        0.937      138.596       68.784       64.088    19208.942     4731.246     4107.329        3.492        1.402      204.476       68.541        0.112      340.010       13.733      866.315
12/21/2014  09:43:00     -205.045     -109.643       -6.860      170.520       89.035       81.302    29077.005     7927.197     6609.963        4.885        2.181      232.519       82.477        0.126      340.062       13.821      866.314
12/21/2014  09:44:00     -377.364     -255.450      -44.018      176.890      159.756       81.881    31290.129    25521.898     6704.514       13.654        3.176      455.695       74.386        0.027      340.014       13.739      866.368
12/21/2014  09:45:00     -212.118      -96.862      -13.533      126.848      101.912       63.283    16090.431    10386.100     4004.775        4.251        1.524      233.187       56.159        0.058      340.063       13.821      866.404
12/21/2014  09:46:00     -195.336     -109.063        0.986      148.366      110.283       59.039    22012.432    12162.341     3485.628        4.385        1.883      223.721       79.115        0.125      340.110       13.902      866.387
12/21/2014  09:47:00     -191.545      -23.474      -15.839       81.534       62.968       39.085     6647.843     3965.030     1527.659        2.481        0.607      192.978       28.584        0.022      340.117       13.913      866.395
12/21/2014  09:48:00       19.960       79.297        6.741       60.836       74.072       33.701     3701.001     5486.622     1135.771        0.853        0.516       81.770       31.153        0.145      340.190       14.038      866.342
12/21/2014  09:49:00      111.579      124.152       -2.387       52.965       64.713       49.649     2805.274     4187.782     2465.063        1.866        0.473      166.924       47.798        0.082      340.172       14.007      866.268
12/21/2014  09:50:00       91.744      106.653       -7.089       77.674       73.165       56.392     6033.321     5353.151     3180.092        1.720        0.728      140.683       53.280        0.143      340.246       14.133      866.193
12/21/2014  09:51:00       70.629      125.932      -20.036       63.244      103.697       49.455     3999.778    10753.015     2445.792        1.922        0.860      144.386       57.002        0.156      340.206       14.064      866.193
12/21/2014  09:52:00       42.806      166.006      -29.900       42.021       51.366       38.764     1765.745     2638.430     1502.672        1.809        0.295      171.436       21.591        0.016      340.132       13.939      866.232
12/21/2014  09:53:00       45.074      137.637      -26.023       49.815       54.598       38.312     2481.538     2980.938     1467.811        1.429        0.347      144.829       30.817        0.045      340.125       13.928      866.266
12/21/2014  09:54:00       78.844       56.152       12.495       48.482       46.530       37.764     2350.498     2165.069     1426.098        0.773        0.297       96.796       24.258        0.063      340.132       13.943      866.255
12/21/2014  09:55:00      215.898      114.448       31.185      126.524       80.470       68.083    16008.342     6475.378     4635.258        4.390        1.356      244.357       51.025        0.044      340.089       13.868      866.241
12/21/2014  09:56:00      152.152       75.704       29.432      105.872       78.606       70.022    11208.838     6178.895     4903.093        2.601        1.115      169.945       46.226        0.074      340.161       13.988      866.232
12/21/2014  09:57:00      115.432       93.673       16.368       79.999       53.515       49.196     6399.799     2863.894     2420.207        1.702        0.584      148.658       30.225        0.041      340.137       13.951      866.222
12/21/2014  09:58:00      101.059       73.671       42.071       64.643       50.225       53.235     4178.690     2522.534     2833.944        1.347        0.477      125.061       25.057        0.040      340.248       14.136      866.222
12/21/2014  09:59:00       66.495       85.297       63.632       82.658       77.908       94.053     6832.307     6069.666     8845.888        1.874        1.087      108.153       74.968        0.480      340.210       14.071      866.227
12/21/2014  10:00:00       49.962       55.583       19.408       86.125       36.302       37.313     7417.571     1317.842     1392.261        0.804        0.506       74.737       32.523        0.189      340.246       14.135      866.229
12/21/2014  10:01:00        5.696       42.443       60.939       28.959       57.958       38.959      838.620     3359.134     1517.805        0.563        0.286       42.824       41.076        0.920      340.236       14.116      866.172
12/21/2014  10:02:00       36.852       95.873       92.873       49.480       39.829       38.295     2448.248     1586.348     1466.544        1.234        0.275      102.712       34.582        0.113      340.196       14.049      866.048
12/21/2014  10:03:00       43.518       -6.224       44.539       51.671       96.130       46.401     2669.940     9240.896     2153.091        0.899        0.703       43.960       59.810        1.851      340.230       14.107      865.955
12/21/2014  10:04:00       57.626     -106.870        0.684       63.511       56.017       36.414     4033.708     3137.914     1325.971        1.162        0.425      121.416       30.473        0.063      340.244       14.131      865.925
12/21/2014  10:05:00       20.840       -5.094       75.931       43.944       71.160       41.119     1931.044     5063.715     1690.736        0.745        0.434       21.454       37.640        3.078      340.412       14.415      865.881
12/21/2014  10:06:00       13.514       80.661       98.457       41.994       42.409       27.757     1763.503     1798.541      770.435        1.036        0.217       81.785       23.439        0.082      340.318       14.256      865.815
12/21/2014  10:07:00      -13.159       -8.716       -5.447       49.853       89.522       40.141     2485.319     8014.138     1611.295        0.619        0.606       15.784       25.886        2.690      340.323       14.263      865.769
12/21/2014  10:08:00      -44.582      216.461      -43.654      101.331      102.336       34.259    10268.052    10472.662     1173.667        3.633        1.096      221.005       25.443        0.013      340.239       14.117      865.748
12/21/2014  10:09:00     -143.592      -75.178      -16.132       76.365       76.637       35.201     5831.546     5873.155     1239.144        1.973        0.647      162.081       31.904        0.039      340.376       14.351      865.772
12/21/2014  10:10:00      -44.139      -52.491        3.920       59.074       59.137       27.374     3489.768     3497.152      749.341        0.623        0.387       68.582       24.039        0.123      340.251       14.142      865.761
12/21/2014  10:11:00      -19.908        0.703       16.192       49.045       30.689       26.351     2405.384      941.812      694.355        0.235        0.202       19.920       32.511        2.664      340.633       14.788      865.670
12/21/2014  10:12:00     -118.703       21.065       -4.362       53.749       54.290       31.521     2889.003     2947.443      993.571        1.069        0.342      120.558       28.263        0.055      340.588       14.713      865.627
12/21/2014  10:13:00     -162.679       15.046      -16.974       63.137       56.710       33.109     3986.319     3216.058     1096.233        1.764        0.415      163.373       24.953        0.023      340.520       14.596      865.596
12/21/2014  10:14:00     -178.865       45.887      -18.053       94.685       55.461       43.345     8965.241     3075.946     1878.798        2.417        0.696      184.657       48.364        0.069      340.672       14.853      865.564
12/21/2014  10:15:00      -86.939       35.827       -9.101       88.539       51.936       46.208     7839.076     2697.395     2135.143        1.080        0.634       94.031       56.110        0.356      340.609       14.747      865.549
12/21/2014  10:16:00      -58.535      -29.203       -8.803       70.926       75.149       29.786     5030.544     5647.401      887.195        0.796        0.578       65.415       19.595        0.090      340.452       14.481      865.532
12/21/2014  10:17:00     -308.937      -75.151      -15.676       88.183       85.162       47.193     7776.198     7252.493     2227.179        5.929        0.863      317.946       43.420        0.019      340.342       14.291      865.576
12/21/2014  10:18:00     -360.422      -55.980      -29.425      128.003       97.278       65.970    16384.769     9463.038     4352.074        8.205        1.510      364.743       68.445        0.035      340.424       14.433      865.587
12/21/2014  10:19:00     -411.257     -124.585       -3.437      172.253      115.631       70.118    29671.176    13370.519     4916.488       11.630        2.398      429.713       75.734        0.031      340.285       14.197      865.602
12/21/2014  10:20:00     -395.293     -162.911      -12.522      123.726      116.471       68.030    15308.138    13565.419     4628.128       10.822        1.675      427.547       62.314        0.021      340.253       14.142      865.646
12/21/2014  10:21:00     -239.550      -65.723      -26.566      102.584      106.646       47.459    10523.425    11373.465     2252.313        4.327        1.207      248.402       44.905        0.033      340.310       14.239      865.716
12/21/2014  10:22:00     -123.967        9.646       -7.994       76.385       71.832       37.246     5834.617     5159.830     1387.279        1.395        0.619      124.341       38.393        0.095      340.597       14.727      865.709
12/21/2014  10:23:00      -72.002      -74.209        7.117       72.291       80.546       43.647     5225.949     6487.642     1905.086        1.218        0.681      103.398       46.380        0.201      340.581       14.700      865.767
12/21/2014  10:24:00     -122.926       12.295       13.256      118.079       76.162       57.170    13942.603     5800.671     3268.441        1.922        1.151      123.539       60.789        0.242      340.836       15.129      865.797
12/21/2014  10:25:00     -487.648      -21.544      -52.413      135.065      158.247       69.607    18242.426    25042.112     4845.100       14.456        2.406      488.124       69.163        0.020      340.400       14.391      865.793
12/21/2014  10:26:00     -191.504       29.704      -24.686       90.732       94.867       56.924     8232.383     8999.686     3240.318        2.931        1.024      193.794       48.203        0.062      340.471       14.512      865.761
12/21/2014  10:27:00     -108.566       -7.003        7.887       85.937       67.608       41.647     7385.211     4570.898     1734.441        1.279        0.685      108.791       35.321        0.105      340.548       14.644      865.777
12/21/2014  10:28:00     -118.311      124.670      -15.461       64.213       54.166       53.239     4123.260     2933.982     2834.342        1.983        0.495      171.872       36.287        0.045      340.543       14.634      865.796
12/21/2014  10:29:00      -99.225       83.478        1.399      115.859      156.524       62.693    13423.240    24499.864     3930.418        2.933        2.093      129.669       70.883        0.299      340.527       14.607      865.813
12/21/2014  10:30:00      -48.528        0.546        8.225       68.482       28.028       31.100     4689.766      785.576      967.216        0.443        0.322       48.532       23.790        0.240      340.562       14.668      865.832
12/21/2014  10:31:00     -141.699      -22.135      -13.572       88.238       63.871       35.514     7786.027     4079.564     1261.214        1.694        0.656      143.418       32.602        0.052      340.539       14.628      865.911
12/21/2014  10:32:00     -131.913       44.551      -17.708       98.690       74.273       46.692     9739.696     5516.421     2180.101        1.856        0.872      139.233       47.072        0.114      340.645       14.807      865.948
12/21/2014  10:33:00     -223.948      238.192      -36.879       95.812       75.264       51.819     9179.967     5664.738     2685.170        6.289        0.876      326.938       52.309        0.026      340.564       14.667      865.986
12/21/2014  10:34:00     -146.714      258.358      -21.669       95.317      128.424       64.883     9085.293    16492.827     4209.798        5.926        1.489      297.109       65.902        0.049      340.626       14.773      866.032
12/21/2014  10:35:00     -171.951      112.011      -27.603       96.802      134.228       53.036     9370.544    18017.138     2812.787        3.653        1.510      205.216       63.878        0.097      340.738       14.963      866.026
12/21/2014  10:36:00      -75.522      140.339      -23.892      123.137      133.224       54.027    15162.619    17748.590     2918.894        3.089        1.792      159.369       70.103        0.193      340.614       14.754      865.957
12/21/2014  10:37:00     -138.447       -2.021      -13.107       86.254       81.083       37.909     7439.730     6574.467     1437.070        1.739        0.773      138.461       31.867        0.053      340.806       15.080      865.995
12/21/2014  10:38:00     -134.119      -13.156      -15.043       56.090       55.819       34.171     3146.119     3115.784     1167.633        1.291        0.371      134.763       25.953        0.037      340.798       15.067      866.030
12/21/2014  10:39:00     -191.064      -26.715      -15.155       89.203       52.683       40.587     7957.252     2775.455     1647.283        2.491        0.619      192.922       46.700        0.059      340.856       15.162      865.992
12/21/2014  10:40:00     -166.768      -57.000        6.521      112.465      104.857       48.597    12648.403    10995.048     2361.623        2.855        1.300      176.240       53.011        0.090      340.732       14.955      865.948
12/21/2014  10:41:00     -186.523      -10.418      -13.923       90.134       50.118       34.250     8124.213     2511.828     1173.067        2.345        0.590      186.813       39.864        0.046      340.768       15.015      865.938
12/21/2014  10:42:00     -205.507        2.253      -24.903       63.437       53.761       34.939     4024.223     2890.196     1220.746        2.550        0.407      205.519       32.329        0.025      340.749       14.981      865.924
12/21/2014  10:43:00     -136.830       -9.344       -3.948      109.519       75.101       37.432    11994.368     5640.157     1401.158        1.893        0.952      137.149       50.559        0.136      340.788       15.048      865.927
12/21/2014  10:44:00      -39.438      -82.744      -10.796      105.426       53.966       37.510    11114.566     2912.327     1407.031        1.197        0.772       91.662       27.258        0.088      340.783       15.041      865.814
12/21/2014  10:45:00     -330.965     -109.909      -25.326      115.705      101.930       44.610    13387.548    10389.714     1990.082        7.401        1.288      348.738       49.243        0.020      340.581       14.698      865.860
12/21/2014  10:46:00     -421.170      -11.128      -23.884      126.540      132.617       68.453    16012.308    17587.361     4685.779       10.817        1.914      421.317       61.321        0.021      340.719       14.930      865.898
12/21/2014  10:47:00     -396.174     -109.784       -9.841      137.013      116.486       61.870    18772.621    13568.878     3827.887       10.263        1.808      411.104       61.323        0.022      340.548       14.641      865.914
12/21/2014  10:48:00     -322.709     -201.298       -3.453      182.878      130.280       72.850    33444.411    16972.848     5307.066       10.019        2.786      380.344       89.692        0.056      340.575       14.687      865.889
12/21/2014  10:49:00     -237.151     -124.494       -9.374      193.609      138.221       91.653    37484.592    19105.087     8400.191        6.840        3.249      267.842       99.729        0.139      340.668       14.845      865.889
12/21/2014  10:50:00     -325.650     -189.276       -2.522      211.612      143.042       77.673    44779.705    20461.099     6033.097       10.656        3.564      376.661       97.012        0.066      340.662       14.834      865.913
12/21/2014  10:51:00     -176.036     -138.553        7.876      186.054      130.155       95.658    34616.192    16940.345     9150.371        5.547        3.035      224.021      108.627        0.235      340.671       14.849      865.943
12/21/2014  10:52:00     -333.880      -92.458      -20.168      145.427      138.538       69.656    21148.917    19192.883     4851.956        8.280        2.260      346.445       74.005        0.046      340.615       14.755      865.906
12/21/2014  10:53:00     -275.034      -60.465      -18.349      143.740      120.829       45.629    20661.055    14599.586     2081.965        5.848        1.867      281.602       38.634        0.019      340.743       14.971      865.856
12/21/2014  10:54:00     -373.951     -112.045      -29.074      103.051       99.168       56.991    10619.604     9834.374     3247.932        8.847        1.185      390.376       53.105        0.019      340.702       14.902      865.907
12/21/2014  10:55:00     -295.648     -168.312        9.262      136.734      100.512       69.758    18696.269    10102.628     4866.243        7.474        1.683      340.201       65.880        0.038      340.778       15.030      865.943
12/21/2014  10:56:00     -181.114     -119.163        2.871      120.078      114.681       53.704    14418.822    13151.812     2884.163        3.873        1.523      216.800       53.077        0.060      340.734       14.956      865.957
12/21/2014  10:57:00     -194.368     -177.222       -8.856      122.514       94.095       71.199    15009.659     8853.839     5069.356        4.909        1.447      263.033       70.936        0.073      340.677       14.860      865.917
12/21/2014  10:58:00     -273.327     -164.918       -5.521       97.192       92.177       58.781     9446.296     8496.612     3455.149        6.166        1.070      319.226       60.028        0.035      340.632       14.783      865.903
12/21/2014  10:59:00     -289.041     -183.612       -5.716      173.311      109.032       71.758    30036.568    11888.006     5149.201        8.217        2.354      342.429       86.174        0.063      340.710       14.916      865.929
12/21/2014  11:00:00     -345.987     -289.550       -2.654      206.887      148.697       91.833    42802.092    22110.658     8433.336       13.843        3.667      451.161       99.230        0.048      340.563       14.666      865.966
12/21/2014  11:01:00     -282.674     -176.578       -0.629      128.813       89.274       58.835    16592.808     7969.772     3461.510        6.955        1.401      333.293       70.401        0.045      340.536       14.621      865.945
12/21/2014  11:02:00     -193.384     -141.269       -4.974      139.608      118.768       63.247    19490.397    14105.956     4000.184        4.748        1.880      239.487       76.699        0.103      340.637       14.793      865.924
12/21/2014  11:03:00     -165.505     -145.849       12.778      133.212       78.336       72.661    17745.537     6136.518     5279.664        3.899        1.458      220.599       75.770        0.118      340.650       14.814      865.884
12/21/2014  11:04:00     -243.119      -89.352       -0.875      106.028       79.880       46.161    11241.880     6380.883     2130.836        4.342        0.988      259.019       51.982        0.040      340.674       14.854      865.850
12/21/2014  11:05:00     -178.984     -160.491       14.166      151.889      111.985       71.947    23070.315    12540.674     5176.421        4.938        2.039      240.401       83.356        0.120      340.738       14.963      865.850
12/21/2014  11:06:00     -339.140     -171.394       -0.793      149.053      110.423       64.047    22216.886    12193.268     4101.991        9.144        1.926      379.989       70.601        0.035      340.662       14.834      865.856
12/21/2014  11:07:00     -308.022     -208.195       -6.158      188.400      125.308       70.791    35494.373    15702.204     5011.436        9.722        2.810      371.783       90.847        0.060      340.654       14.821      865.834
12/21/2014  11:08:00     -263.409     -152.048       -3.945      153.269      101.304       62.439    23491.261    10262.530     3898.597        6.508        1.883      304.143       56.545        0.035      340.574       14.686      865.832
12/21/2014  11:09:00     -192.271     -148.070       -2.080       87.379       81.795       54.624     7635.059     6690.359     2983.763        3.810        0.865      242.679       57.868        0.057      340.608       14.741      865.800
12/21/2014  11:10:00     -278.256     -229.751      -10.602      152.083      125.565       76.508    23129.356    15766.458     5853.463        8.753        2.237      360.849       86.815        0.058      340.590       14.713      865.793
12/21/2014  11:11:00     -326.587     -260.156      -10.463      165.092      127.599       79.720    27255.328    16281.396     6355.243       11.216        2.495      417.541       87.363        0.044      340.553       14.649      865.755
12/21/2014  11:12:00     -374.249     -228.135      -20.353      108.775       79.879       55.256    11831.956     6380.591     3053.200       10.689        1.063      438.301       45.942        0.011      340.562       14.665      865.775
12/21/2014  11:13:00     -342.489     -180.193       -5.850      215.666      114.704       84.234    46511.830    13156.999     7095.396       10.827        3.338      386.999      119.544        0.095      340.605       14.737      865.847
12/21/2014  11:14:00     -268.810     -219.799       -5.448      179.246      165.833       92.930    32128.956    27500.641     8636.008        9.442        3.413      347.233       95.551        0.076      340.669       14.847      865.835
12/21/2014  11:15:00     -204.596      -98.303      -14.599      126.692      138.887       69.220    16050.967    19289.563     4791.393        4.593        2.007      226.987       71.365        0.099      340.776       15.029      865.903
12/21/2014  11:16:00     -219.343      -42.275      -18.935       92.624       90.472       49.780     8579.196     8185.211     2478.006        3.475        0.962      223.380       45.043        0.041      340.769       15.015      865.924
12/21/2014  11:17:00     -268.750      -52.965      -24.045      114.155       66.167       42.337    13031.336     4378.122     1792.420        4.740        0.960      273.920       54.474        0.040      340.675       14.857      865.848
12/21/2014  11:18:00     -236.193      -13.593      -20.806      123.931       60.490       48.664    15358.875     3659.091     2368.228        3.889        1.069      236.583       60.383        0.065      340.752       14.987      865.863
12/21/2014  11:19:00     -260.091       26.708      -29.750      105.900      102.133       56.600    11214.766    10431.246     3203.590        4.704        1.242      261.458       51.792        0.039      340.806       15.079      865.883
12/21/2014  11:20:00     -280.869      -47.540      -36.553       73.061       74.946       33.204     5337.851     5616.913     1102.537        4.727        0.603      284.864       32.519        0.013      340.728       14.947      865.874
12/21/2014  11:21:00     -160.026      -36.855       -3.040      113.356       78.892       44.980    12849.686     6223.871     2023.230        2.403        1.055      164.215       52.018        0.100      340.903       15.243      865.841
12/21/2014  11:22:00     -270.773      -91.616      -32.638       96.095       84.605       46.811     9234.164     7158.087     2191.273        5.068        0.929      285.852       41.053        0.021      340.833       15.123      865.863
12/21/2014  11:23:00     -124.295      -75.166        3.095       81.536       54.817       33.048     6648.134     3004.943     1092.155        1.592        0.537      145.256       22.729        0.024      340.774       15.025      865.842
12/21/2014  11:24:00     -136.117      -50.065        0.059       69.098       65.305       43.031     4774.589     4264.692     1851.665        1.596        0.545      145.032       40.515        0.078      340.925       15.283      865.845
12/21/2014  11:25:00     -266.897      -19.884      -24.128       81.376       59.040       37.857     6622.125     3485.721     1433.170        4.187        0.577      267.637       40.586        0.023      340.848       15.150      865.841
12/21/2014  11:26:00     -214.217      -70.612      -18.494       60.337       79.691       41.283     3640.596     6350.725     1704.267        3.145        0.585      225.555       31.051        0.019      340.993       15.392      865.840
12/21/2014  11:27:00     -146.080        1.046      -15.003       65.184       97.236       44.297     4248.951     9454.811     1962.198        1.861        0.783      146.084       35.256        0.058      340.923       15.279      865.832
12/21/2014  11:28:00     -211.355      -64.740      -18.755      115.906       75.037       39.796    13434.153     5630.508     1583.719        3.493        1.032      221.048       42.746        0.037      340.988       15.387      865.787
12/21/2014  11:29:00     -374.804     -144.675      -18.035      116.357      112.803       68.368    13539.060    12724.550     4674.144        9.633        1.547      401.758       58.945        0.022      340.880       15.203      865.772
12/21/2014  11:30:00     -361.567      -75.418      -12.080      158.370      125.972       79.126    25080.940    15869.048     6260.886        9.188        2.361      369.349       85.185        0.053      340.921       15.271      865.792
12/21/2014  11:31:00     -283.357     -102.157       -8.784      150.581      126.649       59.947    22674.767    16039.989     3593.681        6.655        2.115      301.210       58.604        0.038      340.945       15.314      865.780
12/21/2014  11:32:00     -210.725      -55.017       -3.965      115.553      106.905       60.753    13352.582    11428.710     3690.948        3.795        1.424      217.789       58.805        0.073      341.025       15.449      865.744
12/21/2014  11:33:00     -208.254      -72.569       -3.636      125.566       77.395       49.598    15766.888     5990.059     2459.990        3.643        1.211      220.536       52.232        0.056      341.010       15.423      865.703
12/21/2014  11:34:00     -311.481     -103.485      -15.884      118.045       93.385       54.414    13934.511     8720.800     2960.830        6.679        1.281      328.221       58.718        0.032      341.003       15.411      865.677
12/21/2014  11:35:00     -312.665        4.948      -10.234      193.207      114.372       70.316    37329.122    13081.002     4944.347        7.661        2.768      312.704       89.426        0.082      341.074       15.532      865.656
12/21/2014  11:36:00     -259.343      -40.443       -3.888      157.339      100.938       52.623    24755.701    10188.492     2769.183        5.330        1.886      262.477       58.183        0.049      341.037       15.469      865.621
12/21/2014  11:37:00     -322.452      -20.496      -27.775      138.572       93.920       59.345    19202.161     8821.051     3521.773        6.835        1.577      323.103       55.830        0.030      340.984       15.378      865.543
12/21/2014  11:38:00     -233.091       19.316      -28.288      109.809      114.416       61.395    12058.045    13090.907     3769.286        4.221        1.446      233.890       55.324        0.056      341.119       15.607      865.511
12/21/2014  11:39:00     -155.066      -40.534      -17.346       91.458      107.493       53.378     8364.549    11554.769     2849.232        2.437        1.138      160.276       50.424        0.099      341.211       15.764      865.490
12/21/2014  11:40:00     -264.091      -93.838      -20.669      135.431       86.915       49.915    18341.600     7554.254     2491.520        5.368        1.419      280.267       55.475        0.039      341.056       15.501      865.454
12/21/2014  11:41:00     -270.113     -129.576       -6.986      112.495       76.130       51.350    12655.202     5795.779     2636.789        5.544        1.054      299.585       53.215        0.032      341.016       15.432      865.373
12/21/2014  11:42:00     -227.549      -84.465      -17.230       78.248       75.952       37.995     6122.778     5768.692     1443.653        3.627        0.667      242.720       30.090        0.015      341.211       15.763      865.351
12/21/2014  11:43:00     -232.372      -66.825       -0.246      145.850      124.085       68.552    21272.092    15397.045     4699.329        4.991        2.068      241.790       78.582        0.106      341.202       15.747      865.354
12/21/2014  11:44:00     -344.848     -102.279      -19.884      127.025      107.039       56.268    16135.256    11457.387     3166.062        8.026        1.538      359.696       57.393        0.025      341.206       15.755      865.342
12/21/2014  11:45:00     -356.402     -112.824      -14.038      188.748      143.040       87.012    35625.743    20460.328     7571.009       10.179        3.183      373.834       97.224        0.068      341.087       15.553      865.328
12/21/2014  11:46:00     -386.103      -63.804      -14.600      181.476      125.719       73.820    32933.697    15805.148     5449.408       10.376        2.709      391.340       72.049        0.034      341.221       15.780      865.285
12/21/2014  11:47:00     -396.411     -102.688      -28.917      164.546      141.697       73.626    27075.312    20078.014     5420.787       11.054        2.629      409.496       92.372        0.051      341.073       15.529      865.246
12/21/2014  11:48:00     -360.706     -145.264       -9.013      157.042      128.257       64.930    24662.238    16449.759     4215.917        9.830        2.266      388.858       61.743        0.025      341.055       15.500      865.191
12/21/2014  11:49:00     -287.710     -157.065      -16.236      190.209      151.533       93.167    36179.354    22962.124     8680.060        8.775        3.391      327.790      100.686        0.094      341.117       15.604      865.161
12/21/2014  11:50:00     -334.770     -172.711       -8.408      156.245      121.617       74.002    24412.359    14790.665     5476.269        9.332        2.234      376.696       70.467        0.035      341.059       15.506      865.178
12/21/2014  11:51:00     -355.614     -153.689       -7.371      142.898      111.973       57.990    20419.849    12537.971     3362.890        9.322        1.816      387.403       60.635        0.024      341.190       15.726      865.166
12/21/2014  11:52:00     -369.333      -89.305      -22.254      150.626       96.562       60.694    22688.180     9324.202     3683.797        9.028        1.785      379.977       62.515        0.027      341.209       15.760      865.188
12/21/2014  11:53:00     -464.835      -64.317      -23.158      198.836      130.597       80.100    39535.667    17055.605     6416.065       14.186        3.150      469.264       98.393        0.044      341.173       15.699      865.147
12/21/2014  11:54:00     -393.873      -50.558       -2.180      209.282      131.695       89.309    43799.082    17343.661     7976.174       11.339        3.456      397.105      107.006        0.073      341.269       15.862      865.119
12/21/2014  11:55:00     -357.240     -216.608      -13.605      196.405      162.500       86.821    38575.069    26406.190     7537.881       12.361        3.626      417.779       84.803        0.041      341.194       15.734      865.119
12/21/2014  11:56:00     -423.908     -205.411      -46.051      219.122      157.305      107.258    48014.470    24744.860    11504.184       15.412        4.213      471.054      104.058        0.049      341.128       15.621      865.126
12/21/2014  11:57:00     -351.694      -84.655      -19.729      154.827      172.387       73.811    23971.334    29717.337     5448.045        9.518        2.957      361.739       77.802        0.046      341.266       15.856      865.174
12/21/2014  11:58:00     -365.441      -97.317        0.891      211.992      121.258       78.096    44940.557    14703.394     6099.049       10.437        3.287      378.177      102.972        0.074      341.187       15.722      865.161
12/21/2014  11:59:00     -396.080      -52.217      -24.378      216.660      144.291       88.072    46941.573    20819.937     7756.616       11.784        3.776      399.507       98.242        0.060      341.193       15.734      865.162
12/21/2014  12:00:00     -448.625      -63.323       -1.268      206.175      140.561      101.111    42508.070    19757.422    10223.346       13.887        3.624      453.072      114.425        0.064      341.185       15.719      865.148
12/21/2014  12:01:00     -286.082      -54.126      -20.954      197.683      148.055       70.031    39078.446    21920.356     4904.289        7.554        3.295      291.158       69.042        0.056      341.204       15.751      865.137
12/21/2014  12:02:00     -332.458      -55.870       -9.772      168.103      137.168       85.130    28258.610    18815.022     7247.150        8.402        2.716      337.119       84.632        0.063      341.161       15.678      865.119
12/21/2014  12:03:00     -431.491      -81.134       -9.212      238.072      177.110       95.120    56678.423    31368.108     9047.739       14.495        4.855      439.053       99.957        0.052      341.198       15.742      865.130
12/21/2014  12:04:00     -358.898     -180.633      -19.873      138.668      175.521       72.616    19228.871    30807.615     5273.038       10.856        2.765      401.791       77.559        0.037      341.161       15.677      865.193
12/21/2014  12:05:00     -333.845     -216.434      -19.364      194.885      131.137       82.452    37980.074    17196.961     6798.304       11.031        3.099      397.864       67.388        0.029      341.053       15.495      865.229
12/21/2014  12:06:00     -327.961      -33.793      -11.859      167.637      104.452       67.973    28102.106    10910.265     4620.261        7.623        2.182      329.697       71.488        0.047      341.237       15.806      865.251
12/21/2014  12:07:00     -370.207     -111.040      -13.336      188.584      155.039       81.041    35564.015    24036.944     6567.701       10.785        3.308      386.501       96.839        0.063      341.219       15.776      865.216
12/21/2014  12:08:00     -284.163      -91.795        0.988      139.813      106.247       62.798    19547.781    11288.352     3943.631        6.197        1.739      298.622       65.596        0.048      341.274       15.868      865.218
12/21/2014  12:09:00     -391.947      -80.487        2.835      203.126      119.490       70.154    41260.172    14277.805     4921.599       11.027        3.023      400.125       92.915        0.054      341.256       15.839      865.207
12/21/2014  12:10:00     -314.010      -42.547       11.320      175.879      134.777       98.208    30933.460    18164.839     9644.818        7.963        2.937      316.880      107.295        0.115      341.225       15.786      865.206
12/21/2014  12:11:00     -528.113       -9.933      -29.044      244.461      185.530       99.568    59760.996    34421.393     9913.752       19.195        5.205      528.206      119.692        0.051      341.187       15.723      865.169
12/21/2014  12:12:00     -418.485     -101.105       -4.203      181.568      155.653       84.504    32967.067    24228.006     7140.873       12.484        3.217      430.526       90.220        0.044      341.145       15.652      865.117
12/21/2014  12:13:00     -354.559     -106.662       -6.867      194.475      135.290       75.332    37820.422    18303.490     5674.861        9.945        3.090      370.255       85.052        0.053      341.113       15.598      865.110
12/21/2014  12:14:00     -288.164      -99.981       -4.528      139.832       97.616       60.282    19552.936     9528.817     3633.932        6.288        1.636      305.016       71.936        0.056      341.135       15.635      865.119
12/21/2014  12:15:00     -230.122     -101.772       -1.117      173.621      118.393       76.930    30144.121    14016.987     5918.245        5.669        2.504      251.622       99.653        0.157      341.198       15.741      865.102
12/21/2014  12:16:00     -330.439     -117.992      -14.147      185.750      166.502       81.072    34503.224    27722.844     6572.739        9.604        3.440      350.873       71.697        0.042      341.167       15.689      865.089
12/21/2014  12:17:00     -441.831     -120.065      -33.154      194.130      161.941       81.396    37686.617    26224.765     6625.243       14.062        3.527      457.854       71.956        0.025      341.116       15.600      865.092
12/21/2014  12:18:00     -305.821     -131.585      -18.977      157.548      130.514       78.277    24821.439    17033.948     6127.292        7.958        2.399      332.928       73.229        0.048      341.140       15.643      865.141
12/21/2014  12:19:00     -272.869     -160.448        0.700      263.157      144.543       97.488    69251.442    20892.754     9503.844        9.990        4.982      316.545      115.267        0.133      341.101       15.578      865.147
12/21/2014  12:20:00     -288.649     -144.700       -8.806      159.367      123.539       78.914    25397.689    15261.847     6227.372        7.560        2.344      322.887       75.726        0.055      341.084       15.548      865.126
12/21/2014  12:21:00     -221.636     -181.205       23.879      211.435      159.099       98.613    44704.563    25312.639     9724.472        8.112        3.987      286.282      120.831        0.178      341.128       15.622      865.099
12/21/2014  12:22:00     -340.237     -215.693       -4.835      181.014      120.457       86.565    32765.962    14509.772     7493.578       10.853        2.738      402.846       98.527        0.060      341.092       15.560      865.087
12/21/2014  12:23:00     -351.946     -193.340      -26.521      154.637      125.870       64.357    23912.662    15843.132     4141.814       10.292        2.195      401.555       45.734        0.013      341.088       15.554      865.103
12/21/2014  12:24:00     -237.237      -50.629       -4.446      147.534      106.482       63.705    21766.378    11338.384     4058.346        4.801        1.858      242.580       65.495        0.073      341.235       15.805      865.156
12/21/2014  12:25:00     -195.466     -130.837        1.427      159.038      103.232       64.930    25292.950    10656.779     4215.934        4.774        2.008      235.213       66.423        0.080      341.147       15.653      865.135
12/21/2014  12:26:00     -193.060     -163.058       -5.334      194.651      148.111       81.202    37888.953    21936.839     6593.724        6.514        3.321      252.706      104.376        0.171      341.176       15.706      865.095
12/21/2014  12:27:00     -176.776      -95.404       -8.452      134.326      121.319       76.698    18043.507    14718.263     5882.526        3.953        1.932      200.877       52.153        0.067      341.152       15.663      865.096
12/21/2014  12:28:00     -160.194      -78.044        4.066      134.627      101.356       61.624    18124.546    10273.094     3797.510        3.198        1.610      178.194       65.817        0.136      341.208       15.760      865.130
12/21/2014  12:29:00     -276.822     -160.777       -8.230      143.911      140.001       75.679    20710.307    19600.294     5727.379        7.428        2.302      320.124       77.540        0.059      341.168       15.690      865.099
12/21/2014  12:30:00     -291.441     -186.089       -3.145      236.570      157.367       76.581    55965.170    24764.386     5864.586       10.307        4.330      345.785       84.050        0.059      341.149       15.659      865.061
12/21/2014  12:31:00     -446.305     -182.661      -11.978      217.292      150.994       72.248    47215.764    22799.096     5219.789       15.395        3.762      482.238       84.891        0.031      341.095       15.567      865.065
12/21/2014  12:32:00     -357.176     -257.621       -2.619      186.647      148.316       89.312    34837.053    21997.582     7976.625       12.937        3.241      440.390       94.769        0.046      341.073       15.530      865.064
12/21/2014  12:33:00     -260.473     -165.466        4.676      151.778      126.638       68.246    23036.580    16037.181     4657.574        6.948        2.187      308.586       80.715        0.068      341.122       15.613      865.059
12/21/2014  12:34:00     -256.481     -101.679        5.234      141.689      111.370       70.961    20075.800    12403.306     5035.409        5.682        1.876      275.901       67.176        0.059      341.148       15.656      865.085
12/21/2014  12:35:00     -274.697     -119.073       -5.282      140.808       93.813       58.714    19826.850     8800.908     3447.389        6.086        1.604      299.394       72.720        0.059      341.133       15.630      865.111
12/21/2014  12:36:00     -286.216      -84.255      -14.703      129.051      111.706       57.318    16654.158    12478.141     3285.383        6.082        1.621      298.360       62.818        0.044      341.150       15.659      865.086
12/21/2014  12:37:00     -250.138     -236.295        9.495      218.288      188.843       93.657    47649.449    35661.862     8771.551       10.527        4.604      344.100      115.328        0.112      341.123       15.614      864.999
12/21/2014  12:38:00     -329.478     -271.333       -6.297      137.348      133.350       72.646    18864.501    17782.255     5277.484       11.206        2.096      426.823       64.382        0.023      341.098       15.572      864.972
12/21/2014  12:39:00     -478.397     -261.602      -13.243      208.474      149.620       88.496    43461.255    22386.061     7831.568       18.556        3.684      545.252      104.871        0.037      341.068       15.521      864.972
12/21/2014  12:40:00     -283.210     -107.859        8.675      187.245      132.277       83.292    35060.861    17497.108     6937.622        7.569        2.975      303.054       95.561        0.099      341.152       15.662      864.991
12/21/2014  12:41:00     -498.179     -265.243      -17.748      226.660      138.958       84.225    51374.766    19309.342     7093.789       19.830        3.889      564.390       93.293        0.027      341.081       15.545      864.967
12/21/2014  12:42:00     -416.154     -225.252       -3.219      152.229      127.429       73.746    23173.537    16238.259     5438.513       13.438        2.243      473.205       77.939        0.027      341.091       15.560      864.981
12/21/2014  12:43:00     -252.433     -148.224       13.770      145.994      138.661       79.966    21314.357    19226.839     6394.504        6.640        2.347      292.733       83.799        0.082      341.080       15.542      864.958
12/21/2014  12:44:00     -385.315     -301.979      -14.270      193.689      150.260      101.323    37515.542    22578.108    10266.440       15.510        3.518      489.550      114.303        0.055      341.004       15.413      864.954
12/21/2014  12:45:00     -401.053     -302.336       -7.809      149.860      169.525       85.965    22458.029    28738.783     7389.998       15.544        2.929      502.246       82.854        0.027      341.007       15.420      864.972
12/21/2014  12:46:00     -173.681     -120.608       13.799      126.818      100.686       59.434    16082.716    10137.719     3532.386        3.732        1.488      211.451       67.323        0.101      341.096       15.570      865.022
12/21/2014  12:47:00     -136.758     -181.633        6.412      105.768      104.643       68.150    11186.900    10950.063     4644.394        3.925        1.339      227.361       60.343        0.070      341.044       15.479      865.029
12/21/2014  12:48:00     -256.231     -160.243       -4.966      151.219      114.250       77.175    22867.316    13053.077     5955.904        6.661        2.094      302.213       77.223        0.065      341.045       15.483      864.999
12/21/2014  12:49:00     -158.772      -67.504        4.786      107.895      108.978       70.408    11641.262    11876.118     4957.347        2.913        1.424      172.526       67.032        0.151      341.130       15.626      864.990
12/21/2014  12:50:00     -174.886     -144.676       -5.192      129.634      115.209       67.190    16805.045    13273.214     4514.459        4.306        1.730      226.972       52.907        0.054      341.078       15.539      864.982
12/21/2014  12:51:00     -146.127      -85.562        2.501      132.030       75.613       51.471    17432.038     5717.368     2649.288        2.723        1.290      169.334       56.294        0.111      341.139       15.644      865.007
12/21/2014  12:52:00     -174.489      -15.360       -5.282       73.598       47.265       37.793     5416.671     2233.985     1428.277        1.989        0.454      175.164       38.682        0.049      341.280       15.882      864.993
12/21/2014  12:53:00      -74.409       36.954       23.341       99.328       74.746       57.743     9865.973     5587.030     3334.305        1.311        0.939       83.080       58.554        0.497      341.393       16.073      864.965
12/21/2014  12:54:00     -231.524      -43.933      -19.750      112.290       71.259       44.807    12609.011     5077.867     2007.665        3.781        0.985      235.656       57.811        0.060      341.172       15.696      864.972
12/21/2014  12:55:00     -116.196     -141.065       -1.821       93.481       90.018       41.930     8738.766     8103.304     1758.112        2.600        0.930      182.759       47.280        0.067      341.194       15.735      864.997
12/21/2014  12:56:00     -282.558     -182.777       -8.801      147.044      115.586       57.062    21622.010    13360.187     3256.097        7.577        1.912      336.521       63.807        0.036      341.115       15.600      865.009
12/21/2014  12:57:00     -213.676     -108.360        2.167      151.332      100.355       55.308    22901.395    10071.162     3059.007        4.671        1.802      239.581       69.730        0.085      341.180       15.713      865.034
12/21/2014  12:58:00     -123.760     -108.864       17.736      107.653      100.520       54.176    11589.121    10104.207     2935.080        2.605        1.231      164.827       65.120        0.156      341.259       15.847      865.059
12/21/2014  12:59:00     -101.892      -16.408        8.830       62.081       98.169       40.838     3854.084     9637.173     1667.760        1.294        0.758      103.204       32.292        0.098      341.461       16.189      865.091
12/21/2014  13:00:00     -133.498      -30.283       -1.594      107.137      110.416       51.726    11478.295    12191.738     2675.533        2.254        1.317      136.889       45.678        0.111      341.419       16.116      865.094
12/21/2014  13:01:00     -177.057       -3.439      -20.813       88.158       71.568       47.094     7771.877     5121.929     2217.826        2.345        0.756      177.091       40.137        0.051      341.442       16.155      865.067
12/21/2014  13:02:00     -227.988      -47.848       -7.007       83.708       87.275       55.413     7006.986     7616.844     3070.620        3.600        0.885      232.954       55.975        0.058      341.310       15.931      865.039
12/21/2014  13:03:00     -255.415       25.856      -24.953      129.818       90.308       46.057    16852.714     8155.585     2121.284        4.682        1.356      256.721       50.103        0.038      341.378       16.046      865.002
12/21/2014  13:04:00     -214.265      -56.252       -3.802       97.566       65.166       42.714     9519.163     4246.580     1824.524        3.234        0.780      221.526       48.440        0.048      341.355       16.008      864.987
12/21/2014  13:05:00     -171.247      -72.874       -2.874       82.632       83.936       40.720     6828.041     7045.322     1658.143        2.508        0.777      186.108       39.919        0.046      341.366       16.026      865.004
12/21/2014  13:06:00     -131.717      -93.372       -5.499       95.525       63.339       38.511     9125.099     4011.789     1483.067        2.036        0.731      161.455       41.498        0.066      341.458       16.182      865.016
12/21/2014  13:07:00     -289.777     -167.029       -6.477      146.990      118.370       58.588    21606.176    14011.381     3432.508        7.547        1.953      334.469       73.896        0.049      341.406       16.093      865.047
12/21/2014  13:08:00     -295.092     -242.482        1.505      192.559      169.678       90.951    37078.805    28790.597     8272.026       11.000        3.707      381.938      104.980        0.076      341.386       16.060      865.079
12/21/2014  13:09:00     -337.277      -47.946        8.938      244.904      158.908       96.849    59978.020    25251.682     9379.760       10.535        4.730      340.668      114.026        0.112      341.509       16.266      865.039
12/21/2014  13:10:00     -324.359     -117.484      -20.659      217.967      196.192      102.051    47509.554    38491.486    10414.313       10.791        4.821      344.980      112.425        0.106      341.488       16.233      865.050
12/21/2014  13:11:00     -229.280     -218.088       -1.869      187.357      155.715       89.036    35102.626    24247.061     7927.334        8.369        3.364      316.436       88.601        0.078      341.428       16.130      865.049
12/21/2014  13:12:00     -322.650     -177.870      -12.356      177.013      153.673       88.074    31333.746    23615.263     7757.059        9.929        3.135      368.430       83.407        0.051      341.404       16.090      865.058
12/21/2014  13:13:00     -341.630       -7.249      -20.220      164.239      111.221       70.337    26974.429    12370.095     4947.355        8.072        2.215      341.707       68.460        0.040      341.528       16.298      865.099
12/21/2014  13:14:00     -311.510      -31.642        2.819      264.744      148.637       92.569    70089.369    22093.036     8569.090        9.938        5.038      313.113      121.685        0.151      341.518       16.283      865.078
12/21/2014  13:15:00     -522.320      -55.707      -43.643      178.712      142.322       86.993    31938.101    20255.464     7567.856       16.878        2.988      525.283       94.388        0.032      341.501       16.253      865.097
12/21/2014  13:16:00     -393.760      -62.448      -33.729      161.900      138.020       68.151    26211.629    19049.592     4644.538       10.499        2.495      398.682       71.546        0.032      341.559       16.351      865.135
12/21/2014  13:17:00     -427.096       22.898      -40.026      179.555      106.169       72.307    32240.085    11271.813     5228.233       11.663        2.437      427.709       83.645        0.038      341.577       16.383      865.153
12/21/2014  13:18:00     -336.827      -78.607      -43.118      100.697      113.760       46.805    10139.801    12941.334     2190.710        7.338        1.264      345.878       47.521        0.019      341.483       16.224      865.120
12/21/2014  13:19:00     -208.070       -0.476        6.525      120.111      106.254       66.364    14426.564    11289.971     4404.172        3.672        1.506      208.071       51.137        0.060      341.665       16.534      865.094
12/21/2014  13:20:00     -451.338      -65.620      -23.016      199.826      168.212       72.890    39930.420    28295.222     5312.892       14.103        3.677      456.083       80.860        0.031      341.510       16.269      865.125
12/21/2014  13:21:00     -312.611        1.297      -21.055      158.581      140.497       70.497    25147.775    19739.336     4969.805        7.400        2.493      312.614       66.682        0.045      341.533       16.308      865.205
12/21/2014  13:22:00     -250.476      157.763      -32.112      110.779       92.560       65.624    12271.975     8567.424     4306.463        5.690        1.257      296.019       59.272        0.040      341.440       16.150      865.167
12/21/2014  13:23:00     -234.357       42.184      -20.532       90.356      111.353       54.355     8164.230    12399.386     2954.499        4.032        1.176      238.123       47.992        0.041      341.503       16.256      865.100
12/21/2014  13:24:00     -332.461      -77.408      -14.195      144.782      101.865       57.004    20961.905    10376.377     3249.443        7.565        1.729      341.354       58.228        0.029      341.385       16.057      865.065
12/21/2014  13:25:00     -186.523      -83.983       -9.233      121.281       87.246       55.469    14709.189     7611.869     3076.857        3.366        1.270      204.558       52.837        0.067      341.435       16.143      865.014
12/21/2014  13:26:00     -254.643      -32.992        7.174      156.376      164.215       77.180    24453.344    26966.585     5956.699        6.167        2.869      256.771       81.866        0.102      341.313       15.935      865.005
12/21/2014  13:27:00     -306.937      -19.527      -33.784      117.625      116.593       56.961    13835.537    13593.872     3244.521        6.320        1.534      307.557       64.904        0.045      341.328       15.960      865.059
12/21/2014  13:28:00     -326.985      -68.528      -28.789      164.561      133.807       70.916    27080.246    17904.407     5029.136        8.122        2.501      334.089       69.465        0.043      341.269       15.862      865.033
12/21/2014  13:29:00     -340.811      -33.688      -15.238      162.107       95.398       69.545    26278.602     9100.809     4836.460        7.886        2.011      342.472       75.128        0.048      341.274       15.870      865.047
12/21/2014  13:30:00     -131.927      -37.301       16.325      128.208      113.216       53.474    16437.264    12817.751     2859.446        2.558        1.606      137.099       57.986        0.179      341.379       16.049      865.071
12/21/2014  13:31:00     -151.866      -62.753        8.548      135.588      114.459       69.668    18384.135    13100.846     4853.698        3.170        1.817      164.320       67.292        0.168      341.233       15.801      864.981
12/21/2014  13:32:00     -209.597      -35.930       20.227      137.460      101.894       75.967    18895.232    10382.450     5770.972        4.033        1.752      212.654       76.474        0.129      341.276       15.875      864.980
12/21/2014  13:33:00     -224.482      209.231      -52.345      131.982      142.348       64.734    17419.361    20262.909     4190.482        6.938        2.094      306.870       67.501        0.048      341.231       15.797      865.030
12/21/2014  13:34:00     -298.805      137.592      -63.125      121.884      138.066       62.058    14855.764    19062.090     3851.144        7.498        1.888      328.962       59.802        0.033      341.124       15.616      865.106
12/21/2014  13:35:00     -257.778       15.684      -30.359      141.556      120.417       89.649    20038.171    14500.309     8036.908        5.509        2.129      258.255       86.457        0.112      341.145       15.653      865.106
12/21/2014  13:36:00     -210.592       24.921       -9.567      114.455       88.380       62.512    13099.916     7811.074     3907.781        3.494        1.241      212.062       59.411        0.078      341.174       15.702      865.082
12/21/2014  13:37:00     -178.306      -39.491      -12.077      112.514       87.655       53.719    12659.402     7683.360     2885.694        2.836        1.161      182.627       48.567        0.071      341.206       15.756      865.048
12/21/2014  13:38:00     -234.845      -80.340      -19.479      149.157      111.019       49.526    22247.701    12325.109     2452.795        4.950        1.851      248.207       51.115        0.042      341.308       15.927      865.044
12/21/2014  13:39:00     -325.385     -108.979      -25.182      175.970      121.797       73.933    30965.382    14834.410     5466.061        8.482        2.563      343.150       68.307        0.040      341.200       15.745      865.092
12/21/2014  13:40:00     -211.970      -70.183      -11.610      154.712       93.668       64.391    23935.901     8773.783     4146.179        4.342        1.843      223.287       67.958        0.093      341.282       15.885      865.069
12/21/2014  13:41:00     -231.298       -8.294      -20.592      117.957       96.893       54.727    13913.961     9388.326     2995.015        4.014        1.315      231.447       60.917        0.069      341.397       16.079      865.041
12/21/2014  13:42:00     -147.692       44.253      -21.487      100.024       94.898       49.442    10004.803     9005.698     2444.489        2.284        1.073      154.179       44.025        0.082      341.363       16.023      865.031
12/21/2014  13:43:00     -250.370     -108.119       -8.252      158.703      139.729       67.427    25186.544    19524.226     4546.443        6.184        2.463      272.717       70.935        0.068      341.318       15.944      865.053
12/21/2014  13:44:00     -260.270       72.438      -44.757      109.434      161.079       55.498    11975.904    25946.335     3080.044        5.799        2.050      270.163       38.244        0.020      341.268       15.857      865.143
12/21/2014  13:45:00     -122.512      278.762      -39.808      102.824      120.340       63.256    10572.790    14481.811     4001.272        6.167        1.453      304.496       49.159        0.026      341.161       15.677      865.110
12/21/2014  13:46:00      -90.781      385.712      -44.024       96.348      166.389       65.152     9282.863    27685.334     4244.830       10.007        2.061      396.251       70.051        0.031      341.097       15.572      865.033
12/21/2014  13:47:00     -157.139      138.530      -20.755      109.721       76.513       58.439    12038.639     5854.238     3415.118        3.281        1.065      209.483       57.228        0.075      341.202       15.749      865.153
12/21/2014  13:48:00     -143.484      122.391      -19.508       98.810      139.486       62.774     9763.345    19456.378     3940.605        3.455        1.658      188.593       48.201        0.065      341.211       15.765      865.225
12/21/2014  13:49:00     -185.520      -38.462      -23.732      126.394      109.023       77.349    15975.444    11886.115     5982.888        3.515        1.692      189.465       73.321        0.150      341.159       15.676      865.230
12/21/2014  13:50:00     -228.938      -42.527       -6.120      130.351       86.596       68.993    16991.390     7498.923     4760.030        4.175        1.463      232.855       66.962        0.083      341.153       15.667      865.263
12/21/2014  13:51:00     -208.987       -8.843      -20.488       97.138      102.337       54.179     9435.733    10472.842     2935.377        3.350        1.142      209.174       38.753        0.034      341.115       15.600      865.239
12/21/2014  13:52:00     -116.363       20.560       -9.070       88.949       72.097       51.735     7911.999     5198.036     2676.471        1.491        0.789      118.165       35.901        0.092      341.183       15.719      865.234
12/21/2014  13:53:00      -39.987       14.577       22.273       63.724       49.756       46.987     4060.730     2475.643     2207.751        0.552        0.437       42.561       39.972        0.882      341.287       15.896      865.246
12/21/2014  13:54:00     -177.488      117.559      -40.338       94.132       82.891       43.003     8860.813     6870.942     1849.229        3.226        0.879      212.890       39.310        0.034      341.030       15.456      865.222
12/21/2014  13:55:00     -127.471       68.524      -33.120       85.662      106.877       50.998     7337.894    11422.771     2600.831        2.170        1.068      144.721       33.346        0.053      341.059       15.507      865.190
12/21/2014  13:56:00     -192.101       -3.898      -23.883       81.387       85.123       51.687     6623.822     7245.909     2671.494        2.701        0.827      192.141       18.278        0.009      341.111       15.594      865.230
12/21/2014  13:57:00     -299.008      -45.912      -27.745      137.264      130.808       65.750    18841.344    17110.620     4323.060        6.627        2.014      302.512       63.464        0.044      340.988       15.383      865.266
12/21/2014  13:58:00     -248.159      113.995      -44.977       95.693      124.107       59.606     9157.186    15402.573     3552.871        5.235        1.406      273.089       53.468        0.038      341.009       15.421      865.272
12/21/2014  13:59:00     -160.159       36.518       -8.783      106.047       84.962       64.891    11245.873     7218.579     4210.839        2.486        1.134      164.270       63.208        0.148      341.131       15.629      865.245
12/21/2014  14:00:00     -184.116      -59.600        0.263      140.699      186.086       74.070    19796.247    34627.892     5486.403        4.867        2.996      193.522       62.239        0.103      340.992       15.392      865.198
12/21/2014  14:01:00     -170.115       31.597      -25.272      137.074       92.601       71.009    18789.329     8574.889     5042.284        3.148        1.620      173.024       79.539        0.211      341.055       15.501      865.167
12/21/2014  14:02:00     -139.154      202.242      -31.255      127.803      103.079       61.244    16333.654    10625.375     3750.824        4.597        1.535      245.490       58.361        0.057      340.950       15.321      865.108
12/21/2014  14:03:00      -83.907       59.728       14.819       94.141       82.124       55.420     8862.606     6744.333     3071.337        1.475        0.934      102.994       49.028        0.227      341.104       15.585      865.051
12/21/2014  14:04:00     -238.875      -37.386      -25.583       99.751      110.883       53.505     9950.346    12294.990     2862.810        4.211        1.255      241.783       56.546        0.055      341.068       15.522      865.088
12/21/2014  14:05:00      -98.163       32.882       -2.153      110.609       96.845       61.964    12234.439     9379.007     3839.576        1.808        1.273      103.523       46.962        0.206      340.951       15.326      865.086
12/21/2014  14:06:00     -186.793      -51.021      -14.465      148.001      108.360       70.452    21904.269    11741.882     4963.417        3.815        1.930      193.635       52.265        0.073      340.926       15.282      865.018
12/21/2014  14:07:00     -337.320      -11.834      -28.425      147.692      137.347       71.058    21812.935    18864.071     5049.293        8.022        2.286      337.528       73.259        0.047      340.839       15.133      865.058
12/21/2014  14:08:00     -286.002      -79.759        7.650      144.695      138.302       82.795    20936.761    19127.388     6854.939        6.756        2.346      296.915       79.892        0.072      340.807       15.079      865.034
12/21/2014  14:09:00     -212.597      -14.040      -25.542      111.045      117.065       58.142    12331.045    13704.233     3380.472        3.773        1.471      213.060       54.684        0.066      340.875       15.195      865.049
12/21/2014  14:10:00     -179.407      -14.219      -25.929      105.076      124.617       45.041    11040.887    15529.488     2028.675        3.082        1.430      179.970       45.559        0.064      340.832       15.122      865.086
12/21/2014  14:11:00     -228.343      -84.353       -7.966      134.585       87.649       48.396    18113.253     7682.267     2342.196        4.372        1.407      243.426       36.510        0.022      340.790       15.052      865.062
12/21/2014  14:12:00     -282.650      -91.178      -22.538      102.895       81.605       49.531    10587.352     6659.321     2453.275        5.420        0.985      296.992       42.642        0.021      340.784       15.041      865.034
12/21/2014  14:13:00     -253.376      -92.268      -14.039       91.151       96.597       48.238     8308.445     9331.049     2326.885        4.643        0.998      269.653       42.648        0.025      340.886       15.213      865.065
12/21/2014  14:14:00     -142.404      -34.758       11.035      127.571       85.528       62.930    16274.404     7315.062     3960.166        2.457        1.377      146.584       65.700        0.201      340.863       15.175      865.031
12/21/2014  14:15:00     -159.603      -40.305       -5.032      112.606       72.233       46.687    12680.118     5217.628     2179.666        2.360        1.004      164.614       50.097        0.093      340.955       15.332      865.041
12/21/2014  14:16:00     -156.306      -10.036      -14.777      128.588       97.582       55.751    16534.890     9522.341     3108.161        2.695        1.458      156.628       49.081        0.098      340.957       15.334      865.120
12/21/2014  14:17:00     -185.000      -76.950      -10.355      135.243       84.098       44.209    18290.762     7072.421     1954.464        3.378        1.366      200.365       44.072        0.048      340.870       15.185      865.111
12/21/2014  14:18:00      -30.660      -20.120       -5.140       65.693       60.162       36.134     4315.540     3619.509     1305.652        0.530        0.462       36.673       25.195        0.472      341.002       15.411      865.076
12/21/2014  14:19:00     -122.118       78.172      -19.696       82.733       90.472       41.666     6844.670     8185.201     1736.086        1.909        0.838      144.995       56.500        0.152      341.053       15.497      865.084
12/21/2014  14:20:00     -167.709      -13.935       -4.960       76.863       67.450       43.026     5907.934     4549.485     1851.201        2.032        0.615      168.286       36.040        0.046      341.025       15.449      865.066
12/21/2014  14:21:00     -290.973     -128.462       -3.846      161.116      177.082       73.875    25958.248    31358.147     5457.476        8.197        3.139      318.069       80.947        0.065      340.862       15.173      865.064
12/21/2014  14:22:00     -307.803     -148.479       -8.193      198.915      138.036       80.307    39567.026    19054.051     6449.154        9.095        3.254      341.743       84.312        0.061      340.797       15.062      865.062
12/21/2014  14:23:00     -235.909      -81.159       -2.663      151.535      136.666       78.563    22962.851    18677.683     6172.083        5.502        2.391      249.479       66.644        0.071      340.842       15.139      865.066
12/21/2014  14:24:00     -375.455     -101.913      -17.192      148.314       96.081       62.093    21997.169     9231.545     3855.513        9.336        1.754      389.041       62.644        0.026      340.781       15.037      865.073
12/21/2014  14:25:00     -244.073      -56.467       -6.233      134.618       91.323       54.574    18122.079     8339.806     2978.366        4.611        1.472      250.520       66.102        0.070      340.883       15.208      865.077
12/21/2014  14:26:00     -200.491      -39.469      -10.226      122.481      112.948       50.905    15001.619    12757.344     2591.365        3.610        1.518      204.339       40.483        0.039      340.882       15.205      865.110
12/21/2014  14:27:00     -120.634        9.064      -14.271       75.046       89.250       46.652     5631.917     7965.507     2176.418        1.530        0.789      120.974       25.104        0.043      340.935       15.298      865.105
12/21/2014  14:28:00     -164.337       96.240       -1.298      103.207      150.576       69.787    10651.590    22673.169     4870.245        3.722        1.910      190.443       62.513        0.108      340.837       15.130      865.145
12/21/2014  14:29:00     -232.034       21.264      -24.653      119.605      106.650       60.399    14305.361    11374.281     3647.990        4.211        1.466      233.007       68.170        0.086      340.804       15.075      865.218
12/21/2014  14:30:00     -139.338      123.322      -18.669       79.922       95.272       53.195     6387.452     9076.689     2829.761        2.663        0.915      186.074       44.494        0.057      340.835       15.127      865.225
12/21/2014  14:31:00     -146.517       35.079      -12.279      105.587       99.237       52.174    11148.553     9848.047     2722.149        2.328        1.186      150.657       25.569        0.029      340.823       15.109      865.178
12/21/2014  14:32:00     -141.097       44.335      -20.625       98.732       68.220       49.764     9747.946     4653.966     2476.436        1.959        0.844      147.898       32.088        0.047      340.856       15.163      865.185
12/21/2014  14:33:00     -171.059       88.827      -37.440       88.138       90.452       51.720     7768.283     8181.513     2674.945        2.859        0.931      192.747       41.588        0.047      340.836       15.130      865.188
12/21/2014  14:34:00     -190.837      193.609      -37.147       74.849      111.612       61.202     5602.371    12457.233     3745.635        4.854        1.090      271.851       45.518        0.028      340.827       15.113      865.211
12/21/2014  14:35:00     -172.865       27.260       -6.632       89.100      151.868       52.475     7938.774    23063.875     2753.576        3.221        1.688      175.001       52.808        0.091      340.850       15.152      865.219
12/21/2014  14:36:00     -112.820       94.971      -23.500       99.541       84.790       63.711     9908.505     7189.287     4059.136        2.172        1.058      147.472       49.663        0.113      340.872       15.193      865.196
12/21/2014  14:37:00     -153.656      118.539      -26.326       76.051      108.569       53.729     5783.795    11787.321     2886.803        2.940        1.023      194.066       49.428        0.065      340.911       15.256      865.164
12/21/2014  14:38:00     -247.424      189.077      -52.085      108.087      121.356       60.910    11682.819    14727.399     3710.077        6.490        1.506      311.398       58.020        0.035      340.847       15.146      865.170
12/21/2014  14:39:00     -175.438       86.413      -23.806       90.507       82.106       42.167     8191.462     6741.410     1778.043        2.776        0.836      195.565       28.983        0.022      340.959       15.337      865.182
12/21/2014  14:40:00     -239.841      100.416      -52.508      110.275       81.510       58.149    12160.541     6643.863     3381.357        4.627        1.109      260.014       54.890        0.045      340.883       15.208      865.180
12/21/2014  14:41:00     -313.262      146.814      -58.019      119.824       79.236       61.609    14357.810     6278.343     3795.655        7.374        1.222      345.959       58.415        0.029      340.874       15.192      865.176
12/21/2014  14:42:00     -213.360      139.952      -41.361       77.802       75.398       50.700     6053.074     5684.865     2570.517        4.056        0.715      255.165       43.145        0.029      340.868       15.182      865.156
12/21/2014  14:43:00     -204.341       47.383      -37.762       99.049      116.041       60.288     9810.694    13465.619     3634.639        3.616        1.346      209.762       43.570        0.043      340.953       15.326      865.207
12/21/2014  14:44:00     -224.532      -69.034      -15.091       81.474       79.055       42.436     6638.024     6249.689     1800.846        3.505        0.734      234.905       22.802        0.009      340.999       15.403      865.252
12/21/2014  14:45:00     -251.423      -92.594      -15.582       84.418       68.846       39.534     7126.363     4739.711     1562.943        4.273        0.671      267.931       37.414        0.019      340.905       15.242      865.261
12/21/2014  14:46:00     -238.896      -41.727       -9.705      134.313      105.345       49.386    18040.104    11097.602     2438.970        4.524        1.579      242.513       47.797        0.039      340.923       15.277      865.284
12/21/2014  14:47:00     -282.697       19.105      -14.624       87.976      104.596       47.566     7739.815    10940.287     2262.551        5.072        1.047      283.342       41.827        0.022      341.026       15.447      865.301
12/21/2014  14:48:00     -139.318       31.558      -22.492      123.443       94.168       56.185    15238.087     8867.539     3156.725        2.408        1.363      142.847       61.049        0.183      340.907       15.250      865.299
12/21/2014  14:49:00     -135.012       84.458      -19.018      106.389      150.705       61.733    11318.692    22711.904     3810.907        3.177        1.892      159.252       73.736        0.214      340.899       15.236      865.304
12/21/2014  14:50:00     -202.317      230.747      -41.223       82.986      156.255       63.925     6886.603    24415.509     4086.462        6.563        1.769      306.882       63.139        0.042      340.836       15.129      865.317
12/21/2014  14:51:00     -118.396       68.689      -11.176       58.282       73.631       37.359     3396.818     5421.492     1395.732        1.454        0.511      136.879       34.257        0.063      340.917       15.269      865.315
12/21/2014  14:52:00     -238.466      100.463      -27.918      138.444       97.762       72.833    19166.780     9557.406     5304.702        5.088        1.701      258.764       85.049        0.108      340.907       15.247      865.347
12/21/2014  14:53:00     -171.064      176.038      -26.189       91.737      203.576       63.438     8415.690    41443.154     4024.373        5.740        2.694      245.464       81.542        0.110      340.884       15.210      865.384
12/21/2014  14:54:00     -223.062      221.602      -33.363      129.378      143.598       71.591    16738.584    20620.443     5125.268        7.122        2.124      314.426       75.223        0.057      340.855       15.161      865.412
12/21/2014  14:55:00     -265.851      156.923      -29.115      116.514      143.924       66.122    13575.545    20714.150     4372.067        6.740        1.933      308.709       68.611        0.049      340.894       15.226      865.377
12/21/2014  14:56:00     -317.065      -50.390      -46.052       79.758       85.474       43.783     6361.373     7305.757     1916.988        6.038        0.779      321.044       40.295        0.016      340.842       15.137      865.319
12/21/2014  14:57:00     -278.876     -111.869       -0.769      181.518       99.791       57.788    32948.643     9958.174     3339.438        6.826        2.312      300.478       63.764        0.045      340.877       15.198      865.256
12/21/2014  14:58:00     -375.628      -97.952      -18.730      183.990      121.868       64.323    33852.488    14851.791     4137.465       10.193        2.642      388.190       66.821        0.030      340.894       15.225      865.370
12/21/2014  14:59:00     -289.721      -73.352      -17.463      156.637      161.176       65.929    24535.131    25977.707     4346.680        7.223        2.743      298.862       70.403        0.055      340.916       15.263      865.478
12/21/2014  15:00:00     -130.900       17.163        0.855      120.215       75.000       46.627    14451.607     5624.998     2174.101        1.984        1.113      132.021       33.088        0.063      340.957       15.334      865.495
12/21/2014  15:01:00     -242.508       82.783      -21.642      131.648       99.664       69.875    17331.212     9933.006     4882.504        4.913        1.607      256.248       65.786        0.066      340.930       15.287      865.530
12/21/2014  15:02:00     -198.312       40.349       -5.968      116.676      140.312       68.205    13613.330    19687.557     4651.881        3.946        1.898      202.375       56.433        0.078      340.901       15.239      865.560
12/21/2014  15:03:00     -216.347      -32.332       -4.084       86.579      118.944       57.014     7495.876    14147.726     3250.579        3.638        1.245      218.749       42.131        0.037      340.946       15.313      865.553
12/21/2014  15:04:00     -334.685      -52.435      -27.180      132.582      138.794       73.281    17578.087    19263.768     5370.098        7.885        2.111      338.768       63.698        0.035      340.870       15.186      865.586
12/21/2014  15:05:00     -284.178      185.321      -53.785      109.402      138.600       73.230    11968.873    19209.987     5362.619        7.726        1.827      339.265       67.861        0.040      340.872       15.189      865.586
12/21/2014  15:06:00     -251.668       99.596      -34.563      149.544      118.510       70.206    22363.283    14044.670     4928.897        5.789        2.067      270.659       79.139        0.085      340.954       15.329      865.577
12/21/2014  15:07:00     -271.853      151.086      -43.145      126.422      138.527       73.325    15982.410    19189.775     5376.571        6.956        2.027      311.016       72.117        0.054      340.898       15.233      865.575
12/21/2014  15:08:00     -217.142      116.802      -15.580      186.623      133.926       77.698    34828.157    17936.048     6036.952        5.991        2.940      246.563       89.347        0.131      340.934       15.294      865.619
12/21/2014  15:09:00     -167.702      227.511      -32.548       97.125      161.301       59.866     9433.340    26018.136     3583.903        5.998        1.952      282.640       48.292        0.029      340.863       15.175      865.633
12/21/2014  15:10:00     -217.101       52.619      -27.614      145.213      175.767       87.621    21086.879    30894.001     7677.366        5.515        2.983      223.387       69.229        0.096      340.878       15.201      865.608
12/21/2014  15:11:00     -121.489       17.069        5.780      135.664      129.158       80.436    18404.831    16681.720     6470.016        2.831        2.078      122.682       64.144        0.273      340.873       15.193      865.559
12/21/2014  15:12:00     -214.568      190.928      -24.354      152.206      116.592       76.189    23166.539    13593.631     5804.835        6.282        2.128      287.215       69.475        0.059      340.857       15.165      865.584
12/21/2014  15:13:00     -141.317        1.375      -17.037      112.331      135.003       63.586    12618.345    18225.876     4043.234        2.757        1.744      141.324       62.670        0.197      340.849       15.151      865.614
12/21/2014  15:14:00     -106.008      148.209      -24.744       83.772       92.692       59.118     7017.735     8591.760     3494.887        2.646        0.955      182.219       56.027        0.095      340.871       15.188      865.630
12/21/2014  15:15:00     -158.161      194.435      -27.850      102.712      109.176       64.382    10549.667    11919.444     4144.992        4.510        1.331      250.639       56.998        0.052      340.833       15.123      865.641
12/21/2014  15:16:00     -192.432      134.630      -19.095      140.741      152.392       63.382    19808.015    23223.445     4017.315        5.127        2.352      234.852       58.812        0.063      340.832       15.121      865.674
12/21/2014  15:17:00     -143.788      142.515      -18.804      104.040      110.351       63.705    10824.338    12177.247     4058.375        3.419        1.353      202.449       56.834        0.079      340.797       15.064      865.676
12/21/2014  15:18:00     -133.997      -16.900       13.148      112.649      100.205       56.228    12689.775    10041.022     3161.570        2.215        1.295      135.058       52.698        0.152      340.862       15.175      865.642
12/21/2014  15:19:00     -204.577      151.541      -25.337      149.928      166.717       82.040    22478.387    27794.718     6730.583        6.122        2.850      254.590       88.780        0.122      340.800       15.068      865.660
12/21/2014  15:20:00     -215.496      217.581      -28.187      109.469      139.303       65.002    11983.489    19405.439     4225.265        6.509        1.781      306.235       76.914        0.063      340.778       15.031      865.624
12/21/2014  15:21:00     -188.967      139.222      -23.003       98.375       99.069       61.681     9677.704     9814.680     3804.533        3.945        1.165      234.716       53.892        0.053      340.848       15.151      865.605
12/21/2014  15:22:00     -170.586      263.796      -31.157       95.721      149.129       73.029     9162.577    22239.373     5333.214        6.819        1.837      314.146       55.057        0.031      340.808       15.081      865.640
12/21/2014  15:23:00     -222.406      224.777      -46.905      103.685      101.730       62.145    10750.538    10349.020     3862.015        6.357        1.248      316.210       62.971        0.040      340.735       14.958      865.635
12/21/2014  15:24:00     -166.746      152.118      -29.864       72.839       99.081       45.995     5305.502     9817.035     2115.532        3.453        0.862      225.708       57.110        0.064      340.798       15.064      865.599
12/21/2014  15:25:00     -168.385      152.761      -35.770       83.426       92.678       48.596     6959.876     8589.198     2361.602        3.544        0.896      227.353       56.347        0.061      340.765       15.009      865.608
12/21/2014  15:26:00     -150.048       67.462      -25.819       51.961       70.736       33.595     2699.932     5003.569     1128.597        1.828        0.442      164.516       25.078        0.023      340.864       15.178      865.610
12/21/2014  15:27:00     -151.094       59.993       -5.376       61.859       65.404       48.513     3826.563     4277.698     2353.526        1.846        0.523      162.569       29.368        0.033      340.870       15.188      865.577
12/21/2014  15:28:00     -181.932       26.578      -16.977       57.912       72.200       49.752     3353.768     5212.841     2475.282        2.257        0.552      183.863       30.700        0.028      340.760       15.001      865.540
12/21/2014  15:29:00     -227.276       15.067       -6.226      141.387       99.525       73.494    19990.314     9905.156     5401.370        4.360        1.765      227.775       74.355        0.107      340.815       15.093      865.552
12/21/2014  15:30:00     -121.102      133.626      -18.155       90.018       94.882       49.493     8103.288     9002.669     2449.540        2.620        0.978      180.337       46.500        0.066      340.819       15.100      865.568
12/21/2014  15:31:00      -96.942       64.388      -21.129       58.955       77.140       47.233     3475.704     5950.649     2230.927        1.282        0.583      116.377       21.356        0.034      340.838       15.133      865.551
12/21/2014  15:32:00     -132.923       79.134      -20.828       98.618       87.373       43.674     9725.581     7634.073     1907.385        2.181        0.963      154.696       39.267        0.064      340.821       15.103      865.542
12/21/2014  15:33:00     -109.085      112.231      -28.606       77.759       99.107       56.712     6046.465     9822.101     3216.213        2.220        0.954      156.510       44.006        0.079      340.822       15.107      865.577
12/21/2014  15:34:00     -233.905      -33.010      -52.179      167.293       99.660       62.714    27986.811     9932.058     3933.086        5.018        2.093      236.223       47.738        0.041      340.781       15.036      865.590
12/21/2014  15:35:00     -159.129     -116.747      -14.773      126.601       79.878       58.862    16027.936     6380.539     3464.676        3.252        1.294      197.363       58.477        0.088      340.742       14.970      865.634
12/21/2014  15:36:00     -157.649      -61.067        4.734      127.855       82.909       62.389    16346.862     6873.954     3892.405        2.785        1.356      169.063       64.746        0.147      340.770       15.019      865.645
12/21/2014  15:37:00     -183.745      -11.320      -33.540       97.211       73.398       45.514     9450.045     5387.260     2071.500        2.596        0.845      184.093       37.041        0.040      340.814       15.093      865.664
12/21/2014  15:38:00     -289.152      -50.928      -23.627      117.446      115.564       64.450    13793.590    13355.148     4153.782        5.903        1.565      293.603       55.152        0.035      340.822       15.106      865.693
12/21/2014  15:39:00     -320.907      -80.840      -38.725      147.990      135.809       53.460    21901.094    18443.989     2857.992        7.710        2.160      330.933       22.165        0.004      340.824       15.107      865.711
12/21/2014  15:40:00     -327.431      -86.017      -37.991      120.170      122.185       64.935    14440.730    14929.171     4216.533        7.481        1.679      338.541       67.831        0.040      340.781       15.035      865.737
12/21/2014  15:41:00     -193.599      -99.457       -9.759      160.096       76.922       70.510    25630.692     5917.052     4971.639        4.199        1.826      217.652       83.088        0.146      340.763       15.005      865.724
12/21/2014  15:42:00     -183.223      -51.446        1.010      186.193      109.930       73.824    34667.811    12084.692     5449.938        4.420        2.610      190.309       99.385        0.273      340.773       15.023      865.716
12/21/2014  15:43:00     -111.229      -26.230        4.760       76.627       68.570       39.608     5871.758     4701.818     1568.775        1.261        0.607      114.280       36.145        0.100      340.863       15.177      865.753
12/21/2014  15:44:00     -124.545       -4.354      -10.870       64.778       87.132       41.524     4196.204     7591.934     1724.279        1.458        0.676      124.621       30.981        0.062      340.814       15.095      865.755
12/21/2014  15:45:00     -154.081      -26.044       -4.512       96.238       90.250       41.603     9261.662     8145.039     1730.775        2.178        0.957      156.267       39.638        0.064      340.891       15.224      865.772
12/21/2014  15:46:00     -118.194       23.163       -3.063       76.173       70.113       54.510     5802.290     4915.893     2971.342        1.410        0.684      120.443       40.759        0.115      340.822       15.107      865.768
12/21/2014  15:47:00     -162.391      -14.583      -19.554      119.875       69.745       52.634    14370.069     4864.384     2770.370        2.448        1.100      163.044       64.016        0.154      340.819       15.102      865.766
12/21/2014  15:48:00     -146.271      -56.687        0.209       81.658       82.482       44.013     6668.097     6803.226     1937.114        2.001        0.770      156.872       41.475        0.070      340.843       15.142      865.770
12/21/2014  15:49:00     -253.732      -72.626      -30.289      102.467       90.107       52.109    10499.450     8119.281     2715.333        4.595        1.067      263.922       40.830        0.024      340.812       15.089      865.793
12/21/2014  15:50:00     -260.035     -115.764      -12.325      105.281       71.873       58.982    11084.095     5165.671     3478.933        5.045        0.986      284.640       49.979        0.031      340.813       15.089      865.808
12/21/2014  15:51:00     -334.572      -85.501      -25.309      148.781      125.707       72.368    22135.649    15802.220     5237.140        8.152        2.159      345.324       81.720        0.056      340.868       15.183      865.823
12/21/2014  15:52:00     -248.761      -27.338      -21.753       98.533      104.376       63.584     9708.823    10894.437     4042.951        4.387        1.232      250.259       63.170        0.064      340.936       15.297      865.851
12/21/2014  15:53:00     -244.680      -33.223      -36.128       70.957       79.885       39.262     5034.839     6381.599     1541.512        3.762        0.648      246.925       20.771        0.007      340.865       15.177      865.901
12/21/2014  15:54:00     -185.398      -62.165      -13.114       92.689       68.064       41.646     8591.283     4632.733     1734.420        2.668        0.748      195.542       35.220        0.032      340.800       15.069      865.915
12/21/2014  15:55:00     -198.770      -26.367      -23.656      106.130      106.120       41.664    11263.633    11261.417     1735.868        3.251        1.213      200.511       44.099        0.048      340.865       15.179      865.933
12/21/2014  15:56:00     -245.129     -108.469      -19.767       75.201       84.983       49.235     5655.248     7222.056     2424.108        4.377        0.765      268.055       39.518        0.022      340.777       15.026      865.958
12/21/2014  15:57:00     -217.147      -89.684      -17.420       98.380       57.763       50.104     9678.590     3336.533     2510.395        3.551        0.776      234.938       43.760        0.035      340.753       14.989      866.004
12/21/2014  15:58:00     -311.986       -5.979      -36.326       62.217       76.163       41.080     3870.931     5800.780     1687.591        5.502        0.568      312.043       30.162        0.009      340.863       15.174      866.013
12/21/2014  15:59:00     -262.719      -24.624      -28.087       72.922       82.638       43.775     5317.606     6828.962     1916.270        4.224        0.703      263.870       26.915        0.010      340.832       15.122      865.998
12/21/2014  16:00:00     -182.894      -57.558       13.055      155.346       93.797       61.339    24132.484     8797.858     3762.420        3.681        1.835      191.737       73.708        0.148      340.761       15.004      865.999
12/21/2014  16:01:00     -384.501     -140.181      -31.386      115.874      117.923       60.320    13426.760    13905.816     3638.501        9.972        1.549      409.258       55.185        0.018      340.707       14.909      866.003
12/21/2014  16:02:00     -274.679      -81.402      -32.375      104.610       70.795       48.945    10943.212     5011.899     2395.583        5.073        0.918      286.487       29.474        0.011      340.693       14.887      866.032
12/21/2014  16:03:00     -235.285      -70.349      -22.277      180.993      102.344       68.538    32758.597    10474.199     4697.410        5.436        2.397      245.577       82.171        0.112      340.708       14.912      866.047
12/21/2014  16:04:00     -178.929      -65.234        8.443      115.760       85.084       66.092    13400.459     7239.285     4368.162        3.067        1.250      190.450       67.451        0.125      340.642       14.799      866.024
12/21/2014  16:05:00     -337.551     -106.032       -5.622      106.248      107.779       57.186    11288.710    11616.240     3270.271        7.569        1.309      353.813       47.985        0.018      340.616       14.755      866.025
12/21/2014  16:06:00     -348.156      -76.264      -17.830      146.838       87.129       58.238    21561.323     7591.512     3391.710        7.994        1.627      356.411       66.144        0.034      340.615       14.755      866.025
12/21/2014  16:07:00     -296.468      -31.092      -34.259       65.235       81.309       45.436     4255.668     6611.216     2064.447        5.148        0.647      298.094       35.637        0.014      340.612       14.749      866.031
12/21/2014  16:08:00     -255.903      -29.557      -21.343       84.229       87.912       46.323     7094.562     7728.481     2145.841        4.189        0.848      257.605       37.326        0.021      340.655       14.822      866.039
12/21/2014  16:09:00     -229.281      -20.081      -16.111      115.539       99.853       51.244    13349.305     9970.596     2625.908        3.958        1.297      230.159       59.505        0.067      340.691       14.885      866.026
12/21/2014  16:10:00     -218.934     -136.026       -5.026      205.165      132.792       69.396    42092.492    17633.803     4815.827        6.549        3.227      257.750       91.378        0.126      340.495       14.553      865.991
12/21/2014  16:11:00     -211.531      -31.145       -9.029      100.323       97.097       57.594    10064.644     9427.764     3317.091        3.430        1.140      213.812       28.453        0.018      340.561       14.664      866.032
12/21/2014  16:12:00     -231.326      -31.560      -27.160       88.303      122.164       49.248     7797.404    14924.126     2425.367        4.019        1.257      233.469       38.923        0.028      340.521       14.595      866.045
12/21/2014  16:13:00     -182.217     -116.366        5.988      140.186       81.503       54.634    19652.149     6642.683     2984.831        3.802        1.464      216.204       55.623        0.066      340.453       14.482      866.037
12/21/2014  16:14:00     -207.274      -61.182        3.316      108.270      131.925       64.949    11722.464    17404.311     4218.344        4.002        1.667      216.115       52.862        0.060      340.440       14.460      866.014
12/21/2014  16:15:00     -356.185     -113.025      -13.167      142.572      110.641       68.485    20326.869    12241.509     4690.162        8.853        1.863      373.688       70.770        0.036      340.401       14.392      866.008
12/21/2014  16:16:00     -276.713     -108.750      -22.422       99.415      104.532       47.302     9883.247    10926.945     2237.513        5.597        1.152      297.316       43.200        0.021      340.425       14.434      866.026
12/21/2014  16:17:00     -199.836      -37.676       -1.075      107.934       64.756       46.818    11649.674     4193.319     2191.913        2.969        0.902      203.356       54.826        0.073      340.422       14.429      866.014
12/21/2014  16:18:00     -192.518       20.710      -10.188      145.373      105.698       47.826    21133.254    11172.032     2287.327        3.609        1.730      193.628       63.011        0.106      340.434       14.450      866.005
12/21/2014  16:19:00     -209.764       -4.267      -21.460      122.738      120.448       61.922    15064.641    14507.653     3834.290        3.894        1.670      209.807       64.224        0.094      340.461       14.495      865.952
12/21/2014  16:20:00     -237.828      -57.918      -12.217      109.481       96.033       47.123    11986.199     9222.266     2220.561        4.174        1.171      244.779       28.322        0.013      340.477       14.522      865.967
12/21/2014  16:21:00     -326.840      -47.430      -25.497      101.408      115.303       55.422    10283.591    13294.832     3071.583        6.818        1.333      330.264       49.559        0.023      340.422       14.427      865.966
12/21/2014  16:22:00     -150.439       -7.436        9.963       87.136       82.516       52.328     7592.661     6808.940     2738.211        1.996        0.857      150.623       52.127        0.120      340.534       14.620      865.964
12/21/2014  16:23:00     -255.646      -10.776      -22.389      103.151       69.813       50.533    10640.094     4873.803     2553.630        4.202        0.903      255.873       46.783        0.033      340.401       14.393      865.976
12/21/2014  16:24:00     -305.248      -63.037      -25.784       82.582       73.385       45.846     6819.852     5385.420     2101.819        5.606        0.715      311.689       33.229        0.011      340.328       14.269      865.984
12/21/2014  16:25:00     -207.456      -60.838        6.199      116.330      102.537       59.977    13532.626    10513.859     3597.191        3.721        1.382      216.193       67.195        0.097      340.301       14.224      865.996
12/21/2014  16:26:00     -178.165      -40.653      -10.451      136.126      105.317       59.443    18530.323    11091.589     3533.487        3.332        1.658      182.744       65.130        0.127      340.298       14.221      866.002
12/21/2014  16:27:00     -238.954      -23.254      -14.439       99.427       99.406       54.334     9885.781     9881.544     2952.190        4.028        1.136      240.083       48.343        0.041      340.367       14.334      865.997
12/21/2014  16:28:00     -300.053      -36.132      -11.280      136.887      111.585       68.508    18738.181    12451.185     4693.388        6.367        1.794      302.221       77.125        0.065      340.341       14.293      865.968
12/21/2014  16:29:00     -379.185      -89.223      -28.346      158.129      126.948       64.791    25004.884    16115.891     4197.934        9.892        2.266      389.541       49.720        0.016      340.375       14.350      865.948
12/21/2014  16:30:00     -479.101      -51.781      -13.467      211.003      134.876       78.848    44522.441    18191.593     6216.930       15.065        3.447      481.891       75.052        0.024      340.366       14.333      865.943
12/21/2014  16:31:00     -353.207      -53.289      -17.008      141.639      118.066       82.382    20061.641    13939.486     6786.803        8.433        2.039      357.204       78.908        0.049      340.389       14.371      865.950
12/21/2014  16:32:00     -341.515      -11.202      -17.649      183.259      109.456       71.083    33583.978    11980.629     5052.790        8.383        2.531      341.699       73.383        0.046      340.456       14.487      865.931
12/21/2014  16:33:00     -239.408      -92.187      -14.885      132.332      108.897       51.069    17511.814    11858.659     2607.992        4.900        1.599      256.544       46.196        0.032      340.394       14.382      865.884
12/21/2014  16:34:00     -238.564      -24.737        0.549      146.375       97.093       61.559    21425.560     9427.019     3789.461        4.608        1.732      239.843       71.904        0.090      340.497       14.556      865.851
12/21/2014  16:35:00     -407.000      -22.267      -23.525      143.900      115.591       73.045    20707.266    13361.260     5335.572       10.304        1.970      407.609       78.777        0.037      340.439       14.457      865.821
12/21/2014  16:36:00     -287.190      -46.986       -3.302      170.105      144.412       72.612    28935.749    20854.899     5272.445        6.987        2.753      291.008       77.778        0.071      340.489       14.541      865.797
12/21/2014  16:37:00     -268.990     -149.947       -7.289      150.853      127.682       70.744    22756.660    16302.652     5004.648        6.947        2.203      307.961       74.718        0.059      340.372       14.344      865.763
12/21/2014  16:38:00     -265.068     -154.611       -4.173      168.526      154.624       82.069    28401.098    23908.446     6735.379        7.660        2.952      306.864       68.502        0.050      340.381       14.359      865.749
12/21/2014  16:39:00     -285.010      -58.294        8.889      231.365      133.406      100.328    53529.719    17797.236    10065.756        8.303        4.070      290.911      132.649        0.208      340.413       14.413      865.748
12/21/2014  16:40:00     -301.903      -95.691      -15.892      135.359      115.008       63.475    18322.150    13226.816     4029.091        6.806        1.779      316.705       59.616        0.035      340.444       14.465      865.763
12/21/2014  16:41:00     -277.557      -86.023      -20.540      199.585      141.765       70.294    39834.122    20097.174     4941.192        7.485        3.244      290.582       79.377        0.075      340.468       14.508      865.771
12/21/2014  16:42:00     -388.580     -106.163       -2.935      180.637      146.881       81.294    32629.586    21574.136     6608.721       11.153        3.041      402.822       94.334        0.055      340.438       14.455      865.773
12/21/2014  16:43:00     -361.095        4.090      -20.659      121.399      113.484       65.157    14737.612    12878.717     4245.482        8.134        1.593      361.119       46.976        0.017      340.480       14.526      865.784
12/21/2014  16:44:00     -184.688      -47.284       -5.083      177.634      103.365       67.505    31554.001    10684.396     4556.929        4.157        2.340      190.645       68.693        0.130      340.396       14.386      865.764
12/21/2014  16:45:00     -298.924      -62.381      -18.533      145.428       78.812       65.271    21149.241     6211.381     4260.298        6.260        1.581      305.364       66.567        0.048      340.375       14.350      865.764
12/21/2014  16:46:00     -236.029      -93.324        3.315      168.966      145.071       87.718    28549.510    21045.679     7694.450        6.085        2.864      253.810       97.254        0.147      340.329       14.273      865.733
12/21/2014  16:47:00     -410.260     -157.951      -37.056      156.923      133.412       68.619    24624.723    17798.744     4708.548       12.087        2.357      439.615       72.332        0.027      340.424       14.432      865.713
12/21/2014  16:48:00     -293.529      -47.930       -8.229      135.933      107.507       51.077    18477.891    11557.764     2608.819        6.058        1.632      297.417       52.500        0.031      340.360       14.324      865.731
12/21/2014  16:49:00     -273.534      -69.069      -12.493      139.349      143.729       52.981    19418.159    20658.111     2807.029        6.131        2.144      282.120       52.413        0.035      340.385       14.365      865.749
12/21/2014  16:50:00     -373.950      -71.987      -39.117      117.000      152.751       83.687    13688.929    23332.971     7003.432        9.528        2.201      380.816       73.328        0.037      340.346       14.301      865.756
12/21/2014  16:51:00     -250.031      -44.056        5.987      160.623      111.336       76.844    25799.794    12395.612     5905.051        5.429        2.205      253.882       83.277        0.108      340.310       14.239      865.782
12/21/2014  16:52:00     -335.468      -44.930      -13.991      132.055       86.789       63.759    17438.619     7532.250     4065.236        7.189        1.452      338.464       64.081        0.036      340.311       14.239      865.822
12/21/2014  16:53:00     -294.374        0.073      -13.912      127.834       98.765       55.718    16341.501     9754.607     3104.458        5.802        1.460      294.374       51.363        0.030      340.445       14.468      865.827
12/21/2014  16:54:00     -346.787      -45.662      -21.217      159.337      114.075       70.133    25388.334    13013.058     4918.600        8.305        2.166      349.780       62.653        0.032      340.381       14.357      865.839
12/21/2014  16:55:00     -350.560       -6.214       -7.593      152.578       95.800       76.819    23279.972     9177.709     5901.104        8.067        1.918      350.615       86.127        0.060      340.366       14.333      865.850
12/21/2014  16:56:00     -195.744      -21.228       -2.542      128.496       71.722       55.093    16511.229     5143.998     3035.196        3.173        1.235      196.892       61.923        0.099      340.367       14.336      865.890
12/21/2014  16:57:00     -295.755      -28.999      -15.866      147.946       97.530       62.157    21888.092     9512.065     3863.435        6.191        1.763      297.173       73.847        0.062      340.279       14.186      865.926
12/21/2014  16:58:00     -171.679      -39.210      -10.243       94.293       92.335       46.074     8891.137     8525.709     2122.833        2.532        0.977      176.100       50.918        0.084      340.286       14.201      865.955
12/21/2014  16:59:00     -168.253      -70.409        0.543       98.590       84.146       52.575     9720.075     7080.505     2764.134        2.641        0.978      182.391       49.233        0.073      340.171       14.005      865.979
12/21/2014  17:00:00     -124.609      -55.513       10.438      116.545       78.066       46.021    13582.685     6094.321     2117.933        2.025        1.090      136.416       47.097        0.119      340.182       14.024      866.020
12/21/2014  17:01:00     -419.568      -43.928      -31.928      136.258       90.761       66.680    18566.257     8237.554     4446.229       10.511        1.563      421.861       69.766        0.027      340.198       14.048      866.055
12/21/2014  17:02:00     -191.019      -36.549       -3.356      102.017       91.634       49.105    10407.532     8396.828     2411.282        2.952        1.061      194.484       43.574        0.050      340.199       14.052      866.095
12/21/2014  17:03:00     -252.078      -30.588      -29.731      109.156      128.411       53.350    11915.137    16489.441     2846.264        4.830        1.563      253.927       53.176        0.044      340.349       14.305      866.130
12/21/2014  17:04:00     -286.264        3.617      -12.667      136.676      140.909       65.859    18680.439    19855.390     4337.469        6.249        2.144      286.287       65.964        0.053      340.235       14.112      866.145
12/21/2014  17:05:00     -205.730      -68.506        5.193      170.905      121.103       68.076    29208.598    14665.898     4634.361        4.777        2.425      216.836       81.880        0.143      340.248       14.136      866.142
12/21/2014  17:06:00     -243.745      -37.987        6.884      154.336      124.330       67.629    23819.715    15458.042     4573.638        5.237        2.193      246.687       75.132        0.093      340.289       14.204      866.161
12/21/2014  17:07:00     -380.753       18.568      -23.449      263.001      171.107       78.507    69169.509    29277.772     6163.378       12.522        5.231      381.206      111.975        0.086      340.330       14.273      866.190
12/21/2014  17:08:00     -133.160      -16.687        8.602      148.855       61.905       57.152    22157.718     3832.254     3266.343        2.366        1.463      134.201       75.056        0.313      340.253       14.144      866.198
12/21/2014  17:09:00     -312.805      -35.167      -19.197      129.063      107.126       50.915    16657.301    11475.977     2592.292        6.508        1.536      314.775       54.028        0.029      340.310       14.239      866.241
12/21/2014  17:10:00     -175.826        0.565      -19.965       91.177       84.345       44.441     8313.278     7114.073     1975.014        2.435        0.870      175.827       38.140        0.047      340.293       14.212      866.284
12/21/2014  17:11:00     -173.579        8.577      -24.635       82.602       72.846       37.634     6823.153     5306.483     1416.355        2.218        0.677      173.791       31.478        0.033      340.228       14.102      866.323
12/21/2014  17:12:00      -89.310       -8.297       -5.452       70.151       78.778       37.570     4921.110     6206.035     1411.512        1.030        0.627       89.695       23.377        0.068      340.246       14.135      866.355
12/21/2014  17:13:00      -48.542       67.190       -4.404       81.200       61.061       39.099     6593.362     3728.404     1528.694        0.937        0.593       82.891       46.964        0.321      340.260       14.157      866.363
12/21/2014  17:14:00       -7.108       64.245        4.613       44.668       47.278       31.827     1995.197     2235.246     1012.974        0.472        0.262       64.637       28.939        0.200      340.190       14.040      866.410
12/21/2014  17:15:00      -72.647       91.455       -3.588       46.485       56.368       36.452     2160.864     3177.337     1328.734        1.016        0.333      116.798       33.767        0.084      340.159       13.987      866.483
12/21/2014  17:16:00      -39.408       78.070       -9.048       33.488       59.887       22.696     1121.422     3586.503      515.122        0.648        0.261       87.452       26.601        0.093      340.101       13.890      866.530
12/21/2014  17:17:00      -37.019       68.285        0.030       48.797       53.180       32.239     2381.182     2828.128     1039.330        0.614        0.312       77.674       30.737        0.157      340.119       13.919      866.524
12/21/2014  17:18:00      -63.668        8.887      -13.964       70.843       54.393       30.433     5018.722     2958.632      926.188        0.661        0.445       64.286       27.138        0.178      340.164       13.996      866.578
12/21/2014  17:19:00     -258.992      -63.884      -13.499      217.665      122.580       63.872    47378.083    15025.947     4079.589        6.890        3.324      266.755       73.895        0.077      340.093       13.874      866.600
12/21/2014  17:20:00     -120.597      -58.280       22.991      175.540       86.490       56.069    30814.383     7480.544     3143.678        2.995        2.072      133.941       67.683        0.255      339.951       13.635      866.573
12/21/2014  17:21:00     -249.400      -45.298      -13.941      113.119      103.168       56.662    12795.851    10643.732     3210.599        4.554        1.333      253.481       62.445        0.061      339.967       13.659      866.556
12/21/2014  17:22:00     -324.794      -15.986      -27.807       99.904       66.903       48.149     9980.779     4476.054     2318.288        6.164        0.839      325.187       48.482        0.022      339.963       13.652      866.626
12/21/2014  17:23:00     -166.721      -43.961       -5.243       80.936       60.453       38.488     6550.634     3654.547     1481.312        2.072        0.584      172.419       25.858        0.022      339.953       13.639      866.618
12/21/2014  17:24:00     -122.158      -25.996      -10.552       77.713       70.014       46.421     6039.339     4901.912     2154.863        1.440        0.655      124.893       37.897        0.092      339.903       13.554      866.619
12/21/2014  17:25:00     -148.887      -11.073      -17.078       90.076       80.789       50.631     8113.679     6526.839     2563.537        1.989        0.860      149.298       52.571        0.124      339.864       13.487      866.641
12/21/2014  17:26:00     -200.690      -24.417        6.227      127.067      127.563       67.373    16146.044    16272.305     4539.112        3.893        1.848      202.170       64.355        0.101      339.978       13.679      866.637
12/21/2014  17:27:00     -156.798      -44.577       -9.260      128.390      120.179       57.469    16484.057    14442.988     3302.661        3.044        1.711      163.011       47.719        0.086      340.053       13.806      866.653
12/21/2014  17:28:00     -174.820      -13.591      -48.632      129.235      160.501       66.928    16701.594    25760.688     4479.310        4.002        2.347      175.348       70.028        0.159      340.038       13.779      866.691
12/21/2014  17:29:00     -171.133       21.132      -12.849       99.377       98.560       55.007     9875.714     9713.984     3025.790        2.625        1.131      172.433       46.045        0.071      340.120       13.919      866.705
12/21/2014  17:30:00     -231.691      -99.840      -19.605       97.882       91.131       54.918     9580.859     8304.830     3015.973        4.246        1.045      252.287       38.043        0.023      339.990       13.700      866.733
12/21/2014  17:31:00      -98.721      -30.011       -4.834      129.752       62.003       54.292    16835.557     3844.354     2947.570        1.714        1.181      103.182       41.974        0.165      339.935       13.608      866.700
12/21/2014  17:32:00     -186.169      -58.268      -17.481      114.952       83.989       62.640    13214.058     7054.116     3923.818        3.127        1.210      195.074       39.781        0.042      339.937       13.609      866.643
12/21/2014  17:33:00     -352.926      -44.897      -25.888      130.889      112.284       65.973    17131.829    12607.640     4352.402        8.066        1.705      355.770       68.565        0.037      340.077       13.844      866.629
12/21/2014  17:34:00     -339.662      -75.919      -16.167      151.297      123.641       78.505    22890.777    15287.061     6163.047        8.286        2.217      348.043       66.471        0.036      339.983       13.687      866.642
12/21/2014  17:35:00     -256.903      -73.966      -14.493      134.997       92.775       59.053    18224.180     8607.246     3487.304        5.099        1.516      267.339       61.081        0.052      339.933       13.602      866.606
12/21/2014  17:36:00     -262.046      -47.380       -6.917      160.644      140.055       61.213    25806.511    19615.288     3747.029        6.005        2.458      266.295       66.404        0.062      339.956       13.642      866.580
12/21/2014  17:37:00     -371.186      -85.195      -22.410      155.385      108.331       67.005    24144.496    11735.556     4489.734        9.295        2.018      380.837       72.510        0.036      339.891       13.530      866.571
12/21/2014  17:38:00     -337.260      -71.300      -32.289      199.299      164.843       77.477    39720.181    27173.082     6002.700        9.637        3.645      344.715       65.250        0.036      339.977       13.678      866.528
12/21/2014  17:39:00     -397.492      -88.888      -25.064      200.149      128.501       78.537    40059.610    16512.548     6168.138       11.462        3.137      407.309       96.071        0.056      339.983       13.687      866.549
12/21/2014  17:40:00     -483.441      -62.985      -25.426      268.280      168.918       98.231    71974.227    28533.454     9649.278       17.422        5.508      487.526      124.997        0.066      340.080       13.851      866.587
12/21/2014  17:41:00     -336.547     -158.981       -6.096      161.170      151.062       82.790    25975.818    22819.747     6854.229        9.710        2.782      372.208       75.760        0.041      340.076       13.844      866.583
12/21/2014  17:42:00     -437.568      -86.268      -27.684      167.481      164.904       76.481    28049.797    27193.222     5849.342       13.037        3.055      445.991       47.873        0.012      340.162       13.988      866.592
12/21/2014  17:43:00     -277.546      -67.826      -10.592      199.935      121.071       82.394    39974.045    14658.130     6788.757        7.157        3.071      285.713       85.278        0.089      340.101       13.887      866.588
12/21/2014  17:44:00     -411.898      -61.604      -30.300      176.508      161.919       68.604    31155.206    26217.760     4706.530       11.821        3.104      416.479       60.745        0.021      340.171       14.003      866.568
12/21/2014  17:45:00     -445.529     -129.200      -35.854      193.557      126.546       82.348    37464.248    16013.824     6781.195       13.836        3.013      463.885       90.031        0.038      340.085       13.858      866.584
12/21/2014  17:46:00     -292.178      -34.288      -13.194      130.135      112.282       69.913    16935.003    12607.325     4887.859        6.057        1.722      294.183       79.682        0.073      340.069       13.832      866.616
12/21/2014  17:47:00     -318.358      -67.636      -25.837      155.354      121.865       67.611    24134.729    14851.095     4571.205        7.507        2.178      325.463       55.095        0.029      339.986       13.693      866.641
12/21/2014  17:48:00     -257.735      -46.080       10.668      167.703      143.367       78.184    28124.316    20554.138     6112.682        6.172        2.740      261.822       89.214        0.116      339.974       13.672      866.666
12/21/2014  17:49:00     -385.328      -12.246      -18.232      185.740      108.459       77.327    34499.434    11763.357     5979.533       10.059        2.612      385.523       96.879        0.063      340.014       13.739      866.723
12/21/2014  17:50:00     -257.636       -1.169      -15.781      132.701      102.669       74.170    17609.495    10540.999     5501.153        5.013        1.683      257.638       72.595        0.079      340.147       13.963      866.731
12/21/2014  17:51:00     -325.950      -60.099       -9.525      177.456      109.351       69.497    31490.639    11957.691     4829.772        7.910        2.414      331.444       76.699        0.054      339.999       13.713      866.744
12/21/2014  17:52:00     -354.920      -33.028      -32.894      101.686      131.670       57.731    10339.959    17336.980     3332.894        7.957        1.550      356.453       49.174        0.019      340.059       13.814      866.774
12/21/2014  17:53:00     -347.799      -52.180      -28.509      120.381      106.192       69.864    14491.519    11276.769     4880.950        7.757        1.532      351.692       59.808        0.029      340.073       13.838      866.780
12/21/2014  17:54:00     -323.595      -77.397       -9.832      105.568      112.470       65.236    11144.647    12649.608     4255.702        6.942        1.402      332.722       57.397        0.030      340.012       13.735      866.794
12/21/2014  17:55:00     -266.630      -79.209       -6.872      105.447      106.499       62.837    11118.977    11342.114     3948.528        5.191        1.320      278.147       60.893        0.048      339.996       13.709      866.799
12/21/2014  17:56:00     -140.225      -64.304       17.089      166.715      115.439       69.704    27793.805    13326.135     4858.586        3.503        2.299      154.266       65.338        0.179      339.961       13.650      866.805
12/21/2014  17:57:00     -396.251     -101.350      -32.507      139.735      115.414       55.525    19525.824    13320.442     3082.994       10.213        1.796      409.007       54.879        0.018      340.078       13.847      866.806
12/21/2014  17:58:00     -369.792      -57.594      -20.242      183.000      140.042       76.779    33489.006    19611.733     5894.956        9.972        2.950      374.251       77.484        0.043      340.058       13.814      866.788
12/21/2014  17:59:00     -278.925      -34.422      -12.701      116.054      115.083       74.759    13468.585    13244.091     5588.974        5.572        1.615      281.041       61.170        0.047      340.097       13.878      866.794
12/21/2014  18:00:00     -279.211      -54.269      -15.722      128.060       78.599       54.339    16399.396     6177.868     2952.724        5.334        1.276      284.436       59.548        0.044      340.062       13.820      866.812
12/21/2014  18:01:00     -453.843      -79.673      -29.996      271.212      151.444       84.011    73556.072    22935.193     7057.872       15.836        5.177      460.784      113.446        0.061      340.094       13.874      866.832
12/21/2014  18:02:00     -428.985       -5.205      -20.433      219.381      193.677       79.782    48127.958    37510.730     6365.188       13.822        4.600      429.017       81.159        0.036      340.164       13.992      866.833
12/21/2014  18:03:00     -165.543      -34.091       -7.006      130.837      133.109       63.955    17118.244    17718.105     4090.297        3.376        1.946      169.017       57.898        0.117      340.095       13.877      866.858
12/21/2014  18:04:00     -258.931      -73.722       -4.434      104.985      117.521       52.378    11021.823    13811.269     2743.486        5.003        1.379      269.222       40.536        0.023      340.042       13.785      866.870
12/21/2014  18:05:00     -174.246      -10.686       -2.420      102.085       85.630       52.662    10421.257     7332.537     2773.247        2.550        1.026      174.573       46.116        0.070      340.086       13.862      866.884
12/21/2014  18:06:00     -284.541      -28.823       -9.497      180.471       75.948       61.583    32569.833     5768.086     3792.481        6.200        2.107      285.997       75.608        0.070      340.040       13.784      866.902
12/21/2014  18:07:00     -219.028       -2.900      -18.074      203.192       87.623       66.611    41286.874     7677.751     4437.079        5.084        2.670      219.047       94.024        0.184      340.010       13.733      866.901
12/21/2014  18:08:00     -167.153      -58.569       -6.694      136.801       94.424       49.105    18714.570     8915.950     2411.304        3.072        1.502      177.117       48.823        0.076      339.914       13.572      866.897
12/21/2014  18:09:00     -404.438       -4.317      -44.270      123.431      111.608       56.672    15235.235    12456.241     3211.694        9.822        1.545      404.461       54.759        0.018      340.030       13.766      866.902
12/21/2014  18:10:00     -326.689     -108.450      -39.208      166.753      128.399       80.984    27806.544    16486.431     6558.410        8.543        2.543      344.220       83.771        0.059      340.001       13.717      866.898
12/21/2014  18:11:00     -413.429      -84.731      -26.850      144.480      113.055       72.160    20874.500    12781.496     5207.103       10.884        1.943      422.022       76.326        0.033      339.980       13.682      866.933
12/21/2014  18:12:00     -266.647        3.725      -23.484      160.119      132.671       60.996    25638.199    17601.704     3720.514        5.930        2.348      266.673       61.350        0.053      340.031       13.770      866.936
12/21/2014  18:13:00     -171.598      -70.444       -6.392      134.375      107.392       76.452    18056.634    11533.028     5844.843        3.493        1.772      185.494       55.123        0.088      339.906       13.558      866.912
12/21/2014  18:14:00     -402.278      -49.646      -20.676      154.911      127.524       69.210    23997.380    16262.327     4789.990       10.488        2.252      405.330       69.070        0.029      339.956       13.642      866.945
12/21/2014  18:15:00     -263.176      -22.021        7.337      195.930      129.917       94.945    38388.504    16878.304     9014.605        6.703        3.214      264.095      112.093        0.180      340.032       13.770      866.959
12/21/2014  18:16:00     -473.151     -127.446      -39.755      162.635      111.029       72.824    26450.037    12327.469     5303.387       14.288        2.204      490.015       69.455        0.020      339.984       13.689      866.990
12/21/2014  18:17:00     -491.468      -73.185      -51.086      198.643      146.225       75.292    39458.980    21381.711     5668.910       15.800        3.325      496.888       81.298        0.027      340.045       13.792      867.038
12/21/2014  18:18:00     -293.126      -86.181      -10.464      186.978      116.224       81.290    34960.916    13508.035     6608.011        7.426        2.754      305.532       87.100        0.081      340.045       13.791      867.049
12/21/2014  18:19:00     -342.563      -77.753      -14.851      104.013      110.303       59.811    10818.715    12166.672     3577.352        7.508        1.328      351.276       49.939        0.020      339.950       13.632      867.087
12/21/2014  18:20:00     -328.900      -22.743      -34.618      124.037       96.887       52.337    15385.139     9387.072     2739.147        6.870        1.376      329.685       40.127        0.015      339.966       13.658      867.114
12/21/2014  18:21:00     -375.996     -117.882      -22.191      124.247      106.095       56.230    15437.417    11256.243     3161.837        9.280        1.493      394.042       55.013        0.019      339.952       13.634      867.113
12/21/2014  18:22:00     -237.439       -4.484       -9.123       97.931       82.888       59.521     9590.573     6870.441     3542.706        3.824        1.000      237.482       54.222        0.052      340.067       13.828      867.125
12/21/2014  18:23:00     -341.434      -41.306      -32.707      189.617       93.462       56.183    35954.776     8735.060     3156.559        8.359        2.392      343.923       66.796        0.038      340.001       13.716      867.133
12/21/2014  18:24:00     -411.340      -54.713      -28.886      141.189      124.253       71.503    19934.433    15438.688     5112.640       10.675        2.024      414.963       72.159        0.030      339.976       13.675      867.153
12/21/2014  18:25:00     -279.846      -46.054       -5.942       87.401       96.215       48.376     7638.910     9257.400     2340.207        4.985        0.962      283.610       38.629        0.019      339.918       13.575      867.181
12/21/2014  18:26:00     -149.425      -56.668        4.010       86.999       78.726       52.597     7568.810     6197.765     2766.394        2.104        0.827      159.810       41.607        0.068      339.885       13.522      867.162
12/21/2014  18:27:00     -289.090        2.690      -31.918      157.550       88.617       51.951    24822.113     7853.022     2698.922        5.998        1.769      289.102       61.500        0.045      339.899       13.544      867.132
12/21/2014  18:28:00     -345.125      -74.134      -28.258      190.625      117.381       66.379    36337.808    13778.361     4406.157        8.995        2.726      352.997       68.807        0.038      339.941       13.616      867.109
12/21/2014  18:29:00     -356.707      -73.024      -26.250      134.057      110.228       60.924    17971.323    12150.144     3711.724        8.354        1.692      364.105       56.686        0.024      339.957       13.643      867.087
12/21/2014  18:30:00     -239.959       -9.986       -9.255      129.430       90.926       64.466    16751.998     8267.621     4155.870        4.346        1.459      240.167       73.319        0.093      339.981       13.685      867.102
12/21/2014  18:31:00     -213.570       -0.800      -10.896       85.854       78.072       46.779     7370.962     6095.252     2188.240        3.069        0.783      213.572       46.152        0.047      339.993       13.703      867.085
12/21/2014  18:32:00     -209.853      -32.772        0.220      114.058      109.100       49.010    13009.240    11902.711     2401.985        3.621        1.366      212.396       48.001        0.051      339.879       13.512      867.077
12/21/2014  18:33:00     -140.404      -22.527        6.792       91.577      106.121       51.513     8386.309    11261.709     2653.577        2.128        1.115      142.200       53.797        0.143      339.809       13.395      867.085
12/21/2014  18:34:00      -75.084       16.263       23.939       90.358       79.839       59.515     8164.641     6374.325     3542.030        1.227        0.904       76.825       58.147        0.573      339.796       13.375      867.092
12/21/2014  18:35:00     -138.064        4.900       -2.924       80.575       74.647       42.805     6492.315     5572.145     1832.230        1.649        0.695      138.151       42.795        0.096      339.942       13.619      867.101
12/21/2014  18:36:00     -204.670      -40.622       -2.753      143.119      130.124       61.766    20482.907    16932.308     3815.018        4.238        2.062      208.662       62.739        0.090      339.824       13.419      867.105
12/21/2014  18:37:00     -313.302      -51.006      -16.138      131.241      137.469       69.033    17224.157    18897.745     4765.607        7.095        2.044      317.427       74.206        0.055      339.793       13.367      867.113
12/21/2014  18:38:00     -225.796      -43.611       -4.273      134.781      107.817       58.922    18166.046    11624.431     3471.758        4.308        1.663      229.969       60.164        0.068      339.714       13.235      867.119
12/21/2014  18:39:00     -286.931      -33.181       -3.580      107.792      111.344       60.727    11619.207    12397.581     3687.774        5.557        1.385      288.844       55.868        0.037      339.757       13.306      867.123
12/21/2014  18:40:00     -249.225      -68.637      -10.680      115.596      125.871       55.096    13362.511    15843.584     3035.585        4.958        1.612      258.504       57.284        0.049      339.726       13.254      867.114
12/21/2014  18:41:00     -357.280      -94.317      -28.359      109.420       87.173       62.009    11972.697     7599.115     3845.159        8.038        1.171      369.520       55.017        0.022      339.671       13.161      867.119
12/21/2014  18:42:00     -316.297      -72.887      -19.103      148.874       83.966       48.991    22163.477     7050.289     2400.140        6.866        1.581      324.586       43.642        0.018      339.652       13.129      867.124
12/21/2014  18:43:00     -273.435      -25.687      -20.223       95.009       94.861       50.687     9026.645     8998.704     2569.128        4.821        1.030      274.638       43.157        0.025      339.730       13.262      867.140
12/21/2014  18:44:00     -279.026      -41.313      -16.844       96.861       75.431       52.049     9382.118     5689.844     2709.113        4.881        0.889      282.068       55.405        0.039      339.671       13.161      867.167
12/21/2014  18:45:00     -202.402       -8.205      -11.773      110.019       81.275       50.863    12104.144     6605.688     2587.043        3.123        1.065      202.568       46.593        0.053      339.680       13.177      867.179
12/21/2014  18:46:00     -339.295      -33.825      -35.694      105.977      123.381       50.343    11231.209    15222.785     2534.420        7.326        1.449      340.977       32.475        0.009      339.749       13.294      867.188
12/21/2014  18:47:00     -238.986      -43.983      -13.945       98.982       86.016       55.560     9797.425     7398.773     3086.946        3.976        1.014      243.000       50.602        0.043      339.724       13.250      867.193
12/21/2014  18:48:00     -190.612      -11.255       -7.988       97.316       72.670       43.974     9470.446     5280.858     1933.695        2.660        0.834      190.944       44.791        0.055      339.691       13.196      867.216
12/21/2014  18:49:00     -124.027      -46.725       11.534      100.538       76.474       42.354    10107.887     5848.301     1793.898        1.772        0.888      132.537       49.598        0.140      339.667       13.154      867.221
12/21/2014  18:50:00     -125.901       23.728       -1.422       76.623       53.881       39.889     5871.109     2903.148     1591.167        1.339        0.518      128.117       39.624        0.096      339.795       13.373      867.245
12/21/2014  18:51:00     -155.855        6.706      -18.695       85.818       62.359       45.241     7364.796     3888.672     2046.715        1.899        0.665      155.999       45.443        0.085      339.927       13.595      867.289
12/21/2014  18:52:00     -201.867      -22.141       -8.246       83.135       63.046       41.095     6911.453     3974.780     1688.839        2.694        0.629      203.078       33.859        0.028      339.776       13.339      867.305
12/21/2014  18:53:00     -163.257      -21.956      -14.910       84.578       40.914       33.316     7153.376     1673.920     1109.952        1.865        0.497      164.727       38.108        0.054      339.714       13.235      867.307
12/21/2014  18:54:00     -220.320      -43.417      -21.030       79.464       50.308       33.814     6314.448     2530.935     1143.365        3.043        0.499      224.557       30.252        0.018      339.771       13.330      867.319
12/21/2014  18:55:00     -133.852      -71.432      -14.347       67.045       59.023       36.572     4494.991     3483.689     1337.528        1.627        0.466      151.720       30.736        0.041      339.718       13.242      867.356
12/21/2014  18:56:00      -83.261       12.406       -4.002       46.122       36.897       27.224     2127.234     1361.404      741.163        0.567        0.211       84.180       23.679        0.079      339.808       13.395      867.386
12/21/2014  18:57:00      -54.468       18.037        1.962       41.424       59.134       27.611     1715.941     3496.863      762.342        0.463        0.299       57.376       25.693        0.201      339.792       13.368      867.418
12/21/2014  18:58:00     -107.228        2.595       -6.740       54.477       65.646       34.761     2967.705     4309.369     1208.336        1.002        0.424      107.259       25.405        0.056      339.899       13.549      867.416
12/21/2014  18:59:00     -156.512      -42.248       -3.198       84.066      135.774       50.354     7067.029    18434.696     2535.562        2.716        1.402      162.114       39.453        0.059      339.724       13.252      867.393
12/21/2014  19:00:00      -51.213      -28.837        8.748       80.855       80.921       35.459     6537.454     6548.183     1257.328        0.893        0.717       58.773       33.535        0.326      339.640       13.112      867.387
12/21/2014  19:01:00       13.553       51.838        6.986       43.139       45.052       24.404     1860.933     2029.684      595.536        0.370        0.224       53.581       30.838        0.331      339.690       13.196      867.395
12/21/2014  19:02:00      -75.543       87.608      -18.580       39.904       45.523       24.578     1592.342     2072.311      604.068        0.900        0.213      115.680       17.109        0.022      339.835       13.441      867.428
12/21/2014  19:03:00      -95.552      -26.497      -13.895       37.780       35.554       22.636     1427.353     1264.092      512.383        0.661        0.160       99.158       13.697        0.019      339.770       13.331      867.442
12/21/2014  19:04:00     -126.723      -70.132      -11.839       34.220       27.385       22.662     1170.981      749.943      513.571        1.178        0.122      144.835       12.753        0.008      339.571       12.997      867.452
12/21/2014  19:05:00     -157.466      -55.586       -8.055       46.904       61.018       31.715     2199.965     3723.181     1005.826        1.744        0.346      166.990       22.492        0.018      339.566       12.986      867.454
12/21/2014  19:06:00     -163.616      -14.490      -16.734       50.684       46.539       32.075     2568.833     2165.921     1028.807        1.651        0.288      164.256       26.111        0.025      339.725       13.253      867.430
12/21/2014  19:07:00      -65.187      -19.117       -0.747       40.705       40.766       21.690     1656.896     1661.833      470.453        0.420        0.189       67.933       22.127        0.106      339.661       13.148      867.418
12/21/2014  19:08:00     -168.282       -7.794      -13.497       64.182       45.148       26.065     4119.278     2038.375      679.395        1.770        0.342      168.462       28.505        0.029      339.683       13.183      867.413
12/21/2014  19:09:00     -175.182      -24.384       -9.509       75.048       71.322       44.474     5632.210     5086.776     1977.934        2.203        0.635      176.871       44.372        0.063      339.733       13.267      867.411
12/21/2014  19:10:00     -125.822      -43.498       -1.206       47.099       51.815       30.878     2218.327     2684.768      953.448        1.179        0.293      133.129       19.072        0.021      339.611       13.061      867.422
12/21/2014  19:11:00     -172.502      -53.594       -8.531       56.071       45.729       28.969     3143.953     2091.136      839.224        1.939        0.304      180.636       26.397        0.021      339.526       12.919      867.432
12/21/2014  19:12:00     -167.447      -45.169      -15.939       48.955       56.095       33.958     2396.586     3146.702     1153.157        1.851        0.335      173.432       30.312        0.031      339.552       12.961      867.437
12/21/2014  19:13:00     -159.006      -89.914       -5.930       70.228       54.279       41.429     4931.943     2946.257     1716.347        2.150        0.480      182.667       39.253        0.046      339.482       12.843      867.412
12/21/2014  19:14:00     -241.414      -65.291      -25.110       68.835       59.458       28.275     4738.272     3535.246      799.455        3.612        0.454      250.088       27.193        0.012      339.514       12.895      867.405
12/21/2014  19:15:00     -159.327      -59.135       -2.837       78.507       65.230       34.900     6163.382     4254.944     1218.030        2.026        0.582      169.947       32.476        0.037      339.545       12.949      867.404
12/21/2014  19:16:00     -171.311      -37.401       -6.900      104.467       66.945       46.707    10913.414     4481.609     2181.518        2.418        0.879      175.346       54.391        0.096      339.563       12.979      867.414
12/21/2014  19:17:00     -153.409      -70.554       -8.319       82.234       57.358       32.239     6762.430     3289.939     1039.380        1.983        0.555      168.855       35.973        0.045      339.500       12.874      867.420
12/21/2014  19:18:00     -151.205      -34.843       -8.154       74.747       70.107       38.500     5587.068     4914.985     1482.224        1.806        0.599      155.168       38.979        0.063      339.474       12.830      867.420
12/21/2014  19:19:00     -288.732      -53.017      -21.578       79.074       92.465       47.141     6252.632     8549.771     2222.276        5.183        0.851      293.559       33.331        0.013      339.623       13.078      867.420
12/21/2014  19:20:00     -203.282       10.768      -10.024      123.098       69.643       52.570    15153.225     4850.209     2763.572        3.215        1.138      203.567       56.278        0.076      339.751       13.296      867.436
12/21/2014  19:21:00     -256.289        0.243      -16.832      111.600       64.814       52.952    12454.504     4200.793     2803.915        4.271        0.973      256.289       50.948        0.040      339.806       13.389      867.432
12/21/2014  19:22:00     -217.893      -64.168      -17.491       69.469       61.186       39.733     4825.907     3743.707     1578.676        3.102        0.507      227.145       38.809        0.029      339.615       13.066      867.452
12/21/2014  19:23:00     -156.572      -45.384       -6.169       82.561       65.315       39.868     6816.313     4266.026     1589.423        1.964        0.634      163.017       40.605        0.062      339.504       12.881      867.446
12/21/2014  19:24:00     -158.305      -72.961       -6.836      120.155       77.684       44.434    14437.194     6034.838     1974.406        2.643        1.122      174.310       54.525        0.098      339.487       12.851      867.466
12/21/2014  19:25:00     -183.293      -35.244       -5.110      107.813       71.492       51.814    11623.647     5111.152     2684.655        2.714        0.971      186.651       53.759        0.083      339.549       12.956      867.467
12/21/2014  19:26:00     -226.964      -48.411      -19.328       93.332       80.910       49.363     8710.869     6546.396     2436.695        3.596        0.885      232.069       45.952        0.039      339.566       12.983      867.486
12/21/2014  19:27:00     -154.450      -73.454       -4.131      100.973       72.360       51.085    10195.609     5236.021     2609.702        2.365        0.902      171.027       46.431        0.074      339.516       12.902      867.502
12/21/2014  19:28:00     -296.135     -103.815       -9.512      111.011       92.452       52.629    12323.384     8547.397     2769.776        6.110        1.182      313.805       53.533        0.029      339.570       12.991      867.514
12/21/2014  19:29:00     -250.437      -75.289       -7.551       94.806       95.332       43.422     8988.165     9088.203     1885.444        4.420        0.998      261.510       38.359        0.022      339.563       12.979      867.536
12/21/2014  19:30:00     -203.516      -38.073       -6.376      119.964       94.856       47.567    14391.297     8997.599     2262.635        3.428        1.283      207.047       43.479        0.044      339.676       13.171      867.535
12/21/2014  19:31:00     -241.734      -69.632       -5.779       86.796       70.331       51.486     7533.601     4946.475     2650.842        3.922        0.757      251.563       45.606        0.033      339.553       12.962      867.536
12/21/2014  19:32:00     -130.689      -30.438        0.847       74.112       57.049       33.492     5492.574     3254.629     1121.729        1.394        0.493      134.187       36.334        0.073      339.409       12.720      867.529
12/21/2014  19:33:00     -212.289      -60.905      -25.237       83.115       41.259       43.882     6908.104     1702.321     1925.670        2.997        0.527      220.853       46.017        0.043      339.467       12.817      867.510
12/21/2014  19:34:00     -278.551       -9.541      -29.492       74.067       73.860       40.820     5485.930     5455.226     1666.271        4.558        0.630      278.714       28.984        0.011      339.600       13.041      867.498
12/21/2014  19:35:00     -222.681      -54.504      -11.656       72.347       57.932       38.937     5234.062     3356.133     1516.077        3.140        0.505      229.254       32.454        0.020      339.462       12.808      867.495
12/21/2014  19:36:00     -181.790      -31.413      -10.076       66.684       67.970       42.734     4446.746     4619.975     1826.182        2.251        0.545      184.484       35.879        0.038      339.468       12.819      867.517
12/21/2014  19:37:00     -201.332        8.705       -6.700       75.485       65.504       44.714     5698.038     4290.771     1999.344        2.632        0.599      201.520       44.612        0.049      339.684       13.183      867.528
12/21/2014  19:38:00     -112.882      -29.090        4.468       68.676       49.583       34.648     4716.430     2458.506     1200.484        1.099        0.419      116.570       35.942        0.095      339.435       12.766      867.539
12/21/2014  19:39:00      -77.436      -12.758       -7.162       76.611       31.947       26.597     5869.308     1020.614      707.397        0.690        0.380       78.479       37.588        0.229      339.434       12.765      867.544
12/21/2014  19:40:00      -39.241      -32.030        5.295       48.352       39.708       31.524     2337.899     1576.713      993.781        0.375        0.245       50.653       30.076        0.353      339.395       12.698      867.532
12/21/2014  19:41:00     -107.789       53.706      -17.680       47.360       78.032       33.405     2242.966     6089.062     1115.894        1.213        0.472      120.427       31.983        0.071      339.536       12.936      867.529
12/21/2014  19:42:00      -57.972      -37.881        2.364       46.946       46.517       26.885     2203.916     2163.877      722.804        0.494        0.255       69.251       28.295        0.167      339.548       12.957      867.510
12/21/2014  19:43:00     -209.201      -26.234      -13.347       71.358       54.780       36.718     5091.900     3000.823     1348.248        2.703        0.472      210.839       37.413        0.031      339.544       12.946      867.510
12/21/2014  19:44:00     -258.476       -3.946      -18.386      113.444       64.687       47.035    12869.600     4184.371     2212.282        4.321        0.963      258.506       56.492        0.048      339.672       13.164      867.522
12/21/2014  19:45:00     -217.084      -31.189      -12.203       87.584       71.114       41.783     7670.920     5057.144     1745.827        3.136        0.724      219.313       45.900        0.044      339.540       12.940      867.539
12/21/2014  19:46:00     -184.264      -18.518      -10.899       85.991       65.398       32.210     7394.422     4276.874     1037.486        2.356        0.635      185.192       29.644        0.026      339.625       13.085      867.534
12/21/2014  19:47:00     -293.804      -57.827      -22.098       89.208       93.343       46.320     7958.082     8712.852     2145.532        5.448        0.941      299.441       44.564        0.022      339.552       12.960      867.546
12/21/2014  19:48:00     -195.689      -17.565      -16.532       90.317       59.198       43.522     8157.196     3504.436     1894.194        2.621        0.678      196.476       48.490        0.061      339.617       13.070      867.560
12/21/2014  19:49:00     -145.227      -17.325      -10.710       66.956       59.198       38.271     4483.107     3504.387     1464.679        1.548        0.473      146.257       41.131        0.079      339.473       12.831      867.569
12/21/2014  19:50:00     -127.297        8.860      -14.668       82.459       64.014       33.801     6799.474     4097.828     1142.488        1.427        0.602      127.605       34.555        0.073      339.514       12.897      867.567
12/21/2014  19:51:00      -69.763      -21.079        1.655       51.711       35.205       20.611     2674.073     1239.381      424.817        0.483        0.217       72.878       20.632        0.080      339.402       12.710      867.562
12/21/2014  19:52:00      -88.824      -31.463      -11.955       58.394       39.211       23.766     3409.852     1537.525      564.830        0.727        0.276       94.231       13.705        0.021      339.433       12.762      867.577
12/21/2014  19:53:00     -141.095       -5.340      -15.512       54.993       42.040       26.580     3024.284     1767.355      706.521        1.284        0.275      141.196       18.566        0.017      339.473       12.830      867.605
12/21/2014  19:54:00      -66.589       30.780       -9.245       34.536       38.601       26.326     1192.711     1490.014      693.052        0.442        0.169       73.358       20.048        0.075      339.431       12.761      867.598
12/21/2014  19:55:00     -101.059      -13.589      -17.536       46.120       55.407       29.806     2127.015     3069.968      888.416        0.839        0.304      101.968       22.618        0.049      339.402       12.711      867.591
12/21/2014  19:56:00      -79.514      -29.691       -6.963       61.811       46.512       23.704     3820.556     2163.393      561.882        0.690        0.327       84.877       13.008        0.023      339.314       12.561      867.569
12/21/2014  19:57:00     -224.389       28.395      -29.873       66.605       52.120       39.964     4436.225     2716.482     1597.142        3.040        0.437      226.178       31.520        0.019      339.538       12.937      867.555
12/21/2014  19:58:00     -221.112      -70.387      -23.659       85.418      100.619       43.677     7296.316    10124.129     1907.661        3.686        0.966      232.045       44.815        0.037      339.351       12.620      867.537
12/21/2014  19:59:00     -103.902       -0.857       -8.963       76.191       63.180       34.847     5804.995     3991.676     1214.346        1.094        0.551      103.905       33.851        0.106      339.355       12.631      867.517
12/21/2014  20:00:00     -183.465      -37.929      -11.003       86.457       89.631       41.967     7474.759     8033.665     1761.266        2.624        0.863      187.344       46.509        0.062      339.395       12.696      867.488
12/21/2014  20:01:00     -132.667      -33.108       -6.213       82.863       46.437       36.549     6866.277     2156.411     1335.794        1.454        0.518      136.736       45.875        0.113      339.304       12.543      867.461
12/21/2014  20:02:00     -124.629      -33.777       -8.698       72.140       60.959       28.559     5204.126     3716.012      815.633        1.324        0.487      129.125       33.241        0.066      339.316       12.565      867.458
12/21/2014  20:03:00     -153.386      -25.920      -20.152       60.949       46.638       30.719     3714.736     2175.076      943.675        1.572        0.342      155.561       24.789        0.025      339.389       12.687      867.456
12/21/2014  20:04:00     -190.228      -98.534      -14.000       81.663       68.876       38.827     6668.791     4743.849     1507.514        2.950        0.646      214.233       30.986        0.021      339.368       12.650      867.461
12/21/2014  20:05:00     -125.763      -44.050      -10.046       63.247       62.589       29.526     4000.237     3917.337      871.810        1.332        0.439      133.255       33.774        0.064      339.433       12.763      867.462
12/21/2014  20:06:00     -137.126      -53.911      -12.657       53.698       42.718       28.367     2883.526     1824.818      804.670        1.369        0.276      147.343       30.780        0.044      339.280       12.504      867.454
12/21/2014  20:07:00      -62.832      -53.462        4.628       78.787       74.600       31.952     6207.422     5565.232     1020.922        0.981        0.640       82.499       33.603        0.166      339.233       12.426      867.434
12/21/2014  20:08:00      -90.670      -56.043        2.071       60.929       75.540       32.481     3712.297     5706.256     1055.019        1.092        0.524      106.592       38.866        0.133      339.290       12.519      867.433
12/21/2014  20:09:00     -126.639      -43.571       -2.737       50.299       48.885       28.043     2530.034     2389.698      786.418        1.182        0.285      133.925       27.890        0.043      339.326       12.582      867.468
12/21/2014  20:10:00     -162.561      -55.411       -1.771       82.174       55.331       32.048     6752.556     3061.491     1027.074        2.017        0.542      171.745       23.147        0.018      339.289       12.516      867.504
12/21/2014  20:11:00     -178.276      -74.621      -21.470       54.111       51.767       32.090     2927.966     2679.833     1029.788        2.222        0.332      193.263       21.233        0.012      339.354       12.628      867.550
12/21/2014  20:12:00     -167.564      -40.050       -7.665       56.049       37.101       25.949     3141.546     1376.470      673.365        1.746        0.260      172.284       22.395        0.017      339.316       12.566      867.576
12/21/2014  20:13:00     -121.562      -64.417       -8.610       39.061       45.093       21.427     1525.795     2033.356      459.117        1.151        0.201      137.575       17.666        0.016      339.273       12.493      867.588
12/21/2014  20:14:00      -43.297      -41.198       -1.692       40.553       40.767       22.072     1644.550     1661.938      487.181        0.368        0.190       59.766       23.274        0.152      339.222       12.407      867.592
12/21/2014  20:15:00     -140.014      -70.439       -7.546       42.284       38.456       17.858     1787.917     1478.835      318.905        1.410        0.179      156.735       17.608        0.013      339.314       12.563      867.603
12/21/2014  20:16:00     -203.365      -63.273      -21.610       74.450       51.569       43.367     5542.803     2659.363     1880.710        2.795        0.504      212.981       44.369        0.043      339.347       12.615      867.600
12/21/2014  20:17:00      -83.008      -36.662       -1.041       49.114       36.983       24.341     2412.199     1367.725      592.490        0.630        0.219       90.744       24.249        0.071      339.299       12.536      867.614
12/21/2014  20:18:00     -105.123      -29.176       -4.536       58.042       66.349       32.813     3368.832     4402.213     1076.685        1.038        0.442      109.096       31.975        0.086      339.400       12.707      867.626
12/21/2014  20:19:00     -107.423       -2.298        1.674       74.663       59.171       28.784     5574.508     3501.153      828.516        1.072        0.495      107.447       23.342        0.047      339.490       12.858      867.640
12/21/2014  20:20:00     -147.046      -50.958       -8.451       38.855       41.710       22.565     1509.742     1739.687      509.190        1.402        0.188      155.625       19.786        0.016      339.215       12.396      867.649
12/21/2014  20:21:00     -131.225      -43.779        9.566       77.744       67.822       34.888     6044.123     4599.796     1217.170        1.554        0.593      138.335       39.065        0.080      339.181       12.338      867.672
12/21/2014  20:22:00     -127.951      -49.022        3.135       74.851       61.846       29.246     5602.692     3824.891      855.312        1.453        0.514      137.020       31.187        0.052      339.219       12.400      867.694
12/21/2014  20:23:00     -120.121      -34.730      -15.312       38.985       31.870       19.289     1519.834     1015.701      372.083        0.939        0.145      125.041       13.396        0.011      339.267       12.482      867.709
12/21/2014  20:24:00      -76.686      -18.588        5.665       49.334       44.175       28.151     2433.822     1951.441      792.463        0.572        0.259       78.907       27.893        0.125      339.286       12.515      867.722
12/21/2014  20:25:00      -60.403      -36.821        2.687       68.739       38.648       25.816     4725.017     1493.696      666.443        0.595        0.344       70.741       20.073        0.081      339.133       12.257      867.737
12/21/2014  20:26:00      -92.418      -60.463       -5.022       55.952       49.098       20.839     3130.672     2410.597      434.276        0.910        0.299      110.439       21.423        0.038      339.158       12.299      867.772
12/21/2014  20:27:00      -44.957      -36.095        9.114       50.948       50.934       27.320     2595.654     2594.262      746.400        0.467        0.297       57.654       29.141        0.255      339.024       12.074      867.793
12/21/2014  20:28:00      -64.531      -54.368       -2.507       42.110       35.731       25.177     1773.272     1276.698      633.867        0.540        0.184       84.381       29.251        0.120      339.034       12.090      867.801
12/21/2014  20:29:00      -79.543      -58.716       -5.259       30.181       38.590       26.002      910.876     1489.203      676.107        0.644        0.154       98.867       17.688        0.032      339.120       12.235      867.805
12/21/2014  20:30:00      -88.243      -38.025        3.131       47.443       22.122       22.015     2250.859      489.383      484.665        0.623        0.161       96.087       24.707        0.066      339.173       12.324      867.833
12/21/2014  20:31:00      -81.533      -25.545        4.511       47.223       42.986       29.525     2230.049     1847.797      871.711        0.613        0.247       85.441       26.597        0.097      339.096       12.195      867.844
12/21/2014  20:32:00     -121.776      -68.487        1.879       51.730       39.532       22.745     2675.983     1562.754      517.324        1.214        0.238      139.714       24.216        0.030      339.170       12.321      867.847
12/21/2014  20:33:00     -119.042      -83.285       -8.579       36.291       49.138       26.175     1317.063     2414.541      685.111        1.280        0.221      145.284       19.481        0.018      339.233       12.426      867.834
12/21/2014  20:34:00     -148.105      -63.678      -16.961       40.666       34.954       25.222     1653.725     1221.804      636.141        1.489        0.176      161.214       21.806        0.018      339.138       12.266      867.841
12/21/2014  20:35:00      -97.641      -27.839        1.235       55.009       41.708       27.379     3025.991     1739.531      749.619        0.791        0.276      101.532       25.459        0.063      339.092       12.188      867.837
12/21/2014  20:36:00      -87.713      -68.519       -4.816       48.569       35.556       25.355     2358.977     1264.218      642.879        0.834        0.213      111.303       14.901        0.018      339.095       12.194      867.835
12/21/2014  20:37:00     -124.664      -69.973       -1.576       50.524       35.687       27.342     2552.704     1273.562      747.604        1.251        0.229      142.959       22.633        0.025      339.067       12.146      867.844
12/21/2014  20:38:00     -109.548      -69.423       -7.967       56.297       60.794       32.658     3169.396     3695.970     1066.572        1.241        0.397      129.694       30.654        0.056      339.010       12.049      867.877
12/21/2014  20:39:00     -161.675      -64.649      -11.837       52.903       45.943       28.951     2798.731     2110.748      838.138        1.810        0.287      174.121       26.142        0.023      339.078       12.164      867.905
12/21/2014  20:40:00     -145.805      -21.120       -0.799       49.298       73.223       32.997     2430.246     5361.624     1088.782        1.529        0.444      147.326       21.275        0.021      339.226       12.415      867.939
12/21/2014  20:41:00      -51.811      -41.794        4.786       73.256       41.488       26.556     5366.381     1721.275      705.225        0.612        0.390       66.566       17.591        0.070      339.108       12.215      867.959
12/21/2014  20:42:00     -124.225      -47.465       -7.710       49.855       47.409       27.189     2485.525     2247.654      739.239        1.161        0.274      132.984       24.220        0.033      339.099       12.199      867.971
12/21/2014  20:43:00     -111.824      -61.715       -0.807       51.872       42.413       27.346     2690.723     1798.893      747.788        1.077        0.262      127.724       16.319        0.016      339.037       12.095      867.985
12/21/2014  20:44:00     -140.914      -68.559      -10.363       38.101       52.074       25.812     1451.649     2711.695      666.242        1.475        0.241      156.707       16.436        0.011      339.073       12.154      868.001
12/21/2014  20:45:00     -111.610      -89.370       -2.759       56.332       38.489       30.607     3173.305     1481.387      936.810        1.302        0.280      142.981       32.756        0.052      339.000       12.033      868.020
12/21/2014  20:46:00      -95.473      -61.188       -3.147       54.817       49.754       27.610     3004.854     2475.447      762.322        0.955        0.312      113.398       24.085        0.045      339.026       12.078      868.049
12/21/2014  20:47:00     -207.530      -63.063      -14.000       54.427       57.772       35.454     2962.255     3337.653     1256.999        2.740        0.378      216.900       26.916        0.015      339.057       12.127      868.062
12/21/2014  20:48:00     -144.020      -70.287      -11.199       73.317       53.350       36.619     5375.406     2846.227     1340.972        1.768        0.478      160.256       34.276        0.046      339.027       12.077      868.066
12/21/2014  20:49:00     -137.875      -61.671        0.560       91.863       50.882       34.055     8438.755     2588.983     1159.711        1.750        0.609      151.039       37.909        0.063      339.022       12.068      868.080
12/21/2014  20:50:00     -136.736     -110.133       -0.818       69.092       60.215       35.832     4773.677     3625.842     1283.941        2.025        0.484      175.574       34.939        0.040      339.061       12.134      868.103
12/21/2014  20:51:00     -233.560      -53.423        3.155      106.325       61.064       42.569    11305.087     3728.758     1812.157        3.713        0.842      239.592       45.173        0.036      339.060       12.133      868.127
12/21/2014  20:52:00     -175.164      -42.526       -0.717       71.382       64.807       38.020     5095.324     4199.981     1445.536        2.161        0.537      180.253       42.814        0.056      339.051       12.118      868.145
12/21/2014  20:53:00     -147.005      -73.535       -5.437       62.843       69.918       31.500     3949.226     4888.587      992.224        1.844        0.492      164.371       31.983        0.038      339.043       12.105      868.147
12/21/2014  20:54:00     -139.258      -26.795        3.081       76.442       55.018       36.603     5843.336     3026.997     1339.815        1.516        0.511      141.812       38.254        0.073      339.099       12.199      868.146
12/21/2014  20:55:00     -128.741      -24.691       -9.932       56.653       51.728       26.129     3209.600     2675.837      682.713        1.192        0.328      131.087       18.686        0.020      339.120       12.235      868.140
12/21/2014  20:56:00     -141.454      -59.164       -3.301       73.783       38.460       30.931     5443.961     1479.141      956.703        1.570        0.394      153.328       31.213        0.041      338.997       12.028      868.141
12/21/2014  20:57:00     -153.209      -66.946        0.017       86.190       63.878       44.382     7428.709     4080.406     1969.736        2.071        0.674      167.197       49.503        0.088      339.027       12.078      868.150
12/21/2014  20:58:00     -104.642      -35.482       -8.820       55.269       50.294       30.865     3054.704     2529.510      952.664        0.941        0.327      110.494       24.248        0.048      339.093       12.190      868.163
12/21/2014  20:59:00     -147.499      -92.316       -8.064       71.262       55.505       36.480     5078.214     3080.844     1330.759        1.991        0.474      174.007       31.377        0.033      338.971       11.985      868.169
12/21/2014  21:00:00      -93.532      -83.604       -2.611       91.746       63.096       38.796     8417.329     3981.043     1505.120        1.482        0.695      125.450       46.593        0.138      338.892       11.850      868.170
12/21/2014  21:01:00     -177.854      -58.479       -9.355       48.025       38.932       32.660     2306.363     1515.676     1066.680        2.001        0.244      187.221       28.916        0.024      338.921       11.901      868.152
12/21/2014  21:02:00     -125.733      -59.710      -11.441       57.226       45.464       33.975     3274.759     2066.943     1154.288        1.300        0.325      139.191       17.233        0.015      338.913       11.886      868.144
12/21/2014  21:03:00     -101.561      -81.925        0.808       77.033       62.743       37.495     5934.071     3936.740     1405.883        1.415        0.564      130.485       40.191        0.095      338.909       11.880      868.136
12/21/2014  21:04:00     -137.028      -89.420       -1.247       76.077       57.403       39.206     5787.660     3295.108     1537.111        1.869        0.531      163.623       37.968        0.054      338.884       11.838      868.130
12/21/2014  21:05:00     -170.792     -100.701       -5.247       62.689       34.684       27.287     3929.935     1202.962      744.593        2.261        0.294      198.269       26.366        0.018      338.890       11.846      868.128
12/21/2014  21:06:00     -139.024      -98.986        4.744       60.429       48.391       35.766     3651.685     2341.665     1279.173        1.821        0.364      170.663       31.939        0.035      338.867       11.811      868.115
12/21/2014  21:07:00     -117.471      -64.031        2.281       61.922       42.935       29.164     3834.384     1843.446      850.558        1.222        0.326      133.789       30.735        0.053      338.857       11.793      868.099
12/21/2014  21:08:00     -130.383      -93.409        0.588       78.767       51.495       30.135     6204.318     2651.720      908.147        1.774        0.488      160.390       34.736        0.047      338.905       11.873      868.097
12/21/2014  21:09:00     -203.208     -112.537      -12.794       59.926       54.495       31.988     3591.094     2969.660     1023.243        3.085        0.379      232.288       33.389        0.021      338.944       11.937      868.102
12/21/2014  21:10:00     -184.052      -97.337      -17.101       50.890       50.576       35.373     2589.769     2557.973     1251.229        2.502        0.320      208.206       20.654        0.010      339.009       12.046      868.115
12/21/2014  21:11:00     -157.276      -46.009       -0.721       63.634       31.288       24.476     4049.337      978.951      599.092        1.624        0.281      163.868       21.527        0.017      338.914       11.889      868.129
12/21/2014  21:12:00     -136.260      -77.109      -14.163       37.936       35.724       24.067     1439.105     1276.203      579.232        1.400        0.165      156.565       12.385        0.006      338.893       11.855      868.123
12/21/2014  21:13:00     -125.934      -44.609       -4.569       55.044       37.412       25.801     3029.874     1399.682      665.689        1.148        0.255      133.602       27.415        0.042      338.845       11.773      868.116
12/21/2014  21:14:00     -181.311      -71.661       -6.495       41.164       30.074       24.387     1694.514      904.469      594.711        2.062        0.160      194.958       23.811        0.015      338.864       11.804      868.106
12/21/2014  21:15:00      -95.245      -35.393        1.960       58.646       40.880       32.720     3439.345     1671.144     1070.591        0.825        0.309      101.609       34.594        0.116      338.803       11.702      868.099
12/21/2014  21:16:00     -129.216      -12.747       -0.802       64.367       34.780       32.978     4143.086     1209.639     1087.547        1.165        0.322      129.843       37.824        0.085      338.804       11.703      868.098
12/21/2014  21:17:00     -153.136      -55.580       -8.078       61.596       42.922       27.502     3794.048     1842.302      756.387        1.650        0.320      162.911       24.397        0.022      338.793       11.685      868.109
12/21/2014  21:18:00     -130.257      -70.311       -4.211       62.763       56.444       28.323     3939.248     3185.945      802.177        1.493        0.396      148.022       32.238        0.047      338.812       11.718      868.115
12/21/2014  21:19:00     -208.434      -63.205       -6.701       68.972       36.762       27.999     4757.179     1351.429      783.959        2.719        0.345      217.806       26.983        0.015      338.799       11.691      868.124
12/21/2014  21:20:00     -197.604      -53.130       -2.796       64.005       57.681       34.009     4096.585     3327.055     1156.622        2.523        0.429      204.622       32.121        0.025      338.822       11.731      868.122
12/21/2014  21:21:00     -167.459      -72.749        0.922       60.046       47.189       29.957     3605.533     2226.831      897.415        2.003        0.336      182.578       29.950        0.027      338.801       11.699      868.118
12/21/2014  21:22:00     -189.808      -48.093      -14.089       45.999       45.552       27.172     2115.927     2075.003      738.299        2.173        0.246      195.806       25.326        0.017      338.835       11.754      868.111
12/21/2014  21:23:00     -141.504      -67.462        2.393       55.249       58.007       30.720     3052.425     3364.780      943.746        1.597        0.368      156.762       33.072        0.045      338.777       11.659      868.117
12/21/2014  21:24:00     -151.027      -87.588       -3.656       66.139       41.889       33.653     4374.331     1754.727     1132.515        1.888        0.363      174.588       37.661        0.047      338.775       11.655      868.112
12/21/2014  21:25:00     -158.049      -96.383      -11.336       49.256       48.094       36.005     2426.196     2313.002     1296.340        2.022        0.302      185.119       31.884        0.030      338.766       11.640      868.113
12/21/2014  21:26:00     -114.543      -72.802       -0.226       64.327       49.763       35.022     4137.997     2476.385     1226.544        1.313        0.392      135.721       32.099        0.056      338.755       11.622      868.109
12/21/2014  21:27:00     -170.860      -97.665      -12.086       40.832       35.412       27.974     1667.227     1254.024      782.566        2.129        0.185      196.804       21.958        0.012      338.766       11.641      868.104
12/21/2014  21:28:00     -157.052      -92.108      -10.614       48.370       67.431       33.755     2339.629     4546.941     1139.427        2.064        0.401      182.069       29.967        0.027      338.736       11.588      868.089
12/21/2014  21:29:00     -112.864      -61.099        0.335       56.195       49.030       29.002     3157.901     2403.945      841.130        1.144        0.320      128.340       23.876        0.035      338.692       11.515      868.078
12/21/2014  21:30:00     -120.616      -47.081        0.949       60.623       40.665       30.815     3675.093     1653.635      949.583        1.152        0.314      129.479       34.249        0.070      338.659       11.460      868.062
12/21/2014  21:31:00     -148.367      -54.157       -7.773       55.901       45.301       31.341     3124.952     2052.157      982.239        1.558        0.308      157.942       24.034        0.023      338.693       11.517      868.050
12/21/2014  21:32:00     -134.776      -75.385       -2.853       48.258       52.407       29.503     2328.828     2746.474      870.442        1.490        0.297      154.426       28.739        0.035      338.706       11.538      868.037
12/21/2014  21:33:00     -153.202      -65.881       -9.927       47.293       42.366       29.566     2236.636     1794.912      874.160        1.641        0.245      166.767       26.610        0.025      338.743       11.601      868.045
12/21/2014  21:34:00     -111.624      -52.452       -4.969       65.466       49.211       25.160     4285.778     2421.719      633.036        1.129        0.367      123.334       31.826        0.067      338.646       11.439      868.038
12/21/2014  21:35:00     -104.236      -15.296       -4.183       57.546       34.049       25.428     3311.489     1159.310      646.606        0.812        0.256      105.353       31.430        0.089      338.632       11.415      868.021
12/21/2014  21:36:00     -127.963      -46.215      -10.665       34.939       31.204       22.042     1220.727      973.670      485.834        1.065        0.134      136.052       21.285        0.024      338.636       11.422      868.027
12/21/2014  21:37:00     -116.860      -42.279      -12.062       25.864       21.955       14.746      668.936      482.020      217.453        0.848        0.068      124.273       10.914        0.008      338.723       11.569      868.033
12/21/2014  21:38:00      -69.362      -39.697       -3.676       38.996       41.363       24.984     1520.704     1710.900      624.188        0.513        0.193       79.918       25.297        0.100      338.731       11.583      868.036
12/21/2014  21:39:00      -14.433      -12.728        5.860       34.630       23.771       14.392     1199.219      565.046      207.123        0.119        0.099       19.243       17.720        0.848      338.504       11.201      868.055
12/21/2014  21:40:00      -90.317      -52.952      -10.484       36.273       22.422       16.251     1315.729      502.743      264.110        0.658        0.104      104.695       17.516        0.028      338.494       11.184      868.058
12/21/2014  21:41:00      -88.818      -48.477       -1.544       37.594       32.798       17.982     1413.276     1075.687      323.339        0.653        0.141      101.186       18.993        0.035      338.484       11.167      868.041
12/21/2014  21:42:00      -72.562      -45.689       -1.993       28.516       25.235       17.283      813.150      636.787      298.690        0.455        0.087       85.748       15.157        0.031      338.513       11.215      868.050
12/21/2014  21:43:00      -47.832      -28.864        6.483       32.363       24.026       17.875     1047.347      577.250      319.511        0.255        0.097       55.866       12.354        0.049      338.565       11.302      868.066
12/21/2014  21:44:00      -50.754      -36.928        2.932       36.031       30.450       17.893     1298.222      927.191      320.153        0.325        0.127       62.767       19.153        0.093      338.438       11.090      868.087
12/21/2014  21:45:00      -69.936      -26.200        0.478       20.796       32.172       16.412      432.489     1035.030      269.363        0.366        0.087       74.682       12.053        0.026      338.467       11.140      868.103
12/21/2014  21:46:00      -10.264      -31.054        3.286       31.691       22.371       14.933     1004.289      500.475      223.001        0.140        0.086       32.706       12.658        0.150      338.413       11.046      868.123
12/21/2014  21:47:00      -17.947      -17.280        5.236       27.458       18.789       19.423      753.922      353.028      377.265        0.107        0.074       24.914       14.746        0.350      338.571       11.313      868.145
12/21/2014  21:48:00      -16.475        8.687       -5.070       18.981       34.453       13.750      360.291     1187.000      189.076        0.105        0.087       18.625       13.569        0.531      338.583       11.332      868.172
12/21/2014  21:49:00        7.648        7.688       15.094       11.524       17.016       17.090      132.793      289.544      292.063        0.053        0.036       10.845        8.059        0.552      338.408       11.038      868.200
12/21/2014  21:50:00       30.108       31.577       19.571       18.173       16.738       18.725      330.242      280.144      350.617        0.162        0.048       43.630       12.109        0.077      338.335       10.917      868.216
12/21/2014  21:51:00       73.525       64.826      -10.932       16.592       17.064       16.478      275.289      291.197      271.540        0.528        0.042       98.022       12.900        0.017      338.144       10.595      868.227
12/21/2014  21:52:00       53.084       25.759        5.721       28.329       18.721       18.333      802.538      350.488      336.085        0.250        0.074       59.004       17.059        0.084      337.873       10.143      868.239
12/21/2014  21:53:00       72.757       31.913       -0.068       32.001       22.041       12.148     1024.041      485.823      147.566        0.398        0.083       79.449        6.585        0.007      337.801       10.019      868.246
12/21/2014  21:54:00       43.785       28.512        6.345       25.692       19.268       17.750      660.067      371.248      315.076        0.206        0.067       52.250       12.222        0.055      337.746        9.927      868.256
12/21/2014  21:55:00       72.611       41.937        4.050       16.106       19.004       13.098      259.404      361.138      171.564        0.392        0.040       83.852        5.969        0.005      337.770        9.969      868.268
12/21/2014  21:56:00       64.640       31.025       -1.004       19.667       21.395       15.604      386.800      457.765      243.481        0.311        0.054       71.700        7.286        0.010      337.767        9.963      868.277
12/21/2014  21:57:00       72.806       33.846       11.859       25.614       21.748       18.502      656.084      472.983      342.329        0.403        0.074       80.289        9.706        0.015      337.838       10.082      868.263
12/21/2014  21:58:00       66.708       38.454        8.633       21.938       18.444       14.959      481.272      340.193      223.779        0.352        0.052       76.998        9.711        0.016      337.740        9.918      868.256
12/21/2014  21:59:00       55.116       38.305       20.286       18.351       15.368       10.862      336.773      236.179      117.977        0.280        0.035       67.119        5.349        0.006      337.748        9.930      868.248
12/21/2014  22:00:00       52.610        1.306       10.519       21.961        7.799       10.286      482.301       60.821      105.809        0.176        0.032       52.626       11.075        0.044      337.919       10.218      868.241
12/21/2014  22:01:00       23.759        3.368       -0.375       21.839       11.734        7.561      476.928      137.688       57.165        0.062        0.034       23.997        6.889        0.082      337.927       10.235      868.242
12/21/2014  22:02:00       42.346       21.791        7.250       18.962        8.455        9.731      359.544       71.481       94.685        0.142        0.026       47.624        9.300        0.038      337.914       10.210      868.246
12/21/2014  22:03:00       25.399      -16.008       -6.129       29.203       23.131        7.730      852.794      535.021       59.753        0.119        0.072       30.022        8.472        0.080      337.919       10.218      868.225
12/21/2014  22:04:00       19.834       -9.189        1.784       13.493       20.010       10.561      182.068      400.407      111.527        0.059        0.035       21.859       12.134        0.308      337.866       10.129      868.218
12/21/2014  22:05:00       77.720       48.819       22.715       15.004       13.426       10.193      225.119      180.269      103.888        0.472        0.025       91.781        6.875        0.006      338.178       10.654      868.209
12/21/2014  22:06:00       66.552       23.272        9.698       29.589       16.388       13.591      875.513      268.578      184.724        0.320        0.066       70.503        4.452        0.004      338.074       10.477      868.200
12/21/2014  22:07:00       24.313       18.000       -5.770       17.032       16.684       10.541      290.097      278.363      111.110        0.081        0.034       30.251        7.320        0.059      338.065       10.464      868.206
12/21/2014  22:08:00       20.196       57.215      -10.676       10.029       14.380        6.139      100.582      206.790       37.690        0.207        0.017       60.675        6.676        0.012      338.292       10.844      868.205
12/21/2014  22:09:00       17.224       23.902       -7.648        5.511       14.046        9.326       30.374      197.277       86.973        0.062        0.016       29.462        8.209        0.078      338.345       10.931      868.186
12/21/2014  22:10:00       25.209       10.976       -1.773        9.277       11.573        4.406       86.056      133.935       19.414        0.050        0.012       27.495        2.808        0.010      338.252       10.777      868.167
12/21/2014  22:11:00       16.315       -4.921       -0.609       15.252        5.727        4.650      232.618       32.802       21.624        0.029        0.014       17.041        5.967        0.123      338.200       10.691      868.165
12/21/2014  22:12:00       29.390        5.986        1.335       23.744       11.126        6.829      563.760      123.779       46.639        0.082        0.037       29.994        4.324        0.021      338.292       10.844      868.164
12/21/2014  22:13:00      -22.136       -2.481       -4.004       20.412       24.760        9.524      416.669      613.046       90.709        0.082        0.056       22.275       12.206        0.300      338.134       10.581      868.166
12/21/2014  22:14:00       14.310       28.842        6.349       18.827       10.748        8.880      354.452      115.516       78.861        0.081        0.027       32.197        4.383        0.019      338.257       10.786      868.172
12/21/2014  22:15:00       -3.686       11.563        4.121       21.255       29.745       14.233      451.796      884.773      202.586        0.085        0.077       12.137       13.847        1.302      338.304       10.864      868.179
12/21/2014  22:16:00       -5.644      -28.571       -2.090       18.466        9.787        6.353      340.982       95.780       40.359        0.066        0.024       29.124        5.397        0.034      338.010       10.371      868.190
12/21/2014  22:17:00      -23.436      -23.841       -4.081       16.410       10.402        6.919      269.304      108.211       47.876        0.078        0.021       33.431        6.933        0.043      338.422       11.063      868.193
12/21/2014  22:18:00      -27.986      -41.006      -10.095       26.530       26.619       17.827      703.855      708.571      317.793        0.215        0.087       49.646       12.746        0.066      338.468       11.140      868.198
12/21/2014  22:19:00      -42.026      -25.987        2.723       30.798       21.846       18.853      948.519      477.255      355.451        0.211        0.089       49.412       20.220        0.167      338.365       10.968      868.196
12/21/2014  22:20:00      -47.076      -35.736       -3.356       15.130       19.748        7.642      228.916      389.976       58.406        0.209        0.034       59.103        7.171        0.015      338.512       11.213      868.195
12/21/2014  22:21:00      -54.568      -39.158       -0.643       23.521       24.251       13.226      553.222      588.127      174.925        0.291        0.066       67.164       14.447        0.046      338.219       10.721      868.184
12/21/2014  22:22:00      -51.769      -38.495       -3.886       18.707       11.289        8.242      349.937      127.438       67.926        0.236        0.027       64.513        9.086        0.020      338.391       11.012      868.186
12/21/2014  22:23:00      -22.947      -43.349       -2.716       14.505       15.637        8.404      210.408      244.513       70.626        0.147        0.026       49.048        9.513        0.038      338.203       10.695      868.186
12/21/2014  22:24:00      -54.492      -28.608       -6.608       24.335       14.849       13.183      592.193      220.483      173.796        0.241        0.049       61.546        7.307        0.014      338.086       10.498      868.192
12/21/2014  22:25:00      -76.518      -32.937      -14.525       12.734       11.284        8.257      162.158      127.325       68.174        0.375        0.018       83.306        4.129        0.002      338.244       10.765      868.203
12/21/2014  22:26:00      -63.354      -41.554       -6.132       14.365       14.360       12.225      206.366      206.210      149.452        0.317        0.028       75.766        8.524        0.013      338.277       10.819      868.211
12/21/2014  22:27:00      -59.178      -39.797       -7.206       12.645       11.074        7.753      159.895      122.641       60.113        0.274        0.017       71.316        5.713        0.006      338.077       10.483      868.217
12/21/2014  22:28:00      -60.740      -30.303       -3.930       18.304       14.744       11.695      335.037      217.384      136.780        0.266        0.034       67.880        9.306        0.019      338.374       10.982      868.225
12/21/2014  22:29:00      -43.281      -40.411       -1.369       21.420       14.752       12.197      458.824      217.633      148.779        0.217        0.041       59.214       10.021        0.029      338.133       10.578      868.228
12/21/2014  22:30:00      -32.232      -34.470       -0.659       17.356        9.345        8.397      301.215       87.336       70.516        0.134        0.023       47.192        9.618        0.042      338.363       10.964      868.208
12/21/2014  22:31:00      -38.899      -25.986       -5.093       19.321       15.674        9.456      373.308      245.677       89.408        0.146        0.035       46.781       11.783        0.063      338.259       10.789      868.192
12/21/2014  22:32:00      -13.784        8.346        8.776       14.403       15.386       12.162      207.438      236.735      147.910        0.046        0.030       16.114       12.304        0.583      338.101       10.525      868.176
12/21/2014  22:33:00      -19.684       10.507       -3.091       33.241       40.526       11.263     1104.997     1642.326      126.861        0.169        0.144       22.313       18.925        0.719      337.895       10.179      868.170
12/21/2014  22:34:00      -72.133       47.457       -5.621       26.448       42.973       18.955      699.478     1846.681      359.274        0.520        0.145       86.344       18.691        0.047      338.539       11.260      868.172
12/21/2014  22:35:00      -30.927        1.669        2.220       26.967       30.263       16.184      727.209      915.821      261.937        0.143        0.095       30.972       16.783        0.294      338.137       10.584      868.182
12/21/2014  22:36:00       -0.446      -12.557        7.424       27.567       25.932       16.955      759.942      672.494      287.476        0.097        0.086       12.565       18.862        2.253      337.868       10.133      868.189
12/21/2014  22:37:00      -43.157       25.292       -5.167       24.658       40.591       16.360      608.030     1647.600      267.653        0.253        0.126       50.022       11.569        0.053      338.396       11.019      868.175
12/21/2014  22:38:00      -39.021       -7.462       -2.156       21.199       35.371       16.005      449.383     1251.126      256.162        0.177        0.098       39.728       13.146        0.109      337.842       10.090      868.156
12/21/2014  22:39:00        1.039      -15.813       -3.046       26.054       20.445       10.709      678.798      417.985      114.688        0.074        0.061       15.847        5.103        0.104      337.493        9.504      868.153
12/21/2014  22:40:00      -35.807        3.605      -10.413       19.414       24.970       12.189      376.901      623.522      148.568        0.128        0.057       35.988       11.819        0.108      337.722        9.889      868.165
12/21/2014  22:41:00      -43.605       26.027        8.088       24.889       32.823       17.578      619.479     1077.318      308.996        0.232        0.100       50.782       14.611        0.083      338.160       10.624      868.189
12/21/2014  22:42:00      -63.137       31.349        1.079       34.226       33.696       21.827     1171.410     1135.411      476.428        0.388        0.139       70.491       22.311        0.100      338.261       10.791      868.205
12/21/2014  22:43:00      -35.733       27.614       -6.000       26.530       22.293       16.712      703.846      496.962      279.280        0.178        0.074       45.160       14.571        0.104      338.138       10.587      868.197
12/21/2014  22:44:00      -83.006       51.496      -13.733       14.062       22.337       17.163      197.746      498.931      294.572        0.536        0.050       97.682       12.556        0.017      338.163       10.627      868.202
12/21/2014  22:45:00      -67.174       22.782       -5.947       23.113       44.010       16.995      534.215     1936.915      288.830        0.391        0.138       70.932       10.863        0.023      337.797       10.013      868.199
12/21/2014  22:46:00      -82.915      -33.167      -12.377       26.933       27.795       16.618      725.405      772.551      276.173        0.495        0.089       89.302       12.911        0.021      337.236        9.074      868.192
12/21/2014  22:47:00      -60.498       -3.008        1.944       44.234       25.211       18.220     1956.680      635.578      331.950        0.330        0.146       60.573       17.885        0.087      337.970       10.304      868.170
12/21/2014  22:48:00      -75.828      -24.101        0.308       41.679       30.689       21.972     1737.155      941.785      482.756        0.475        0.158       79.566       21.718        0.075      337.436        9.408      868.157
12/21/2014  22:49:00     -107.628      -16.213       -2.713       38.718       28.274       21.267     1499.081      799.428      452.274        0.730        0.138      108.843       22.165        0.041      337.589        9.664      868.144
12/21/2014  22:50:00     -109.883      -11.294       -5.576       49.872       27.149       24.516     2487.173      737.069      601.018        0.803        0.191      110.462       26.980        0.060      337.615        9.709      868.126
12/21/2014  22:51:00      -75.540        4.806       -3.854       38.363       31.323       19.719     1471.698      981.106      388.846        0.429        0.142       75.693       17.243        0.052      337.625        9.727      868.094
12/21/2014  22:52:00      -92.788      -21.070        0.312       35.708       32.213       18.754     1275.083     1037.668      351.731        0.586        0.133       95.150       15.040        0.025      337.338        9.244      868.057
12/21/2014  22:53:00      -83.316       -1.096       -6.040       40.749       27.937       20.508     1660.443      780.473      420.597        0.492        0.143       83.323       13.540        0.026      337.339        9.248      868.038
12/21/2014  22:54:00     -103.967       15.194      -13.157       44.128       38.055       19.106     1947.259     1448.168      365.030        0.749        0.188      105.072       20.640        0.039      337.613        9.706      868.027
12/21/2014  22:55:00     -103.882       27.233      -10.118       37.703       51.206       26.788     1421.501     2622.064      717.594        0.820        0.238      107.392       25.343        0.056      337.312        9.200      868.017
12/21/2014  22:56:00     -115.686       36.137      -11.400       30.836       34.254       23.562      950.877     1173.326      555.163        0.875        0.134      121.199       15.792        0.017      337.499        9.515      868.010
12/21/2014  22:57:00      -63.718      -19.004        3.653       27.526       48.013       22.637      757.665     2305.251      512.448        0.400        0.179       66.491       19.502        0.086      337.154        8.935      868.018
12/21/2014  22:58:00      -92.746       21.278       -8.541       29.859       38.822       21.655      891.542     1507.181      468.936        0.600        0.143       95.156       16.666        0.031      337.484        9.489      868.009
12/21/2014  22:59:00     -121.432      -16.725      -15.060       49.197       29.303       28.924     2420.345      858.653      836.571        0.968        0.206      122.578       26.874        0.048      337.341        9.249      868.003
12/21/2014  23:00:00     -165.213      -12.794      -13.338       44.700       37.933       25.891     1998.067     1438.934      670.331        1.587        0.205      165.708       19.582        0.014      337.563        9.622      868.003
12/21/2014  23:01:00     -149.642      -32.099       -0.456       63.535       46.640       34.344     4036.654     2175.300     1179.499        1.541        0.370      153.046       37.846        0.061      337.393        9.337      867.990
12/21/2014  23:02:00     -159.814      -48.635       -0.097       39.241       43.203       26.473     1539.860     1866.476      700.799        1.601        0.205      167.051       17.421        0.011      337.431        9.401      868.003
12/21/2014  23:03:00     -144.700      -55.798       -1.227       46.918       47.682       27.163     2201.261     2273.536      737.852        1.463        0.261      155.085       24.241        0.024      337.286        9.159      868.030
12/21/2014  23:04:00     -140.368      -23.562       -4.409       62.428       45.505       31.807     3897.316     2070.713     1011.668        1.363        0.349      142.332       27.385        0.037      337.808       10.032      868.025
12/21/2014  23:05:00     -140.136      -44.125       -2.908       49.723       43.237       25.001     2472.390     1869.411      625.044        1.328        0.248      146.918       28.641        0.038      337.357        9.276      868.028
12/21/2014  23:06:00     -142.586      -23.939      -15.574       39.648       38.088       28.702     1571.964     1450.723      823.783        1.250        0.192      144.581       25.163        0.030      337.313        9.202      868.021
12/21/2014  23:07:00     -141.870      -43.984       -6.558       56.722       48.077       32.060     3217.426     2311.432     1027.867        1.433        0.328      148.532       29.162        0.039      337.228        9.060      868.002
12/21/2014  23:08:00     -141.579      -37.695       -5.650       55.018       46.032       29.750     3026.944     2118.965      885.069        1.376        0.302      146.511       27.890        0.036      337.294        9.170      867.976
12/21/2014  23:09:00     -169.472      -49.716       -9.889       29.016       42.306       23.094      841.944     1789.821      533.350        1.723        0.158      176.614       13.713        0.006      337.270        9.131      867.935
12/21/2014  23:10:00     -171.792      -71.307       -6.465       66.541       48.582       32.194     4427.689     2360.186     1036.447        2.123        0.391      186.003       36.051        0.038      337.668        9.795      867.905
12/21/2014  23:11:00     -154.325      -64.630        0.820       53.614       49.550       31.029     2874.462     2455.214      962.825        1.714        0.315      167.311       28.955        0.030      337.738        9.915      867.893
12/21/2014  23:12:00     -136.532      -42.916       -6.679       35.574       47.073       26.019     1265.522     2215.851      677.003        1.234        0.208      143.118       18.429        0.017      337.579        9.648      867.888
12/21/2014  23:13:00     -140.893       11.190       -9.150       45.021       37.974       25.505     2026.923     1442.028      650.500        1.209        0.206      141.337       17.987        0.016      337.983       10.326      867.898
12/21/2014  23:14:00     -174.018       -4.225      -13.356       49.568       44.095       25.835     2456.949     1944.328      667.430        1.777        0.253      174.069       24.537        0.020      337.688        9.830      867.898
12/21/2014  23:15:00     -194.826      -16.952      -13.271       44.029       49.628       27.663     1938.565     2462.957      765.218        2.179        0.258      195.562       25.022        0.016      337.504        9.522      867.894
12/21/2014  23:16:00     -189.881      -46.801       -4.340       66.373       52.317       33.123     4405.334     2737.102     1097.128        2.325        0.412      195.563       36.662        0.035      337.362        9.282      867.906
12/21/2014  23:17:00     -178.952      -41.649        0.547       58.816       45.048       35.298     3459.303     2029.339     1245.983        2.025        0.337      183.735       34.128        0.035      337.437        9.409      867.895
12/21/2014  23:18:00     -215.672      -83.770       -7.717       31.498       33.713       24.748      992.136     1136.554      612.452        2.817        0.137      231.369       18.964        0.007      337.415        9.370      867.875
12/21/2014  23:19:00     -172.085      -87.588       -4.716       53.789       35.554       27.809     2893.214     1264.060      773.355        2.112        0.247      193.093       27.855        0.021      337.618        9.711      867.863
12/21/2014  23:20:00     -201.435     -103.327       -2.168       52.343       43.878       24.828     2739.824     1925.315      616.407        2.827        0.264      226.390       25.157        0.012      337.662        9.784      867.853
12/21/2014  23:21:00     -196.315      -72.726       -7.662       53.054       49.017       28.837     2814.765     2402.712      831.568        2.497        0.302      209.353       25.809        0.015      337.779        9.981      867.833
12/21/2014  23:22:00     -219.686     -108.773        1.234      117.490       76.440       46.139    13803.821     5843.116     2128.811        4.093        1.089      245.140       48.052        0.038      338.043       10.423      867.822
12/21/2014  23:23:00     -256.792      -78.750       -3.818       64.008       37.187       32.005     4097.010     1382.857     1024.305        3.933        0.325      268.596       32.408        0.015      337.967       10.295      867.820
12/21/2014  23:24:00     -207.131      -85.864       -2.485       70.219       79.413       39.756     4930.695     6306.476     1580.558        3.155        0.641      224.223       25.254        0.013      337.937       10.246      867.813
12/21/2014  23:25:00     -219.959      -65.318       -4.971       89.038       57.676       41.234     7927.785     3326.540     1700.221        3.281        0.648      229.453       37.881        0.027      338.053       10.440      867.817
12/21/2014  23:26:00     -182.151      -67.011       -6.876       66.193       55.987       36.325     4381.487     3134.510     1319.475        2.327        0.442      194.086       35.255        0.033      337.983       10.322      867.838
12/21/2014  23:27:00     -206.737      -50.551        0.527       77.392       73.326       39.578     5989.556     5376.729     1566.395        2.911        0.647      212.828       41.126        0.037      337.990       10.335      867.851
12/21/2014  23:28:00     -193.370      -38.623       -9.501       54.142       58.952       36.282     2931.314     3475.395     1316.370        2.335        0.386      197.189       35.449        0.032      337.920       10.217      867.859
12/21/2014  23:29:00     -175.737      -37.300      -11.600       67.568       56.340       33.308     4565.424     3174.171     1109.434        2.063        0.442      179.652       35.184        0.038      337.795       10.009      867.868
12/21/2014  23:30:00     -178.010      -24.774       -4.387       71.605       52.622       36.576     5127.265     2769.107     1337.793        2.078        0.462      179.726       37.884        0.044      337.749        9.931      867.877
12/21/2014  23:31:00     -190.499      -50.449       -3.496       82.646       59.152       45.509     6830.291     3498.909     2071.047        2.562        0.620      197.066       50.953        0.067      337.803       10.020      867.869
12/21/2014  23:32:00     -142.674      -26.283        2.617       71.208       49.614       35.171     5070.610     2461.557     1237.031        1.491        0.438      145.075       38.866        0.072      337.834       10.074      867.852
12/21/2014  23:33:00     -140.960      -35.202       -0.874       66.002       49.246       32.375     4356.201     2425.212     1048.169        1.447        0.391      145.289       30.986        0.045      337.646        9.761      867.855
12/21/2014  23:34:00     -167.798       -4.142      -13.550       55.669       44.997       28.976     3099.093     2024.721      839.606        1.716        0.298      167.850       31.810        0.036      337.765        9.959      867.859
12/21/2014  23:35:00     -152.040      -34.107       -2.944       38.589       44.570       31.025     1489.144     1986.450      962.569        1.436        0.222      155.818       26.127        0.028      337.509        9.531      867.867
12/21/2014  23:36:00     -114.875       -9.878       -9.066       44.325       35.004       22.224     1964.711     1225.293      493.910        0.853        0.184      115.299       16.964        0.022      337.739        9.917      867.874
12/21/2014  23:37:00     -151.014      -17.866      -20.400       48.163       32.554       26.165     2319.631     1059.747      684.584        1.380        0.203      152.067       28.535        0.035      337.648        9.764      867.879
12/21/2014  23:38:00     -141.336      -41.743       -8.172       42.783       57.658       27.547     1830.362     3324.498      758.811        1.385        0.296      147.372       25.729        0.030      337.578        9.647      867.905
12/21/2014  23:39:00     -130.683      -54.299       -6.079       56.692       36.727       33.786     3214.013     1348.899     1141.487        1.288        0.285      141.515       33.789        0.057      337.597        9.679      867.935
12/21/2014  23:40:00     -151.604      -15.568      -10.278       53.641       37.921       27.827     2877.392     1438.023      774.360        1.421        0.254      152.401       28.876        0.036      337.761        9.953      867.946
12/21/2014  23:41:00     -189.269      -40.258      -10.760       47.333       31.162       23.369     2240.377      971.039      546.113        2.066        0.188      193.503       17.294        0.008      337.665        9.791      867.962
12/21/2014  23:42:00     -136.561      -40.420        2.156       40.714       38.734       27.945     1657.667     1500.310      780.916        1.211        0.197      142.418       26.081        0.034      337.547        9.594      867.964
12/21/2014  23:43:00     -104.281        7.657       -1.435       47.608       36.154       28.756     2266.531     1307.088      826.926        0.767        0.220      104.562       31.041        0.088      337.867       10.134      867.963
12/21/2014  23:44:00     -132.760       -7.754       -8.462       37.072       30.206       23.052     1374.328      912.414      531.375        1.029        0.141      132.987       23.739        0.032      337.725        9.893      867.966
12/21/2014  23:45:00     -132.138      -10.629      -10.671       40.866       28.945       21.410     1670.044      837.826      458.394        1.033        0.148      132.565       20.164        0.023      337.840       10.085      867.964
12/21/2014  23:46:00     -152.157      -22.542      -10.267       37.451       25.268       19.104     1402.594      638.472      364.951        1.309        0.120      153.817       19.473        0.016      337.576        9.645      867.966
12/21/2014  23:47:00     -159.510      -43.572      -11.257       26.812       31.214       20.050      718.867      974.298      401.985        1.478        0.105      165.354       15.933        0.009      337.570        9.634      867.965
12/21/2014  23:48:00     -169.924      -79.203       -1.212       44.579       32.446       24.162     1987.259     1052.723      583.826        1.939        0.181      187.476       22.213        0.014      337.717        9.878      867.958
12/21/2014  23:49:00     -162.761      -60.359        2.026       56.032       46.092       28.055     3139.609     2124.515      787.096        1.809        0.303      173.593       28.589        0.027      337.889       10.166      867.950
12/21/2014  23:50:00     -166.500      -78.456       -1.756       67.290       43.418       28.006     4527.979     1885.146      784.361        2.054        0.360      184.059       32.590        0.031      338.013       10.373      867.942
12/21/2014  23:51:00     -180.183      -81.153       -1.670       53.628       40.454       26.938     2875.966     1636.525      725.649        2.215        0.262      197.615       28.766        0.021      338.102       10.525      867.932
12/21/2014  23:52:00     -202.089      -79.608       -1.901       54.375       42.861       28.004     2956.596     1837.065      784.216        2.638        0.279      217.204       27.141        0.016      338.103       10.524      867.941
12/21/2014  23:53:00     -160.170      -83.121        2.040       69.729       68.687       35.138     4862.175     4717.935     1234.674        2.169        0.541      180.454       37.592        0.043      338.134       10.577      867.962
12/21/2014  23:54:00     -125.576      -24.489       -5.258       72.184       48.830       29.457     5210.509     2384.400      867.693        1.243        0.423      127.942       29.334        0.053      338.117       10.548      867.985
12/21/2014  23:55:00     -199.769       22.462      -14.083       57.278       29.903       26.464     3280.815      894.179      700.321        2.274        0.244      201.028       28.546        0.020      338.020       10.387      868.006
12/21/2014  23:56:00     -141.726      -39.348       -3.404       55.210       57.679       30.351     3048.137     3326.895      921.164        1.447        0.365      147.087       24.771        0.028      337.607        9.693      867.986
12/21/2014  23:57:00     -176.578      -36.277       -5.967       72.383       46.381       35.842     5239.335     2151.196     1284.654        2.060        0.434      180.266       36.304        0.041      337.462        9.452      867.952
12/21/2014  23:58:00     -193.270      -48.580       -7.357       59.425       62.963       35.463     3531.289     3964.328     1257.614        2.426        0.438      199.282       35.307        0.031      337.525        9.556      867.922
12/21/2014  23:59:00     -230.239       12.656      -26.977       54.079       48.030       26.383     2924.516     2306.891      696.055        2.991        0.296      230.587       24.593        0.011      337.554        9.605      867.912
